<?xml version="1.0" encoding="UTF-8" standalone="no" ?>
<gpx xmlns="http://www.topografix.com/GPX/1/1" xmlns:xsi="http://www.w3.org/2001/XMLSchema-instance" xsi:schemaLocation="http://www.topografix.com/GPX/1/1 http://www.topografix.com/GPX/1/1/gpx.xsd" version="1.1" creator="VisuGPX - https://www.visugpx.com">
  <metadata>
    <name> VTT dans les chambaran</name>
    <desc><![CDATA[Partie du parking du stade de rugby.
Tour assez exigent pour Vététiste bien entraîné 
]]></desc>
  </metadata>
  <trk>
    <name><![CDATA[ACTIVE LOG]]></name>
    <trkseg>
      <trkpt lat="45.29847" lon="5.49807">
        <ele>197</ele>
        <time>2009-11-14T08:40:12Z</time>
      </trkpt>
      <trkpt lat="45.29848" lon="5.49806">
        <ele>196</ele>
        <time>2009-11-14T08:42:59Z</time>
      </trkpt>
      <trkpt lat="45.29851" lon="5.49789">
        <ele>196</ele>
        <time>2009-11-14T08:43:05Z</time>
      </trkpt>
      <trkpt lat="45.29877" lon="5.49723">
        <ele>197</ele>
        <time>2009-11-14T08:43:22Z</time>
      </trkpt>
      <trkpt lat="45.29922" lon="5.49602">
        <ele>198</ele>
        <time>2009-11-14T08:43:48Z</time>
      </trkpt>
      <trkpt lat="45.2993" lon="5.49562">
        <ele>198</ele>
        <time>2009-11-14T08:44:00Z</time>
      </trkpt>
      <trkpt lat="45.29936" lon="5.49546">
        <ele>198</ele>
        <time>2009-11-14T08:44:10Z</time>
      </trkpt>
      <trkpt lat="45.29884" lon="5.49494">
        <ele>198</ele>
        <time>2009-11-14T08:44:26Z</time>
      </trkpt>
      <trkpt lat="45.29827" lon="5.49432">
        <ele>199</ele>
        <time>2009-11-14T08:44:46Z</time>
      </trkpt>
      <trkpt lat="45.2976" lon="5.49351">
        <ele>200</ele>
        <time>2009-11-14T08:45:08Z</time>
      </trkpt>
      <trkpt lat="45.29696" lon="5.49274">
        <ele>200</ele>
        <time>2009-11-14T08:45:27Z</time>
      </trkpt>
      <trkpt lat="45.29646" lon="5.49212">
        <ele>199</ele>
        <time>2009-11-14T08:45:41Z</time>
      </trkpt>
      <trkpt lat="45.29563" lon="5.49107">
        <ele>196</ele>
        <time>2009-11-14T08:46:01Z</time>
      </trkpt>
      <trkpt lat="45.29522" lon="5.49022">
        <ele>195</ele>
        <time>2009-11-14T08:46:15Z</time>
      </trkpt>
      <trkpt lat="45.29489" lon="5.48957">
        <ele>195</ele>
        <time>2009-11-14T08:46:26Z</time>
      </trkpt>
      <trkpt lat="45.29481" lon="5.48942">
        <ele>196</ele>
        <time>2009-11-14T08:46:29Z</time>
      </trkpt>
      <trkpt lat="45.29485" lon="5.48911">
        <ele>197</ele>
        <time>2009-11-14T08:46:34Z</time>
      </trkpt>
      <trkpt lat="45.29538" lon="5.48857">
        <ele>200</ele>
        <time>2009-11-14T08:46:52Z</time>
      </trkpt>
      <trkpt lat="45.29552" lon="5.48842">
        <ele>201</ele>
        <time>2009-11-14T08:46:58Z</time>
      </trkpt>
      <trkpt lat="45.29577" lon="5.48823">
        <ele>203</ele>
        <time>2009-11-14T08:47:08Z</time>
      </trkpt>
      <trkpt lat="45.29611" lon="5.48796">
        <ele>205</ele>
        <time>2009-11-14T08:47:23Z</time>
      </trkpt>
      <trkpt lat="45.29617" lon="5.48789">
        <ele>204</ele>
        <time>2009-11-14T08:47:28Z</time>
      </trkpt>
      <trkpt lat="45.29604" lon="5.48803">
        <ele>203</ele>
        <time>2009-11-14T08:47:36Z</time>
      </trkpt>
      <trkpt lat="45.29601" lon="5.48806">
        <ele>203</ele>
        <time>2009-11-14T08:47:37Z</time>
      </trkpt>
      <trkpt lat="45.29575" lon="5.48825">
        <ele>201</ele>
        <time>2009-11-14T08:47:43Z</time>
      </trkpt>
      <trkpt lat="45.29561" lon="5.48826">
        <ele>200</ele>
        <time>2009-11-14T08:47:46Z</time>
      </trkpt>
      <trkpt lat="45.29552" lon="5.48821">
        <ele>200</ele>
        <time>2009-11-14T08:47:48Z</time>
      </trkpt>
      <trkpt lat="45.29492" lon="5.48778">
        <ele>200</ele>
        <time>2009-11-14T08:48:03Z</time>
      </trkpt>
      <trkpt lat="45.2942" lon="5.48704">
        <ele>200</ele>
        <time>2009-11-14T08:48:26Z</time>
      </trkpt>
      <trkpt lat="45.29406" lon="5.48657">
        <ele>203</ele>
        <time>2009-11-14T08:48:39Z</time>
      </trkpt>
      <trkpt lat="45.29394" lon="5.48625">
        <ele>206</ele>
        <time>2009-11-14T08:48:51Z</time>
      </trkpt>
      <trkpt lat="45.29387" lon="5.48605">
        <ele>210</ele>
        <time>2009-11-14T08:48:59Z</time>
      </trkpt>
      <trkpt lat="45.29381" lon="5.48579">
        <ele>213</ele>
        <time>2009-11-14T08:49:10Z</time>
      </trkpt>
      <trkpt lat="45.29396" lon="5.48547">
        <ele>216</ele>
        <time>2009-11-14T08:49:22Z</time>
      </trkpt>
      <trkpt lat="45.29412" lon="5.48518">
        <ele>219</ele>
        <time>2009-11-14T08:49:35Z</time>
      </trkpt>
      <trkpt lat="45.2943" lon="5.48473">
        <ele>222</ele>
        <time>2009-11-14T08:49:52Z</time>
      </trkpt>
      <trkpt lat="45.29438" lon="5.48429">
        <ele>226</ele>
        <time>2009-11-14T08:50:07Z</time>
      </trkpt>
      <trkpt lat="45.2944" lon="5.48403">
        <ele>228</ele>
        <time>2009-11-14T08:50:23Z</time>
      </trkpt>
      <trkpt lat="45.2944" lon="5.4839">
        <ele>228</ele>
        <time>2009-11-14T08:50:27Z</time>
      </trkpt>
      <trkpt lat="45.29428" lon="5.48331">
        <ele>229</ele>
        <time>2009-11-14T08:50:46Z</time>
      </trkpt>
      <trkpt lat="45.294" lon="5.48244">
        <ele>231</ele>
        <time>2009-11-14T08:51:09Z</time>
      </trkpt>
      <trkpt lat="45.29378" lon="5.48188">
        <ele>234</ele>
        <time>2009-11-14T08:51:27Z</time>
      </trkpt>
      <trkpt lat="45.29369" lon="5.48172">
        <ele>234</ele>
        <time>2009-11-14T08:51:33Z</time>
      </trkpt>
      <trkpt lat="45.29357" lon="5.48148">
        <ele>235</ele>
        <time>2009-11-14T08:51:49Z</time>
      </trkpt>
      <trkpt lat="45.29356" lon="5.48134">
        <ele>236</ele>
        <time>2009-11-14T08:51:53Z</time>
      </trkpt>
      <trkpt lat="45.29356" lon="5.48103">
        <ele>239</ele>
        <time>2009-11-14T08:52:07Z</time>
      </trkpt>
      <trkpt lat="45.29356" lon="5.4807">
        <ele>243</ele>
        <time>2009-11-14T08:52:20Z</time>
      </trkpt>
      <trkpt lat="45.29326" lon="5.48044">
        <ele>246</ele>
        <time>2009-11-14T08:52:39Z</time>
      </trkpt>
      <trkpt lat="45.29309" lon="5.4801">
        <ele>249</ele>
        <time>2009-11-14T08:52:55Z</time>
      </trkpt>
      <trkpt lat="45.29297" lon="5.47984">
        <ele>252</ele>
        <time>2009-11-14T08:53:08Z</time>
      </trkpt>
      <trkpt lat="45.29286" lon="5.47961">
        <ele>255</ele>
        <time>2009-11-14T08:53:20Z</time>
      </trkpt>
      <trkpt lat="45.29274" lon="5.47938">
        <ele>258</ele>
        <time>2009-11-14T08:53:33Z</time>
      </trkpt>
      <trkpt lat="45.2927" lon="5.4793">
        <ele>260</ele>
        <time>2009-11-14T08:53:39Z</time>
      </trkpt>
      <trkpt lat="45.29255" lon="5.47911">
        <ele>263</ele>
        <time>2009-11-14T08:53:52Z</time>
      </trkpt>
      <trkpt lat="45.29242" lon="5.47902">
        <ele>266</ele>
        <time>2009-11-14T08:54:02Z</time>
      </trkpt>
      <trkpt lat="45.29237" lon="5.47899">
        <ele>267</ele>
        <time>2009-11-14T08:54:06Z</time>
      </trkpt>
      <trkpt lat="45.29232" lon="5.47896">
        <ele>268</ele>
        <time>2009-11-14T08:54:10Z</time>
      </trkpt>
      <trkpt lat="45.29221" lon="5.47894">
        <ele>270</ele>
        <time>2009-11-14T08:54:18Z</time>
      </trkpt>
      <trkpt lat="45.29216" lon="5.47893">
        <ele>272</ele>
        <time>2009-11-14T08:54:22Z</time>
      </trkpt>
      <trkpt lat="45.29201" lon="5.4789">
        <ele>275</ele>
        <time>2009-11-14T08:54:34Z</time>
      </trkpt>
      <trkpt lat="45.29182" lon="5.47887">
        <ele>278</ele>
        <time>2009-11-14T08:54:47Z</time>
      </trkpt>
      <trkpt lat="45.29164" lon="5.47887">
        <ele>281</ele>
        <time>2009-11-14T08:55:00Z</time>
      </trkpt>
      <trkpt lat="45.29161" lon="5.47887">
        <ele>281</ele>
        <time>2009-11-14T08:55:02Z</time>
      </trkpt>
      <trkpt lat="45.29147" lon="5.47886">
        <ele>284</ele>
        <time>2009-11-14T08:55:12Z</time>
      </trkpt>
      <trkpt lat="45.29128" lon="5.47883">
        <ele>287</ele>
        <time>2009-11-14T08:55:26Z</time>
      </trkpt>
      <trkpt lat="45.29106" lon="5.47888">
        <ele>290</ele>
        <time>2009-11-14T08:55:41Z</time>
      </trkpt>
      <trkpt lat="45.29086" lon="5.47899">
        <ele>294</ele>
        <time>2009-11-14T08:55:55Z</time>
      </trkpt>
      <trkpt lat="45.29069" lon="5.47906">
        <ele>297</ele>
        <time>2009-11-14T08:56:07Z</time>
      </trkpt>
      <trkpt lat="45.29047" lon="5.47912">
        <ele>300</ele>
        <time>2009-11-14T08:56:22Z</time>
      </trkpt>
      <trkpt lat="45.29019" lon="5.47915">
        <ele>303</ele>
        <time>2009-11-14T08:56:39Z</time>
      </trkpt>
      <trkpt lat="45.28991" lon="5.47915">
        <ele>305</ele>
        <time>2009-11-14T08:56:59Z</time>
      </trkpt>
      <trkpt lat="45.28954" lon="5.4791">
        <ele>307</ele>
        <time>2009-11-14T08:57:23Z</time>
      </trkpt>
      <trkpt lat="45.28912" lon="5.47904">
        <ele>310</ele>
        <time>2009-11-14T08:57:44Z</time>
      </trkpt>
      <trkpt lat="45.28875" lon="5.47891">
        <ele>313</ele>
        <time>2009-11-14T08:58:02Z</time>
      </trkpt>
      <trkpt lat="45.28842" lon="5.47867">
        <ele>316</ele>
        <time>2009-11-14T08:58:20Z</time>
      </trkpt>
      <trkpt lat="45.28812" lon="5.47843">
        <ele>319</ele>
        <time>2009-11-14T08:58:37Z</time>
      </trkpt>
      <trkpt lat="45.28773" lon="5.47816">
        <ele>322</ele>
        <time>2009-11-14T08:58:58Z</time>
      </trkpt>
      <trkpt lat="45.2875" lon="5.47798">
        <ele>324</ele>
        <time>2009-11-14T08:59:12Z</time>
      </trkpt>
      <trkpt lat="45.2873" lon="5.47778">
        <ele>326</ele>
        <time>2009-11-14T08:59:25Z</time>
      </trkpt>
      <trkpt lat="45.28722" lon="5.47738">
        <ele>327</ele>
        <time>2009-11-14T08:59:40Z</time>
      </trkpt>
      <trkpt lat="45.28734" lon="5.47696">
        <ele>326</ele>
        <time>2009-11-14T08:59:52Z</time>
      </trkpt>
      <trkpt lat="45.28755" lon="5.47622">
        <ele>322</ele>
        <time>2009-11-14T09:00:06Z</time>
      </trkpt>
      <trkpt lat="45.28756" lon="5.47606">
        <ele>322</ele>
        <time>2009-11-14T09:00:08Z</time>
      </trkpt>
      <trkpt lat="45.28758" lon="5.4759">
        <ele>321</ele>
        <time>2009-11-14T09:00:10Z</time>
      </trkpt>
      <trkpt lat="45.2877" lon="5.47562">
        <ele>320</ele>
        <time>2009-11-14T09:00:14Z</time>
      </trkpt>
      <trkpt lat="45.28777" lon="5.47549">
        <ele>320</ele>
        <time>2009-11-14T09:00:16Z</time>
      </trkpt>
      <trkpt lat="45.28777" lon="5.47526">
        <ele>321</ele>
        <time>2009-11-14T09:00:22Z</time>
      </trkpt>
      <trkpt lat="45.28735" lon="5.47492">
        <ele>318</ele>
        <time>2009-11-14T09:00:36Z</time>
      </trkpt>
      <trkpt lat="45.28701" lon="5.4745">
        <ele>315</ele>
        <time>2009-11-14T09:00:44Z</time>
      </trkpt>
      <trkpt lat="45.28624" lon="5.47368">
        <ele>316</ele>
        <time>2009-11-14T09:01:00Z</time>
      </trkpt>
      <trkpt lat="45.28556" lon="5.47292">
        <ele>318</ele>
        <time>2009-11-14T09:01:19Z</time>
      </trkpt>
      <trkpt lat="45.28465" lon="5.47217">
        <ele>318</ele>
        <time>2009-11-14T09:01:42Z</time>
      </trkpt>
      <trkpt lat="45.28457" lon="5.47211">
        <ele>318</ele>
        <time>2009-11-14T09:01:44Z</time>
      </trkpt>
      <trkpt lat="45.28413" lon="5.47152">
        <ele>315</ele>
        <time>2009-11-14T09:01:56Z</time>
      </trkpt>
      <trkpt lat="45.28409" lon="5.47145">
        <ele>315</ele>
        <time>2009-11-14T09:01:57Z</time>
      </trkpt>
      <trkpt lat="45.28375" lon="5.47079">
        <ele>311</ele>
        <time>2009-11-14T09:02:06Z</time>
      </trkpt>
      <trkpt lat="45.28354" lon="5.4703">
        <ele>308</ele>
        <time>2009-11-14T09:02:12Z</time>
      </trkpt>
      <trkpt lat="45.28328" lon="5.46981">
        <ele>305</ele>
        <time>2009-11-14T09:02:18Z</time>
      </trkpt>
      <trkpt lat="45.28291" lon="5.46932">
        <ele>301</ele>
        <time>2009-11-14T09:02:25Z</time>
      </trkpt>
      <trkpt lat="45.28271" lon="5.46912">
        <ele>297</ele>
        <time>2009-11-14T09:02:28Z</time>
      </trkpt>
      <trkpt lat="45.28263" lon="5.46907">
        <ele>296</ele>
        <time>2009-11-14T09:02:29Z</time>
      </trkpt>
      <trkpt lat="45.28225" lon="5.46892">
        <ele>290</ele>
        <time>2009-11-14T09:02:33Z</time>
      </trkpt>
      <trkpt lat="45.28195" lon="5.46878">
        <ele>287</ele>
        <time>2009-11-14T09:02:36Z</time>
      </trkpt>
      <trkpt lat="45.28069" lon="5.46797">
        <ele>284</ele>
        <time>2009-11-14T09:02:50Z</time>
      </trkpt>
      <trkpt lat="45.2799" lon="5.46752">
        <ele>285</ele>
        <time>2009-11-14T09:03:02Z</time>
      </trkpt>
      <trkpt lat="45.27978" lon="5.46748">
        <ele>285</ele>
        <time>2009-11-14T09:03:04Z</time>
      </trkpt>
      <trkpt lat="45.27967" lon="5.46709">
        <ele>283</ele>
        <time>2009-11-14T09:03:10Z</time>
      </trkpt>
      <trkpt lat="45.27973" lon="5.46692">
        <ele>283</ele>
        <time>2009-11-14T09:03:12Z</time>
      </trkpt>
      <trkpt lat="45.27985" lon="5.46659">
        <ele>284</ele>
        <time>2009-11-14T09:03:16Z</time>
      </trkpt>
      <trkpt lat="45.27983" lon="5.46622">
        <ele>286</ele>
        <time>2009-11-14T09:03:23Z</time>
      </trkpt>
      <trkpt lat="45.27932" lon="5.4656">
        <ele>285</ele>
        <time>2009-11-14T09:03:42Z</time>
      </trkpt>
      <trkpt lat="45.2791" lon="5.46538">
        <ele>283</ele>
        <time>2009-11-14T09:03:47Z</time>
      </trkpt>
      <trkpt lat="45.27893" lon="5.46525">
        <ele>284</ele>
        <time>2009-11-14T09:03:51Z</time>
      </trkpt>
      <trkpt lat="45.27874" lon="5.4651">
        <ele>283</ele>
        <time>2009-11-14T09:03:56Z</time>
      </trkpt>
      <trkpt lat="45.27844" lon="5.46488">
        <ele>287</ele>
        <time>2009-11-14T09:04:05Z</time>
      </trkpt>
      <trkpt lat="45.2783" lon="5.4648">
        <ele>289</ele>
        <time>2009-11-14T09:04:09Z</time>
      </trkpt>
      <trkpt lat="45.27779" lon="5.46454">
        <ele>286</ele>
        <time>2009-11-14T09:04:24Z</time>
      </trkpt>
      <trkpt lat="45.27716" lon="5.46446">
        <ele>283</ele>
        <time>2009-11-14T09:04:34Z</time>
      </trkpt>
      <trkpt lat="45.2768" lon="5.46437">
        <ele>282</ele>
        <time>2009-11-14T09:04:40Z</time>
      </trkpt>
      <trkpt lat="45.27598" lon="5.46396">
        <ele>281</ele>
        <time>2009-11-14T09:04:55Z</time>
      </trkpt>
      <trkpt lat="45.2753" lon="5.46365">
        <ele>282</ele>
        <time>2009-11-14T09:05:09Z</time>
      </trkpt>
      <trkpt lat="45.27444" lon="5.46326">
        <ele>283</ele>
        <time>2009-11-14T09:05:28Z</time>
      </trkpt>
      <trkpt lat="45.27401" lon="5.46312">
        <ele>286</ele>
        <time>2009-11-14T09:05:39Z</time>
      </trkpt>
      <trkpt lat="45.2738" lon="5.46314">
        <ele>289</ele>
        <time>2009-11-14T09:05:49Z</time>
      </trkpt>
      <trkpt lat="45.27361" lon="5.46308">
        <ele>292</ele>
        <time>2009-11-14T09:06:00Z</time>
      </trkpt>
      <trkpt lat="45.27341" lon="5.4629">
        <ele>295</ele>
        <time>2009-11-14T09:06:14Z</time>
      </trkpt>
      <trkpt lat="45.27323" lon="5.46274">
        <ele>298</ele>
        <time>2009-11-14T09:06:28Z</time>
      </trkpt>
      <trkpt lat="45.27315" lon="5.46265">
        <ele>301</ele>
        <time>2009-11-14T09:06:35Z</time>
      </trkpt>
      <trkpt lat="45.27311" lon="5.46259">
        <ele>302</ele>
        <time>2009-11-14T09:06:39Z</time>
      </trkpt>
      <trkpt lat="45.27297" lon="5.46246">
        <ele>305</ele>
        <time>2009-11-14T09:06:51Z</time>
      </trkpt>
      <trkpt lat="45.27279" lon="5.46228">
        <ele>307</ele>
        <time>2009-11-14T09:07:05Z</time>
      </trkpt>
      <trkpt lat="45.27252" lon="5.46183">
        <ele>305</ele>
        <time>2009-11-14T09:07:20Z</time>
      </trkpt>
      <trkpt lat="45.27208" lon="5.46119">
        <ele>305</ele>
        <time>2009-11-14T09:07:37Z</time>
      </trkpt>
      <trkpt lat="45.27147" lon="5.46046">
        <ele>303</ele>
        <time>2009-11-14T09:07:56Z</time>
      </trkpt>
      <trkpt lat="45.27123" lon="5.46025">
        <ele>302</ele>
        <time>2009-11-14T09:08:02Z</time>
      </trkpt>
      <trkpt lat="45.27062" lon="5.4595">
        <ele>301</ele>
        <time>2009-11-14T09:08:19Z</time>
      </trkpt>
      <trkpt lat="45.27048" lon="5.45928">
        <ele>301</ele>
        <time>2009-11-14T09:08:23Z</time>
      </trkpt>
      <trkpt lat="45.27034" lon="5.45905">
        <ele>300</ele>
        <time>2009-11-14T09:08:27Z</time>
      </trkpt>
      <trkpt lat="45.26997" lon="5.45855">
        <ele>295</ele>
        <time>2009-11-14T09:08:35Z</time>
      </trkpt>
      <trkpt lat="45.26979" lon="5.4583">
        <ele>291</ele>
        <time>2009-11-14T09:08:38Z</time>
      </trkpt>
      <trkpt lat="45.26961" lon="5.45801">
        <ele>288</ele>
        <time>2009-11-14T09:08:41Z</time>
      </trkpt>
      <trkpt lat="45.26948" lon="5.45781">
        <ele>287</ele>
        <time>2009-11-14T09:08:43Z</time>
      </trkpt>
      <trkpt lat="45.2692" lon="5.45746">
        <ele>284</ele>
        <time>2009-11-14T09:08:47Z</time>
      </trkpt>
      <trkpt lat="45.269" lon="5.45721">
        <ele>282</ele>
        <time>2009-11-14T09:08:50Z</time>
      </trkpt>
      <trkpt lat="45.26878" lon="5.4569">
        <ele>284</ele>
        <time>2009-11-14T09:08:54Z</time>
      </trkpt>
      <trkpt lat="45.26832" lon="5.45631">
        <ele>284</ele>
        <time>2009-11-14T09:09:03Z</time>
      </trkpt>
      <trkpt lat="45.26824" lon="5.45621">
        <ele>286</ele>
        <time>2009-11-14T09:09:05Z</time>
      </trkpt>
      <trkpt lat="45.26817" lon="5.45611">
        <ele>286</ele>
        <time>2009-11-14T09:09:07Z</time>
      </trkpt>
      <trkpt lat="45.26795" lon="5.45607">
        <ele>288</ele>
        <time>2009-11-14T09:09:13Z</time>
      </trkpt>
      <trkpt lat="45.26747" lon="5.45605">
        <ele>287</ele>
        <time>2009-11-14T09:09:28Z</time>
      </trkpt>
      <trkpt lat="45.26738" lon="5.456">
        <ele>286</ele>
        <time>2009-11-14T09:09:30Z</time>
      </trkpt>
      <trkpt lat="45.26659" lon="5.45536">
        <ele>287</ele>
        <time>2009-11-14T09:09:49Z</time>
      </trkpt>
      <trkpt lat="45.26612" lon="5.45488">
        <ele>289</ele>
        <time>2009-11-14T09:10:06Z</time>
      </trkpt>
      <trkpt lat="45.26595" lon="5.45469">
        <ele>290</ele>
        <time>2009-11-14T09:10:16Z</time>
      </trkpt>
      <trkpt lat="45.26557" lon="5.45433">
        <ele>292</ele>
        <time>2009-11-14T09:10:33Z</time>
      </trkpt>
      <trkpt lat="45.26522" lon="5.45395">
        <ele>294</ele>
        <time>2009-11-14T09:10:50Z</time>
      </trkpt>
      <trkpt lat="45.26488" lon="5.4536">
        <ele>297</ele>
        <time>2009-11-14T09:11:08Z</time>
      </trkpt>
      <trkpt lat="45.26452" lon="5.4532">
        <ele>301</ele>
        <time>2009-11-14T09:11:28Z</time>
      </trkpt>
      <trkpt lat="45.26418" lon="5.45278">
        <ele>304</ele>
        <time>2009-11-14T09:11:47Z</time>
      </trkpt>
      <trkpt lat="45.26388" lon="5.45229">
        <ele>306</ele>
        <time>2009-11-14T09:12:06Z</time>
      </trkpt>
      <trkpt lat="45.2638" lon="5.45192">
        <ele>310</ele>
        <time>2009-11-14T09:12:18Z</time>
      </trkpt>
      <trkpt lat="45.26375" lon="5.45176">
        <ele>310</ele>
        <time>2009-11-14T09:12:24Z</time>
      </trkpt>
      <trkpt lat="45.26378" lon="5.45172">
        <ele>311</ele>
        <time>2009-11-14T09:12:28Z</time>
      </trkpt>
      <trkpt lat="45.26388" lon="5.45173">
        <ele>311</ele>
        <time>2009-11-14T09:12:35Z</time>
      </trkpt>
      <trkpt lat="45.26423" lon="5.45177">
        <ele>312</ele>
        <time>2009-11-14T09:12:55Z</time>
      </trkpt>
      <trkpt lat="45.26454" lon="5.45178">
        <ele>315</ele>
        <time>2009-11-14T09:13:09Z</time>
      </trkpt>
      <trkpt lat="45.2647" lon="5.45177">
        <ele>317</ele>
        <time>2009-11-14T09:13:17Z</time>
      </trkpt>
      <trkpt lat="45.2648" lon="5.4518">
        <ele>319</ele>
        <time>2009-11-14T09:13:23Z</time>
      </trkpt>
      <trkpt lat="45.26486" lon="5.45182">
        <ele>320</ele>
        <time>2009-11-14T09:13:26Z</time>
      </trkpt>
      <trkpt lat="45.26493" lon="5.45181">
        <ele>319</ele>
        <time>2009-11-14T09:13:30Z</time>
      </trkpt>
      <trkpt lat="45.26539" lon="5.45132">
        <ele>322</ele>
        <time>2009-11-14T09:13:53Z</time>
      </trkpt>
      <trkpt lat="45.26573" lon="5.45091">
        <ele>323</ele>
        <time>2009-11-14T09:14:09Z</time>
      </trkpt>
      <trkpt lat="45.26575" lon="5.45085">
        <ele>323</ele>
        <time>2009-11-14T09:14:11Z</time>
      </trkpt>
      <trkpt lat="45.26576" lon="5.45076">
        <ele>322</ele>
        <time>2009-11-14T09:14:15Z</time>
      </trkpt>
      <trkpt lat="45.26538" lon="5.45021">
        <ele>322</ele>
        <time>2009-11-14T09:14:32Z</time>
      </trkpt>
      <trkpt lat="45.26521" lon="5.44996">
        <ele>321</ele>
        <time>2009-11-14T09:14:39Z</time>
      </trkpt>
      <trkpt lat="45.26484" lon="5.4497">
        <ele>322</ele>
        <time>2009-11-14T09:14:53Z</time>
      </trkpt>
      <trkpt lat="45.26482" lon="5.44953">
        <ele>324</ele>
        <time>2009-11-14T09:14:57Z</time>
      </trkpt>
      <trkpt lat="45.2649" lon="5.44877">
        <ele>326</ele>
        <time>2009-11-14T09:15:15Z</time>
      </trkpt>
      <trkpt lat="45.26498" lon="5.44826">
        <ele>329</ele>
        <time>2009-11-14T09:15:28Z</time>
      </trkpt>
      <trkpt lat="45.26508" lon="5.44789">
        <ele>330</ele>
        <time>2009-11-14T09:15:40Z</time>
      </trkpt>
      <trkpt lat="45.26537" lon="5.44734">
        <ele>334</ele>
        <time>2009-11-14T09:15:58Z</time>
      </trkpt>
      <trkpt lat="45.26573" lon="5.44677">
        <ele>337</ele>
        <time>2009-11-14T09:16:19Z</time>
      </trkpt>
      <trkpt lat="45.2659" lon="5.44628">
        <ele>340</ele>
        <time>2009-11-14T09:16:35Z</time>
      </trkpt>
      <trkpt lat="45.26609" lon="5.44571">
        <ele>343</ele>
        <time>2009-11-14T09:16:52Z</time>
      </trkpt>
      <trkpt lat="45.2663" lon="5.44499">
        <ele>346</ele>
        <time>2009-11-14T09:17:13Z</time>
      </trkpt>
      <trkpt lat="45.26641" lon="5.44448">
        <ele>349</ele>
        <time>2009-11-14T09:17:27Z</time>
      </trkpt>
      <trkpt lat="45.26644" lon="5.44434">
        <ele>350</ele>
        <time>2009-11-14T09:17:32Z</time>
      </trkpt>
      <trkpt lat="45.26644" lon="5.44433">
        <ele>350</ele>
        <time>2009-11-14T09:17:37Z</time>
      </trkpt>
      <trkpt lat="45.26636" lon="5.44428">
        <ele>348</ele>
        <time>2009-11-14T09:17:41Z</time>
      </trkpt>
      <trkpt lat="45.26579" lon="5.44406">
        <ele>350</ele>
        <time>2009-11-14T09:18:02Z</time>
      </trkpt>
      <trkpt lat="45.26577" lon="5.44362">
        <ele>351</ele>
        <time>2009-11-14T09:18:12Z</time>
      </trkpt>
      <trkpt lat="45.26572" lon="5.44331">
        <ele>354</ele>
        <time>2009-11-14T09:18:23Z</time>
      </trkpt>
      <trkpt lat="45.26572" lon="5.44328">
        <ele>354</ele>
        <time>2009-11-14T09:18:24Z</time>
      </trkpt>
      <trkpt lat="45.26553" lon="5.44347">
        <ele>355</ele>
        <time>2009-11-14T09:18:35Z</time>
      </trkpt>
      <trkpt lat="45.26553" lon="5.44347">
        <ele>355</ele>
        <time>2009-11-14T09:18:36Z</time>
      </trkpt>
      <trkpt lat="45.26533" lon="5.44345">
        <ele>351</ele>
        <time>2009-11-14T09:18:43Z</time>
      </trkpt>
      <trkpt lat="45.26512" lon="5.44354">
        <ele>347</ele>
        <time>2009-11-14T09:18:47Z</time>
      </trkpt>
      <trkpt lat="45.26496" lon="5.44364">
        <ele>345</ele>
        <time>2009-11-14T09:18:50Z</time>
      </trkpt>
      <trkpt lat="45.26462" lon="5.44368">
        <ele>342</ele>
        <time>2009-11-14T09:18:55Z</time>
      </trkpt>
      <trkpt lat="45.26391" lon="5.44363">
        <ele>338</ele>
        <time>2009-11-14T09:19:06Z</time>
      </trkpt>
      <trkpt lat="45.26385" lon="5.44362">
        <ele>338</ele>
        <time>2009-11-14T09:19:07Z</time>
      </trkpt>
      <trkpt lat="45.26341" lon="5.4436">
        <ele>335</ele>
        <time>2009-11-14T09:19:14Z</time>
      </trkpt>
      <trkpt lat="45.26311" lon="5.44362">
        <ele>332</ele>
        <time>2009-11-14T09:19:18Z</time>
      </trkpt>
      <trkpt lat="45.26297" lon="5.44371">
        <ele>330</ele>
        <time>2009-11-14T09:19:20Z</time>
      </trkpt>
      <trkpt lat="45.26268" lon="5.44399">
        <ele>327</ele>
        <time>2009-11-14T09:19:25Z</time>
      </trkpt>
      <trkpt lat="45.26254" lon="5.44415">
        <ele>325</ele>
        <time>2009-11-14T09:19:27Z</time>
      </trkpt>
      <trkpt lat="45.26241" lon="5.4443">
        <ele>324</ele>
        <time>2009-11-14T09:19:29Z</time>
      </trkpt>
      <trkpt lat="45.26232" lon="5.44438">
        <ele>323</ele>
        <time>2009-11-14T09:19:30Z</time>
      </trkpt>
      <trkpt lat="45.26188" lon="5.44461">
        <ele>322</ele>
        <time>2009-11-14T09:19:36Z</time>
      </trkpt>
      <trkpt lat="45.26163" lon="5.44455">
        <ele>324</ele>
        <time>2009-11-14T09:19:40Z</time>
      </trkpt>
      <trkpt lat="45.26148" lon="5.44445">
        <ele>326</ele>
        <time>2009-11-14T09:19:45Z</time>
      </trkpt>
      <trkpt lat="45.26109" lon="5.44433">
        <ele>326</ele>
        <time>2009-11-14T09:19:59Z</time>
      </trkpt>
      <trkpt lat="45.26074" lon="5.44445">
        <ele>324</ele>
        <time>2009-11-14T09:20:09Z</time>
      </trkpt>
      <trkpt lat="45.26049" lon="5.44445">
        <ele>323</ele>
        <time>2009-11-14T09:20:15Z</time>
      </trkpt>
      <trkpt lat="45.2604" lon="5.44442">
        <ele>322</ele>
        <time>2009-11-14T09:20:17Z</time>
      </trkpt>
      <trkpt lat="45.26024" lon="5.44436">
        <ele>321</ele>
        <time>2009-11-14T09:20:21Z</time>
      </trkpt>
      <trkpt lat="45.25989" lon="5.44421">
        <ele>320</ele>
        <time>2009-11-14T09:20:30Z</time>
      </trkpt>
      <trkpt lat="45.25926" lon="5.44392">
        <ele>322</ele>
        <time>2009-11-14T09:20:50Z</time>
      </trkpt>
      <trkpt lat="45.25862" lon="5.44366">
        <ele>322</ele>
        <time>2009-11-14T09:21:13Z</time>
      </trkpt>
      <trkpt lat="45.25853" lon="5.44368">
        <ele>321</ele>
        <time>2009-11-14T09:21:15Z</time>
      </trkpt>
      <trkpt lat="45.25837" lon="5.44368">
        <ele>319</ele>
        <time>2009-11-14T09:21:18Z</time>
      </trkpt>
      <trkpt lat="45.25825" lon="5.4437">
        <ele>317</ele>
        <time>2009-11-14T09:21:20Z</time>
      </trkpt>
      <trkpt lat="45.25785" lon="5.4437">
        <ele>313</ele>
        <time>2009-11-14T09:21:27Z</time>
      </trkpt>
      <trkpt lat="45.25768" lon="5.44361">
        <ele>316</ele>
        <time>2009-11-14T09:21:31Z</time>
      </trkpt>
      <trkpt lat="45.25757" lon="5.44346">
        <ele>318</ele>
        <time>2009-11-14T09:21:35Z</time>
      </trkpt>
      <trkpt lat="45.25723" lon="5.44309">
        <ele>319</ele>
        <time>2009-11-14T09:21:48Z</time>
      </trkpt>
      <trkpt lat="45.25693" lon="5.44288">
        <ele>321</ele>
        <time>2009-11-14T09:21:58Z</time>
      </trkpt>
      <trkpt lat="45.25666" lon="5.44272">
        <ele>321</ele>
        <time>2009-11-14T09:22:08Z</time>
      </trkpt>
      <trkpt lat="45.25658" lon="5.44267">
        <ele>323</ele>
        <time>2009-11-14T09:22:11Z</time>
      </trkpt>
      <trkpt lat="45.25653" lon="5.44263">
        <ele>325</ele>
        <time>2009-11-14T09:22:23Z</time>
      </trkpt>
      <trkpt lat="45.25653" lon="5.44263">
        <ele>325</ele>
        <time>2009-11-14T09:22:29Z</time>
      </trkpt>
      <trkpt lat="45.25644" lon="5.44265">
        <ele>324</ele>
        <time>2009-11-14T09:22:33Z</time>
      </trkpt>
      <trkpt lat="45.25611" lon="5.44278">
        <ele>323</ele>
        <time>2009-11-14T09:22:49Z</time>
      </trkpt>
      <trkpt lat="45.25607" lon="5.44281">
        <ele>323</ele>
        <time>2009-11-14T09:22:54Z</time>
      </trkpt>
      <trkpt lat="45.25603" lon="5.44283">
        <ele>323</ele>
        <time>2009-11-14T09:22:56Z</time>
      </trkpt>
      <trkpt lat="45.25598" lon="5.44284">
        <ele>321</ele>
        <time>2009-11-14T09:22:59Z</time>
      </trkpt>
      <trkpt lat="45.25549" lon="5.44268">
        <ele>321</ele>
        <time>2009-11-14T09:23:18Z</time>
      </trkpt>
      <trkpt lat="45.25524" lon="5.44264">
        <ele>323</ele>
        <time>2009-11-14T09:23:27Z</time>
      </trkpt>
      <trkpt lat="45.25521" lon="5.44267">
        <ele>324</ele>
        <time>2009-11-14T09:23:31Z</time>
      </trkpt>
      <trkpt lat="45.25529" lon="5.44221">
        <ele>327</ele>
        <time>2009-11-14T09:23:47Z</time>
      </trkpt>
      <trkpt lat="45.25531" lon="5.44213">
        <ele>328</ele>
        <time>2009-11-14T09:23:50Z</time>
      </trkpt>
      <trkpt lat="45.25544" lon="5.44158">
        <ele>332</ele>
        <time>2009-11-14T09:24:09Z</time>
      </trkpt>
      <trkpt lat="45.25558" lon="5.44109">
        <ele>335</ele>
        <time>2009-11-14T09:24:26Z</time>
      </trkpt>
      <trkpt lat="45.25567" lon="5.44075">
        <ele>338</ele>
        <time>2009-11-14T09:24:38Z</time>
      </trkpt>
      <trkpt lat="45.25577" lon="5.44044">
        <ele>340</ele>
        <time>2009-11-14T09:24:49Z</time>
      </trkpt>
      <trkpt lat="45.2558" lon="5.44014">
        <ele>341</ele>
        <time>2009-11-14T09:24:59Z</time>
      </trkpt>
      <trkpt lat="45.25582" lon="5.43964">
        <ele>344</ele>
        <time>2009-11-14T09:25:16Z</time>
      </trkpt>
      <trkpt lat="45.25584" lon="5.43937">
        <ele>348</ele>
        <time>2009-11-14T09:25:26Z</time>
      </trkpt>
      <trkpt lat="45.25588" lon="5.43893">
        <ele>351</ele>
        <time>2009-11-14T09:25:42Z</time>
      </trkpt>
      <trkpt lat="45.25591" lon="5.4386">
        <ele>354</ele>
        <time>2009-11-14T09:25:54Z</time>
      </trkpt>
      <trkpt lat="45.25594" lon="5.43821">
        <ele>356</ele>
        <time>2009-11-14T09:26:08Z</time>
      </trkpt>
      <trkpt lat="45.25595" lon="5.43817">
        <ele>357</ele>
        <time>2009-11-14T09:26:11Z</time>
      </trkpt>
      <trkpt lat="45.25595" lon="5.43817">
        <ele>358</ele>
        <time>2009-11-14T09:26:16Z</time>
      </trkpt>
      <trkpt lat="45.25576" lon="5.43806">
        <ele>362</ele>
        <time>2009-11-14T09:26:30Z</time>
      </trkpt>
      <trkpt lat="45.25559" lon="5.438">
        <ele>363</ele>
        <time>2009-11-14T09:26:42Z</time>
      </trkpt>
      <trkpt lat="45.25557" lon="5.43799">
        <ele>363</ele>
        <time>2009-11-14T09:26:46Z</time>
      </trkpt>
      <trkpt lat="45.25526" lon="5.4379">
        <ele>364</ele>
        <time>2009-11-14T09:27:00Z</time>
      </trkpt>
      <trkpt lat="45.25492" lon="5.43785">
        <ele>363</ele>
        <time>2009-11-14T09:27:09Z</time>
      </trkpt>
      <trkpt lat="45.25481" lon="5.43785">
        <ele>364</ele>
        <time>2009-11-14T09:27:13Z</time>
      </trkpt>
      <trkpt lat="45.25454" lon="5.43783">
        <ele>362</ele>
        <time>2009-11-14T09:27:21Z</time>
      </trkpt>
      <trkpt lat="45.25424" lon="5.43777">
        <ele>360</ele>
        <time>2009-11-14T09:27:29Z</time>
      </trkpt>
      <trkpt lat="45.25414" lon="5.43774">
        <ele>359</ele>
        <time>2009-11-14T09:27:31Z</time>
      </trkpt>
      <trkpt lat="45.25373" lon="5.43756">
        <ele>359</ele>
        <time>2009-11-14T09:27:41Z</time>
      </trkpt>
      <trkpt lat="45.25322" lon="5.43732">
        <ele>356</ele>
        <time>2009-11-14T09:27:53Z</time>
      </trkpt>
      <trkpt lat="45.25301" lon="5.43714">
        <ele>355</ele>
        <time>2009-11-14T09:27:59Z</time>
      </trkpt>
      <trkpt lat="45.25291" lon="5.43701">
        <ele>354</ele>
        <time>2009-11-14T09:28:02Z</time>
      </trkpt>
      <trkpt lat="45.25284" lon="5.43686">
        <ele>355</ele>
        <time>2009-11-14T09:28:08Z</time>
      </trkpt>
      <trkpt lat="45.25259" lon="5.43659">
        <ele>357</ele>
        <time>2009-11-14T09:28:19Z</time>
      </trkpt>
      <trkpt lat="45.25243" lon="5.4365">
        <ele>358</ele>
        <time>2009-11-14T09:28:26Z</time>
      </trkpt>
      <trkpt lat="45.25221" lon="5.43639">
        <ele>357</ele>
        <time>2009-11-14T09:28:34Z</time>
      </trkpt>
      <trkpt lat="45.25187" lon="5.4362">
        <ele>358</ele>
        <time>2009-11-14T09:28:44Z</time>
      </trkpt>
      <trkpt lat="45.25168" lon="5.43603">
        <ele>357</ele>
        <time>2009-11-14T09:28:55Z</time>
      </trkpt>
      <trkpt lat="45.25168" lon="5.43603">
        <ele>358</ele>
        <time>2009-11-14T09:29:08Z</time>
      </trkpt>
      <trkpt lat="45.25123" lon="5.43583">
        <ele>357</ele>
        <time>2009-11-14T09:29:19Z</time>
      </trkpt>
      <trkpt lat="45.25112" lon="5.43587">
        <ele>356</ele>
        <time>2009-11-14T09:29:25Z</time>
      </trkpt>
      <trkpt lat="45.25097" lon="5.43591">
        <ele>354</ele>
        <time>2009-11-14T09:29:29Z</time>
      </trkpt>
      <trkpt lat="45.25075" lon="5.43596">
        <ele>353</ele>
        <time>2009-11-14T09:29:37Z</time>
      </trkpt>
      <trkpt lat="45.25031" lon="5.43606">
        <ele>352</ele>
        <time>2009-11-14T09:29:47Z</time>
      </trkpt>
      <trkpt lat="45.25016" lon="5.43609">
        <ele>351</ele>
        <time>2009-11-14T09:29:52Z</time>
      </trkpt>
      <trkpt lat="45.25004" lon="5.43611">
        <ele>350</ele>
        <time>2009-11-14T09:29:55Z</time>
      </trkpt>
      <trkpt lat="45.24987" lon="5.43616">
        <ele>348</ele>
        <time>2009-11-14T09:29:58Z</time>
      </trkpt>
      <trkpt lat="45.24946" lon="5.43628">
        <ele>345</ele>
        <time>2009-11-14T09:30:04Z</time>
      </trkpt>
      <trkpt lat="45.24924" lon="5.43638">
        <ele>344</ele>
        <time>2009-11-14T09:30:08Z</time>
      </trkpt>
      <trkpt lat="45.24896" lon="5.43656">
        <ele>342</ele>
        <time>2009-11-14T09:30:13Z</time>
      </trkpt>
      <trkpt lat="45.24841" lon="5.43684">
        <ele>345</ele>
        <time>2009-11-14T09:30:21Z</time>
      </trkpt>
      <trkpt lat="45.24821" lon="5.43691">
        <ele>343</ele>
        <time>2009-11-14T09:30:26Z</time>
      </trkpt>
      <trkpt lat="45.24784" lon="5.43695">
        <ele>342</ele>
        <time>2009-11-14T09:30:37Z</time>
      </trkpt>
      <trkpt lat="45.24751" lon="5.43703">
        <ele>341</ele>
        <time>2009-11-14T09:30:47Z</time>
      </trkpt>
      <trkpt lat="45.24719" lon="5.43728">
        <ele>343</ele>
        <time>2009-11-14T09:30:54Z</time>
      </trkpt>
      <trkpt lat="45.24687" lon="5.43761">
        <ele>344</ele>
        <time>2009-11-14T09:31:02Z</time>
      </trkpt>
      <trkpt lat="45.24677" lon="5.43763">
        <ele>344</ele>
        <time>2009-11-14T09:31:05Z</time>
      </trkpt>
      <trkpt lat="45.24668" lon="5.43765">
        <ele>343</ele>
        <time>2009-11-14T09:31:08Z</time>
      </trkpt>
      <trkpt lat="45.24626" lon="5.43738">
        <ele>342</ele>
        <time>2009-11-14T09:31:11Z</time>
      </trkpt>
      <trkpt lat="45.24583" lon="5.43801">
        <ele>341</ele>
        <time>2009-11-14T09:31:23Z</time>
      </trkpt>
      <trkpt lat="45.24569" lon="5.43814">
        <ele>341</ele>
        <time>2009-11-14T09:31:28Z</time>
      </trkpt>
      <trkpt lat="45.24559" lon="5.43815">
        <ele>342</ele>
        <time>2009-11-14T09:31:44Z</time>
      </trkpt>
      <trkpt lat="45.24559" lon="5.43815">
        <ele>340</ele>
        <time>2009-11-14T09:31:51Z</time>
      </trkpt>
      <trkpt lat="45.24559" lon="5.43815">
        <ele>340</ele>
        <time>2009-11-14T09:31:59Z</time>
      </trkpt>
      <trkpt lat="45.24538" lon="5.43843">
        <ele>338</ele>
        <time>2009-11-14T09:32:10Z</time>
      </trkpt>
      <trkpt lat="45.2453" lon="5.43849">
        <ele>337</ele>
        <time>2009-11-14T09:32:12Z</time>
      </trkpt>
      <trkpt lat="45.24496" lon="5.43879">
        <ele>335</ele>
        <time>2009-11-14T09:32:19Z</time>
      </trkpt>
      <trkpt lat="45.24487" lon="5.43912">
        <ele>335</ele>
        <time>2009-11-14T09:32:23Z</time>
      </trkpt>
      <trkpt lat="45.24483" lon="5.43943">
        <ele>335</ele>
        <time>2009-11-14T09:32:32Z</time>
      </trkpt>
      <trkpt lat="45.24484" lon="5.43926">
        <ele>335</ele>
        <time>2009-11-14T09:32:40Z</time>
      </trkpt>
      <trkpt lat="45.24486" lon="5.43932">
        <ele>336</ele>
        <time>2009-11-14T09:32:46Z</time>
      </trkpt>
      <trkpt lat="45.2448" lon="5.43956">
        <ele>338</ele>
        <time>2009-11-14T09:32:54Z</time>
      </trkpt>
      <trkpt lat="45.24467" lon="5.43966">
        <ele>339</ele>
        <time>2009-11-14T09:33:01Z</time>
      </trkpt>
      <trkpt lat="45.24449" lon="5.43971">
        <ele>343</ele>
        <time>2009-11-14T09:33:11Z</time>
      </trkpt>
      <trkpt lat="45.24434" lon="5.43976">
        <ele>346</ele>
        <time>2009-11-14T09:33:23Z</time>
      </trkpt>
      <trkpt lat="45.24425" lon="5.43972">
        <ele>348</ele>
        <time>2009-11-14T09:33:30Z</time>
      </trkpt>
      <trkpt lat="45.24402" lon="5.43972">
        <ele>351</ele>
        <time>2009-11-14T09:33:42Z</time>
      </trkpt>
      <trkpt lat="45.24389" lon="5.43976">
        <ele>352</ele>
        <time>2009-11-14T09:33:53Z</time>
      </trkpt>
      <trkpt lat="45.24377" lon="5.43978">
        <ele>354</ele>
        <time>2009-11-14T09:34:02Z</time>
      </trkpt>
      <trkpt lat="45.24374" lon="5.43979">
        <ele>355</ele>
        <time>2009-11-14T09:34:05Z</time>
      </trkpt>
      <trkpt lat="45.24357" lon="5.43984">
        <ele>358</ele>
        <time>2009-11-14T09:34:19Z</time>
      </trkpt>
      <trkpt lat="45.24353" lon="5.43984">
        <ele>358</ele>
        <time>2009-11-14T09:34:22Z</time>
      </trkpt>
      <trkpt lat="45.24333" lon="5.43984">
        <ele>361</ele>
        <time>2009-11-14T09:34:34Z</time>
      </trkpt>
      <trkpt lat="45.2432" lon="5.43985">
        <ele>363</ele>
        <time>2009-11-14T09:34:44Z</time>
      </trkpt>
      <trkpt lat="45.24319" lon="5.43985">
        <ele>363</ele>
        <time>2009-11-14T09:34:45Z</time>
      </trkpt>
      <trkpt lat="45.24307" lon="5.43984">
        <ele>365</ele>
        <time>2009-11-14T09:34:56Z</time>
      </trkpt>
      <trkpt lat="45.24305" lon="5.43983">
        <ele>365</ele>
        <time>2009-11-14T09:34:57Z</time>
      </trkpt>
      <trkpt lat="45.24305" lon="5.43984">
        <ele>366</ele>
        <time>2009-11-14T09:34:59Z</time>
      </trkpt>
      <trkpt lat="45.24301" lon="5.43984">
        <ele>366</ele>
        <time>2009-11-14T09:35:01Z</time>
      </trkpt>
      <trkpt lat="45.24279" lon="5.43977">
        <ele>368</ele>
        <time>2009-11-14T09:35:12Z</time>
      </trkpt>
      <trkpt lat="45.24275" lon="5.43974">
        <ele>369</ele>
        <time>2009-11-14T09:35:16Z</time>
      </trkpt>
      <trkpt lat="45.24272" lon="5.43971">
        <ele>370</ele>
        <time>2009-11-14T09:35:19Z</time>
      </trkpt>
      <trkpt lat="45.24273" lon="5.43969">
        <ele>370</ele>
        <time>2009-11-14T09:35:21Z</time>
      </trkpt>
      <trkpt lat="45.24268" lon="5.43962">
        <ele>372</ele>
        <time>2009-11-14T09:35:25Z</time>
      </trkpt>
      <trkpt lat="45.24268" lon="5.43959">
        <ele>372</ele>
        <time>2009-11-14T09:35:27Z</time>
      </trkpt>
      <trkpt lat="45.24265" lon="5.43951">
        <ele>376</ele>
        <time>2009-11-14T09:35:37Z</time>
      </trkpt>
      <trkpt lat="45.24253" lon="5.43941">
        <ele>379</ele>
        <time>2009-11-14T09:35:46Z</time>
      </trkpt>
      <trkpt lat="45.2424" lon="5.43933">
        <ele>381</ele>
        <time>2009-11-14T09:35:53Z</time>
      </trkpt>
      <trkpt lat="45.24236" lon="5.4393">
        <ele>382</ele>
        <time>2009-11-14T09:35:57Z</time>
      </trkpt>
      <trkpt lat="45.2422" lon="5.43926">
        <ele>383</ele>
        <time>2009-11-14T09:36:09Z</time>
      </trkpt>
      <trkpt lat="45.24216" lon="5.43926">
        <ele>384</ele>
        <time>2009-11-14T09:36:11Z</time>
      </trkpt>
      <trkpt lat="45.242" lon="5.43925">
        <ele>383</ele>
        <time>2009-11-14T09:36:22Z</time>
      </trkpt>
      <trkpt lat="45.24173" lon="5.43928">
        <ele>385</ele>
        <time>2009-11-14T09:36:36Z</time>
      </trkpt>
      <trkpt lat="45.2416" lon="5.43928">
        <ele>386</ele>
        <time>2009-11-14T09:36:43Z</time>
      </trkpt>
      <trkpt lat="45.24145" lon="5.43932">
        <ele>387</ele>
        <time>2009-11-14T09:36:53Z</time>
      </trkpt>
      <trkpt lat="45.24131" lon="5.43935">
        <ele>389</ele>
        <time>2009-11-14T09:37:03Z</time>
      </trkpt>
      <trkpt lat="45.24124" lon="5.43934">
        <ele>390</ele>
        <time>2009-11-14T09:37:08Z</time>
      </trkpt>
      <trkpt lat="45.2411" lon="5.43934">
        <ele>392</ele>
        <time>2009-11-14T09:37:20Z</time>
      </trkpt>
      <trkpt lat="45.24109" lon="5.43933">
        <ele>393</ele>
        <time>2009-11-14T09:37:22Z</time>
      </trkpt>
      <trkpt lat="45.24105" lon="5.43931">
        <ele>394</ele>
        <time>2009-11-14T09:37:35Z</time>
      </trkpt>
      <trkpt lat="45.24099" lon="5.43928">
        <ele>396</ele>
        <time>2009-11-14T09:37:47Z</time>
      </trkpt>
      <trkpt lat="45.24084" lon="5.43919">
        <ele>399</ele>
        <time>2009-11-14T09:38:01Z</time>
      </trkpt>
      <trkpt lat="45.24073" lon="5.43911">
        <ele>401</ele>
        <time>2009-11-14T09:38:16Z</time>
      </trkpt>
      <trkpt lat="45.24071" lon="5.43908">
        <ele>404</ele>
        <time>2009-11-14T09:38:35Z</time>
      </trkpt>
      <trkpt lat="45.24065" lon="5.43894">
        <ele>407</ele>
        <time>2009-11-14T09:38:48Z</time>
      </trkpt>
      <trkpt lat="45.24057" lon="5.4388">
        <ele>409</ele>
        <time>2009-11-14T09:39:03Z</time>
      </trkpt>
      <trkpt lat="45.24053" lon="5.43866">
        <ele>411</ele>
        <time>2009-11-14T09:39:20Z</time>
      </trkpt>
      <trkpt lat="45.24053" lon="5.43863">
        <ele>411</ele>
        <time>2009-11-14T09:39:29Z</time>
      </trkpt>
      <trkpt lat="45.24053" lon="5.43853">
        <ele>412</ele>
        <time>2009-11-14T09:39:34Z</time>
      </trkpt>
      <trkpt lat="45.24051" lon="5.43848">
        <ele>413</ele>
        <time>2009-11-14T09:39:38Z</time>
      </trkpt>
      <trkpt lat="45.24049" lon="5.43835">
        <ele>414</ele>
        <time>2009-11-14T09:39:45Z</time>
      </trkpt>
      <trkpt lat="45.24051" lon="5.43828">
        <ele>414</ele>
        <time>2009-11-14T09:39:51Z</time>
      </trkpt>
      <trkpt lat="45.24052" lon="5.43819">
        <ele>416</ele>
        <time>2009-11-14T09:39:57Z</time>
      </trkpt>
      <trkpt lat="45.24052" lon="5.43813">
        <ele>416</ele>
        <time>2009-11-14T09:40:00Z</time>
      </trkpt>
      <trkpt lat="45.24056" lon="5.43803">
        <ele>418</ele>
        <time>2009-11-14T09:40:07Z</time>
      </trkpt>
      <trkpt lat="45.24055" lon="5.43797">
        <ele>418</ele>
        <time>2009-11-14T09:40:11Z</time>
      </trkpt>
      <trkpt lat="45.24055" lon="5.43787">
        <ele>420</ele>
        <time>2009-11-14T09:40:19Z</time>
      </trkpt>
      <trkpt lat="45.24054" lon="5.43786">
        <ele>420</ele>
        <time>2009-11-14T09:40:22Z</time>
      </trkpt>
      <trkpt lat="45.24056" lon="5.43781">
        <ele>421</ele>
        <time>2009-11-14T09:40:26Z</time>
      </trkpt>
      <trkpt lat="45.24058" lon="5.43773">
        <ele>422</ele>
        <time>2009-11-14T09:40:31Z</time>
      </trkpt>
      <trkpt lat="45.2406" lon="5.43767">
        <ele>423</ele>
        <time>2009-11-14T09:40:35Z</time>
      </trkpt>
      <trkpt lat="45.24067" lon="5.43755">
        <ele>424</ele>
        <time>2009-11-14T09:40:45Z</time>
      </trkpt>
      <trkpt lat="45.24068" lon="5.43752">
        <ele>425</ele>
        <time>2009-11-14T09:40:48Z</time>
      </trkpt>
      <trkpt lat="45.2407" lon="5.43742">
        <ele>426</ele>
        <time>2009-11-14T09:40:55Z</time>
      </trkpt>
      <trkpt lat="45.24071" lon="5.43733">
        <ele>428</ele>
        <time>2009-11-14T09:41:03Z</time>
      </trkpt>
      <trkpt lat="45.24076" lon="5.43718">
        <ele>431</ele>
        <time>2009-11-14T09:41:14Z</time>
      </trkpt>
      <trkpt lat="45.24078" lon="5.43714">
        <ele>431</ele>
        <time>2009-11-14T09:41:19Z</time>
      </trkpt>
      <trkpt lat="45.24086" lon="5.43697">
        <ele>435</ele>
        <time>2009-11-14T09:41:35Z</time>
      </trkpt>
      <trkpt lat="45.24092" lon="5.43689">
        <ele>438</ele>
        <time>2009-11-14T09:41:50Z</time>
      </trkpt>
      <trkpt lat="45.241" lon="5.43683">
        <ele>440</ele>
        <time>2009-11-14T09:42:06Z</time>
      </trkpt>
      <trkpt lat="45.24112" lon="5.43675">
        <ele>443</ele>
        <time>2009-11-14T09:42:26Z</time>
      </trkpt>
      <trkpt lat="45.24117" lon="5.43669">
        <ele>445</ele>
        <time>2009-11-14T09:42:37Z</time>
      </trkpt>
      <trkpt lat="45.24123" lon="5.4366">
        <ele>449</ele>
        <time>2009-11-14T09:42:53Z</time>
      </trkpt>
      <trkpt lat="45.24131" lon="5.43656">
        <ele>450</ele>
        <time>2009-11-14T09:43:06Z</time>
      </trkpt>
      <trkpt lat="45.24134" lon="5.4365">
        <ele>452</ele>
        <time>2009-11-14T09:43:16Z</time>
      </trkpt>
      <trkpt lat="45.24134" lon="5.43647">
        <ele>452</ele>
        <time>2009-11-14T09:43:31Z</time>
      </trkpt>
      <trkpt lat="45.24123" lon="5.43616">
        <ele>454</ele>
        <time>2009-11-14T09:43:51Z</time>
      </trkpt>
      <trkpt lat="45.24083" lon="5.43606">
        <ele>451</ele>
        <time>2009-11-14T09:44:01Z</time>
      </trkpt>
      <trkpt lat="45.24073" lon="5.43593">
        <ele>450</ele>
        <time>2009-11-14T09:44:04Z</time>
      </trkpt>
      <trkpt lat="45.2406" lon="5.43573">
        <ele>451</ele>
        <time>2009-11-14T09:44:10Z</time>
      </trkpt>
      <trkpt lat="45.24081" lon="5.43536">
        <ele>452</ele>
        <time>2009-11-14T09:44:15Z</time>
      </trkpt>
      <trkpt lat="45.24081" lon="5.43518">
        <ele>453</ele>
        <time>2009-11-14T09:44:23Z</time>
      </trkpt>
      <trkpt lat="45.24078" lon="5.43504">
        <ele>454</ele>
        <time>2009-11-14T09:44:29Z</time>
      </trkpt>
      <trkpt lat="45.24084" lon="5.43498">
        <ele>454</ele>
        <time>2009-11-14T09:44:32Z</time>
      </trkpt>
      <trkpt lat="45.24085" lon="5.43491">
        <ele>454</ele>
        <time>2009-11-14T09:44:36Z</time>
      </trkpt>
      <trkpt lat="45.24083" lon="5.43473">
        <ele>454</ele>
        <time>2009-11-14T09:44:44Z</time>
      </trkpt>
      <trkpt lat="45.24081" lon="5.43469">
        <ele>455</ele>
        <time>2009-11-14T09:44:46Z</time>
      </trkpt>
      <trkpt lat="45.24083" lon="5.43454">
        <ele>455</ele>
        <time>2009-11-14T09:45:03Z</time>
      </trkpt>
      <trkpt lat="45.24082" lon="5.43454">
        <ele>454</ele>
        <time>2009-11-14T09:45:23Z</time>
      </trkpt>
      <trkpt lat="45.24081" lon="5.43452">
        <ele>454</ele>
        <time>2009-11-14T09:45:25Z</time>
      </trkpt>
      <trkpt lat="45.24078" lon="5.43445">
        <ele>452</ele>
        <time>2009-11-14T09:45:38Z</time>
      </trkpt>
      <trkpt lat="45.24078" lon="5.43445">
        <ele>455</ele>
        <time>2009-11-14T09:45:40Z</time>
      </trkpt>
      <trkpt lat="45.24083" lon="5.43444">
        <ele>453</ele>
        <time>2009-11-14T09:46:28Z</time>
      </trkpt>
      <trkpt lat="45.24082" lon="5.43443">
        <ele>452</ele>
        <time>2009-11-14T09:47:59Z</time>
      </trkpt>
      <trkpt lat="45.24067" lon="5.43448">
        <ele>449</ele>
        <time>2009-11-14T09:48:05Z</time>
      </trkpt>
      <trkpt lat="45.24051" lon="5.43456">
        <ele>446</ele>
        <time>2009-11-14T09:48:09Z</time>
      </trkpt>
      <trkpt lat="45.24047" lon="5.43458">
        <ele>445</ele>
        <time>2009-11-14T09:48:10Z</time>
      </trkpt>
      <trkpt lat="45.24015" lon="5.43482">
        <ele>441</ele>
        <time>2009-11-14T09:48:17Z</time>
      </trkpt>
      <trkpt lat="45.23996" lon="5.43491">
        <ele>438</ele>
        <time>2009-11-14T09:48:22Z</time>
      </trkpt>
      <trkpt lat="45.23989" lon="5.43501">
        <ele>437</ele>
        <time>2009-11-14T09:48:30Z</time>
      </trkpt>
      <trkpt lat="45.23989" lon="5.43501">
        <ele>437</ele>
        <time>2009-11-14T09:48:43Z</time>
      </trkpt>
      <trkpt lat="45.23973" lon="5.43532">
        <ele>434</ele>
        <time>2009-11-14T09:48:53Z</time>
      </trkpt>
      <trkpt lat="45.23963" lon="5.43553">
        <ele>430</ele>
        <time>2009-11-14T09:48:58Z</time>
      </trkpt>
      <trkpt lat="45.23954" lon="5.43573">
        <ele>427</ele>
        <time>2009-11-14T09:49:03Z</time>
      </trkpt>
      <trkpt lat="45.23947" lon="5.43593">
        <ele>425</ele>
        <time>2009-11-14T09:49:06Z</time>
      </trkpt>
      <trkpt lat="45.23939" lon="5.43624">
        <ele>421</ele>
        <time>2009-11-14T09:49:11Z</time>
      </trkpt>
      <trkpt lat="45.23933" lon="5.43654">
        <ele>417</ele>
        <time>2009-11-14T09:49:18Z</time>
      </trkpt>
      <trkpt lat="45.23932" lon="5.43669">
        <ele>416</ele>
        <time>2009-11-14T09:49:23Z</time>
      </trkpt>
      <trkpt lat="45.23922" lon="5.43694">
        <ele>413</ele>
        <time>2009-11-14T09:49:31Z</time>
      </trkpt>
      <trkpt lat="45.23919" lon="5.43701">
        <ele>412</ele>
        <time>2009-11-14T09:49:33Z</time>
      </trkpt>
      <trkpt lat="45.23911" lon="5.4372">
        <ele>409</ele>
        <time>2009-11-14T09:49:40Z</time>
      </trkpt>
      <trkpt lat="45.23901" lon="5.43742">
        <ele>407</ele>
        <time>2009-11-14T09:49:45Z</time>
      </trkpt>
      <trkpt lat="45.23868" lon="5.43773">
        <ele>404</ele>
        <time>2009-11-14T09:49:53Z</time>
      </trkpt>
      <trkpt lat="45.23836" lon="5.4378">
        <ele>404</ele>
        <time>2009-11-14T09:50:00Z</time>
      </trkpt>
      <trkpt lat="45.23802" lon="5.43782">
        <ele>403</ele>
        <time>2009-11-14T09:50:09Z</time>
      </trkpt>
      <trkpt lat="45.23753" lon="5.43781">
        <ele>404</ele>
        <time>2009-11-14T09:50:22Z</time>
      </trkpt>
      <trkpt lat="45.2369" lon="5.43768">
        <ele>405</ele>
        <time>2009-11-14T09:50:41Z</time>
      </trkpt>
      <trkpt lat="45.23633" lon="5.43758">
        <ele>406</ele>
        <time>2009-11-14T09:51:00Z</time>
      </trkpt>
      <trkpt lat="45.23584" lon="5.43752">
        <ele>408</ele>
        <time>2009-11-14T09:51:18Z</time>
      </trkpt>
      <trkpt lat="45.23553" lon="5.43753">
        <ele>408</ele>
        <time>2009-11-14T09:51:32Z</time>
      </trkpt>
      <trkpt lat="45.23547" lon="5.43755">
        <ele>408</ele>
        <time>2009-11-14T09:51:34Z</time>
      </trkpt>
      <trkpt lat="45.23503" lon="5.43763">
        <ele>404</ele>
        <time>2009-11-14T09:51:48Z</time>
      </trkpt>
      <trkpt lat="45.23485" lon="5.43763">
        <ele>401</ele>
        <time>2009-11-14T09:51:53Z</time>
      </trkpt>
      <trkpt lat="45.23462" lon="5.43766">
        <ele>397</ele>
        <time>2009-11-14T09:52:00Z</time>
      </trkpt>
      <trkpt lat="45.23441" lon="5.43773">
        <ele>394</ele>
        <time>2009-11-14T09:52:06Z</time>
      </trkpt>
      <trkpt lat="45.23432" lon="5.43774">
        <ele>393</ele>
        <time>2009-11-14T09:52:08Z</time>
      </trkpt>
      <trkpt lat="45.23416" lon="5.43762">
        <ele>394</ele>
        <time>2009-11-14T09:52:12Z</time>
      </trkpt>
      <trkpt lat="45.23408" lon="5.43752">
        <ele>394</ele>
        <time>2009-11-14T09:52:18Z</time>
      </trkpt>
      <trkpt lat="45.23383" lon="5.43773">
        <ele>394</ele>
        <time>2009-11-14T09:52:31Z</time>
      </trkpt>
      <trkpt lat="45.23364" lon="5.43777">
        <ele>397</ele>
        <time>2009-11-14T09:52:41Z</time>
      </trkpt>
      <trkpt lat="45.23342" lon="5.43761">
        <ele>400</ele>
        <time>2009-11-14T09:52:54Z</time>
      </trkpt>
      <trkpt lat="45.23334" lon="5.43755">
        <ele>401</ele>
        <time>2009-11-14T09:52:59Z</time>
      </trkpt>
      <trkpt lat="45.2331" lon="5.43741">
        <ele>404</ele>
        <time>2009-11-14T09:53:16Z</time>
      </trkpt>
      <trkpt lat="45.233" lon="5.43735">
        <ele>407</ele>
        <time>2009-11-14T09:53:32Z</time>
      </trkpt>
      <trkpt lat="45.2329" lon="5.43722">
        <ele>408</ele>
        <time>2009-11-14T09:53:37Z</time>
      </trkpt>
      <trkpt lat="45.23288" lon="5.4372">
        <ele>409</ele>
        <time>2009-11-14T09:53:42Z</time>
      </trkpt>
      <trkpt lat="45.23272" lon="5.43697">
        <ele>410</ele>
        <time>2009-11-14T09:53:52Z</time>
      </trkpt>
      <trkpt lat="45.23269" lon="5.43688">
        <ele>411</ele>
        <time>2009-11-14T09:53:56Z</time>
      </trkpt>
      <trkpt lat="45.23269" lon="5.43649">
        <ele>412</ele>
        <time>2009-11-14T09:54:09Z</time>
      </trkpt>
      <trkpt lat="45.23263" lon="5.43642">
        <ele>413</ele>
        <time>2009-11-14T09:54:14Z</time>
      </trkpt>
      <trkpt lat="45.23226" lon="5.43607">
        <ele>415</ele>
        <time>2009-11-14T09:54:35Z</time>
      </trkpt>
      <trkpt lat="45.23224" lon="5.43576">
        <ele>419</ele>
        <time>2009-11-14T09:54:48Z</time>
      </trkpt>
      <trkpt lat="45.23225" lon="5.43552">
        <ele>422</ele>
        <time>2009-11-14T09:54:59Z</time>
      </trkpt>
      <trkpt lat="45.2323" lon="5.43536">
        <ele>425</ele>
        <time>2009-11-14T09:55:10Z</time>
      </trkpt>
      <trkpt lat="45.2323" lon="5.43536">
        <ele>426</ele>
        <time>2009-11-14T09:55:14Z</time>
      </trkpt>
      <trkpt lat="45.2323" lon="5.43536">
        <ele>426</ele>
        <time>2009-11-14T09:55:16Z</time>
      </trkpt>
      <trkpt lat="45.23232" lon="5.43519">
        <ele>426</ele>
        <time>2009-11-14T09:55:24Z</time>
      </trkpt>
      <trkpt lat="45.23236" lon="5.43518">
        <ele>426</ele>
        <time>2009-11-14T09:55:27Z</time>
      </trkpt>
      <trkpt lat="45.23239" lon="5.43517">
        <ele>427</ele>
        <time>2009-11-14T09:55:31Z</time>
      </trkpt>
      <trkpt lat="45.23243" lon="5.43514">
        <ele>428</ele>
        <time>2009-11-14T09:55:35Z</time>
      </trkpt>
      <trkpt lat="45.23245" lon="5.43514">
        <ele>428</ele>
        <time>2009-11-14T09:55:37Z</time>
      </trkpt>
      <trkpt lat="45.23253" lon="5.43509">
        <ele>430</ele>
        <time>2009-11-14T09:55:46Z</time>
      </trkpt>
      <trkpt lat="45.23263" lon="5.43496">
        <ele>434</ele>
        <time>2009-11-14T09:55:59Z</time>
      </trkpt>
      <trkpt lat="45.23268" lon="5.43494">
        <ele>435</ele>
        <time>2009-11-14T09:56:04Z</time>
      </trkpt>
      <trkpt lat="45.23278" lon="5.43496">
        <ele>438</ele>
        <time>2009-11-14T09:56:19Z</time>
      </trkpt>
      <trkpt lat="45.23282" lon="5.43501">
        <ele>438</ele>
        <time>2009-11-14T09:56:24Z</time>
      </trkpt>
      <trkpt lat="45.23303" lon="5.43512">
        <ele>441</ele>
        <time>2009-11-14T09:56:43Z</time>
      </trkpt>
      <trkpt lat="45.23319" lon="5.43493">
        <ele>443</ele>
        <time>2009-11-14T09:57:00Z</time>
      </trkpt>
      <trkpt lat="45.23332" lon="5.43472">
        <ele>446</ele>
        <time>2009-11-14T09:57:15Z</time>
      </trkpt>
      <trkpt lat="45.23339" lon="5.43459">
        <ele>448</ele>
        <time>2009-11-14T09:57:24Z</time>
      </trkpt>
      <trkpt lat="45.2334" lon="5.43451">
        <ele>449</ele>
        <time>2009-11-14T09:57:29Z</time>
      </trkpt>
      <trkpt lat="45.23333" lon="5.43439">
        <ele>451</ele>
        <time>2009-11-14T09:57:45Z</time>
      </trkpt>
      <trkpt lat="45.23322" lon="5.43434">
        <ele>453</ele>
        <time>2009-11-14T09:58:01Z</time>
      </trkpt>
      <trkpt lat="45.23309" lon="5.43421">
        <ele>457</ele>
        <time>2009-11-14T09:58:21Z</time>
      </trkpt>
      <trkpt lat="45.23307" lon="5.43408">
        <ele>459</ele>
        <time>2009-11-14T09:58:37Z</time>
      </trkpt>
      <trkpt lat="45.23308" lon="5.43403">
        <ele>459</ele>
        <time>2009-11-14T09:58:45Z</time>
      </trkpt>
      <trkpt lat="45.23314" lon="5.43393">
        <ele>461</ele>
        <time>2009-11-14T09:58:53Z</time>
      </trkpt>
      <trkpt lat="45.23317" lon="5.43389">
        <ele>462</ele>
        <time>2009-11-14T09:58:56Z</time>
      </trkpt>
      <trkpt lat="45.23317" lon="5.43386">
        <ele>462</ele>
        <time>2009-11-14T09:58:58Z</time>
      </trkpt>
      <trkpt lat="45.23326" lon="5.43374">
        <ele>464</ele>
        <time>2009-11-14T09:59:09Z</time>
      </trkpt>
      <trkpt lat="45.23337" lon="5.43364">
        <ele>465</ele>
        <time>2009-11-14T09:59:20Z</time>
      </trkpt>
      <trkpt lat="45.23339" lon="5.43359">
        <ele>466</ele>
        <time>2009-11-14T09:59:24Z</time>
      </trkpt>
      <trkpt lat="45.23339" lon="5.43355">
        <ele>467</ele>
        <time>2009-11-14T09:59:26Z</time>
      </trkpt>
      <trkpt lat="45.2335" lon="5.43331">
        <ele>469</ele>
        <time>2009-11-14T09:59:42Z</time>
      </trkpt>
      <trkpt lat="45.23357" lon="5.43307">
        <ele>473</ele>
        <time>2009-11-14T09:59:57Z</time>
      </trkpt>
      <trkpt lat="45.23357" lon="5.43298">
        <ele>474</ele>
        <time>2009-11-14T10:00:15Z</time>
      </trkpt>
      <trkpt lat="45.23358" lon="5.43299">
        <ele>474</ele>
        <time>2009-11-14T10:00:32Z</time>
      </trkpt>
      <trkpt lat="45.2337" lon="5.43288">
        <ele>475</ele>
        <time>2009-11-14T10:00:46Z</time>
      </trkpt>
      <trkpt lat="45.23381" lon="5.4328">
        <ele>476</ele>
        <time>2009-11-14T10:00:59Z</time>
      </trkpt>
      <trkpt lat="45.2339" lon="5.43273">
        <ele>478</ele>
        <time>2009-11-14T10:01:09Z</time>
      </trkpt>
      <trkpt lat="45.23394" lon="5.43271">
        <ele>478</ele>
        <time>2009-11-14T10:01:12Z</time>
      </trkpt>
      <trkpt lat="45.23391" lon="5.43269">
        <ele>478</ele>
        <time>2009-11-14T10:01:15Z</time>
      </trkpt>
      <trkpt lat="45.23389" lon="5.43271">
        <ele>478</ele>
        <time>2009-11-14T10:01:19Z</time>
      </trkpt>
      <trkpt lat="45.23377" lon="5.43274">
        <ele>477</ele>
        <time>2009-11-14T10:01:30Z</time>
      </trkpt>
      <trkpt lat="45.23366" lon="5.43271">
        <ele>478</ele>
        <time>2009-11-14T10:01:40Z</time>
      </trkpt>
      <trkpt lat="45.23359" lon="5.43273">
        <ele>477</ele>
        <time>2009-11-14T10:01:45Z</time>
      </trkpt>
      <trkpt lat="45.23352" lon="5.43275">
        <ele>478</ele>
        <time>2009-11-14T10:02:00Z</time>
      </trkpt>
      <trkpt lat="45.23351" lon="5.43275">
        <ele>478</ele>
        <time>2009-11-14T10:02:38Z</time>
      </trkpt>
      <trkpt lat="45.2335" lon="5.43275">
        <ele>478</ele>
        <time>2009-11-14T10:04:11Z</time>
      </trkpt>
      <trkpt lat="45.23347" lon="5.43276">
        <ele>478</ele>
        <time>2009-11-14T10:04:14Z</time>
      </trkpt>
      <trkpt lat="45.23321" lon="5.43275">
        <ele>480</ele>
        <time>2009-11-14T10:04:29Z</time>
      </trkpt>
      <trkpt lat="45.23318" lon="5.43273">
        <ele>480</ele>
        <time>2009-11-14T10:04:31Z</time>
      </trkpt>
      <trkpt lat="45.23312" lon="5.43268">
        <ele>481</ele>
        <time>2009-11-14T10:04:35Z</time>
      </trkpt>
      <trkpt lat="45.23302" lon="5.43262">
        <ele>482</ele>
        <time>2009-11-14T10:04:41Z</time>
      </trkpt>
      <trkpt lat="45.23282" lon="5.43245">
        <ele>485</ele>
        <time>2009-11-14T10:04:55Z</time>
      </trkpt>
      <trkpt lat="45.23267" lon="5.43229">
        <ele>487</ele>
        <time>2009-11-14T10:05:06Z</time>
      </trkpt>
      <trkpt lat="45.23262" lon="5.43225">
        <ele>488</ele>
        <time>2009-11-14T10:05:12Z</time>
      </trkpt>
      <trkpt lat="45.23245" lon="5.43194">
        <ele>489</ele>
        <time>2009-11-14T10:05:24Z</time>
      </trkpt>
      <trkpt lat="45.2323" lon="5.43176">
        <ele>491</ele>
        <time>2009-11-14T10:05:36Z</time>
      </trkpt>
      <trkpt lat="45.23212" lon="5.43153">
        <ele>493</ele>
        <time>2009-11-14T10:05:49Z</time>
      </trkpt>
      <trkpt lat="45.23202" lon="5.43142">
        <ele>495</ele>
        <time>2009-11-14T10:05:57Z</time>
      </trkpt>
      <trkpt lat="45.2319" lon="5.43119">
        <ele>497</ele>
        <time>2009-11-14T10:06:11Z</time>
      </trkpt>
      <trkpt lat="45.23186" lon="5.43108">
        <ele>497</ele>
        <time>2009-11-14T10:06:15Z</time>
      </trkpt>
      <trkpt lat="45.23186" lon="5.43105">
        <ele>497</ele>
        <time>2009-11-14T10:06:17Z</time>
      </trkpt>
      <trkpt lat="45.23185" lon="5.43102">
        <ele>498</ele>
        <time>2009-11-14T10:06:19Z</time>
      </trkpt>
      <trkpt lat="45.23179" lon="5.43092">
        <ele>498</ele>
        <time>2009-11-14T10:06:23Z</time>
      </trkpt>
      <trkpt lat="45.2317" lon="5.43071">
        <ele>499</ele>
        <time>2009-11-14T10:06:32Z</time>
      </trkpt>
      <trkpt lat="45.23166" lon="5.43061">
        <ele>499</ele>
        <time>2009-11-14T10:06:35Z</time>
      </trkpt>
      <trkpt lat="45.23166" lon="5.43054">
        <ele>499</ele>
        <time>2009-11-14T10:06:37Z</time>
      </trkpt>
      <trkpt lat="45.23151" lon="5.43019">
        <ele>499</ele>
        <time>2009-11-14T10:06:47Z</time>
      </trkpt>
      <trkpt lat="45.23144" lon="5.43008">
        <ele>499</ele>
        <time>2009-11-14T10:06:52Z</time>
      </trkpt>
      <trkpt lat="45.23138" lon="5.42981">
        <ele>500</ele>
        <time>2009-11-14T10:07:00Z</time>
      </trkpt>
      <trkpt lat="45.23129" lon="5.42945">
        <ele>502</ele>
        <time>2009-11-14T10:07:11Z</time>
      </trkpt>
      <trkpt lat="45.2312" lon="5.42906">
        <ele>505</ele>
        <time>2009-11-14T10:07:24Z</time>
      </trkpt>
      <trkpt lat="45.23114" lon="5.42873">
        <ele>508</ele>
        <time>2009-11-14T10:07:36Z</time>
      </trkpt>
      <trkpt lat="45.23112" lon="5.42859">
        <ele>509</ele>
        <time>2009-11-14T10:07:41Z</time>
      </trkpt>
      <trkpt lat="45.23116" lon="5.42821">
        <ele>512</ele>
        <time>2009-11-14T10:07:56Z</time>
      </trkpt>
      <trkpt lat="45.23128" lon="5.42791">
        <ele>515</ele>
        <time>2009-11-14T10:08:11Z</time>
      </trkpt>
      <trkpt lat="45.23147" lon="5.42778">
        <ele>517</ele>
        <time>2009-11-14T10:08:22Z</time>
      </trkpt>
      <trkpt lat="45.23156" lon="5.42777">
        <ele>517</ele>
        <time>2009-11-14T10:08:28Z</time>
      </trkpt>
      <trkpt lat="45.23188" lon="5.42764">
        <ele>517</ele>
        <time>2009-11-14T10:08:40Z</time>
      </trkpt>
      <trkpt lat="45.232" lon="5.42763">
        <ele>517</ele>
        <time>2009-11-14T10:08:45Z</time>
      </trkpt>
      <trkpt lat="45.2324" lon="5.42766">
        <ele>518</ele>
        <time>2009-11-14T10:09:00Z</time>
      </trkpt>
      <trkpt lat="45.23246" lon="5.42763">
        <ele>518</ele>
        <time>2009-11-14T10:09:04Z</time>
      </trkpt>
      <trkpt lat="45.23253" lon="5.42761">
        <ele>519</ele>
        <time>2009-11-14T10:09:08Z</time>
      </trkpt>
      <trkpt lat="45.23279" lon="5.42769">
        <ele>522</ele>
        <time>2009-11-14T10:09:22Z</time>
      </trkpt>
      <trkpt lat="45.23298" lon="5.42742">
        <ele>525</ele>
        <time>2009-11-14T10:09:37Z</time>
      </trkpt>
      <trkpt lat="45.23312" lon="5.42698">
        <ele>528</ele>
        <time>2009-11-14T10:09:54Z</time>
      </trkpt>
      <trkpt lat="45.23333" lon="5.42659">
        <ele>525</ele>
        <time>2009-11-14T10:10:09Z</time>
      </trkpt>
      <trkpt lat="45.23354" lon="5.42629">
        <ele>522</ele>
        <time>2009-11-14T10:10:20Z</time>
      </trkpt>
      <trkpt lat="45.23369" lon="5.42601">
        <ele>519</ele>
        <time>2009-11-14T10:10:37Z</time>
      </trkpt>
      <trkpt lat="45.23378" lon="5.42589">
        <ele>518</ele>
        <time>2009-11-14T10:10:45Z</time>
      </trkpt>
      <trkpt lat="45.23402" lon="5.42555">
        <ele>516</ele>
        <time>2009-11-14T10:11:01Z</time>
      </trkpt>
      <trkpt lat="45.23418" lon="5.42533">
        <ele>517</ele>
        <time>2009-11-14T10:11:19Z</time>
      </trkpt>
      <trkpt lat="45.2342" lon="5.42532">
        <ele>517</ele>
        <time>2009-11-14T10:11:37Z</time>
      </trkpt>
      <trkpt lat="45.23438" lon="5.42507">
        <ele>514</ele>
        <time>2009-11-14T10:11:48Z</time>
      </trkpt>
      <trkpt lat="45.23448" lon="5.42493">
        <ele>512</ele>
        <time>2009-11-14T10:11:51Z</time>
      </trkpt>
      <trkpt lat="45.23461" lon="5.42482">
        <ele>511</ele>
        <time>2009-11-14T10:11:54Z</time>
      </trkpt>
      <trkpt lat="45.23467" lon="5.42482">
        <ele>510</ele>
        <time>2009-11-14T10:11:55Z</time>
      </trkpt>
      <trkpt lat="45.23527" lon="5.42486">
        <ele>512</ele>
        <time>2009-11-14T10:12:09Z</time>
      </trkpt>
      <trkpt lat="45.23566" lon="5.42493">
        <ele>511</ele>
        <time>2009-11-14T10:12:20Z</time>
      </trkpt>
      <trkpt lat="45.23575" lon="5.42491">
        <ele>510</ele>
        <time>2009-11-14T10:12:22Z</time>
      </trkpt>
      <trkpt lat="45.23621" lon="5.42503">
        <ele>508</ele>
        <time>2009-11-14T10:12:30Z</time>
      </trkpt>
      <trkpt lat="45.23632" lon="5.4251">
        <ele>508</ele>
        <time>2009-11-14T10:12:32Z</time>
      </trkpt>
      <trkpt lat="45.23655" lon="5.42537">
        <ele>503</ele>
        <time>2009-11-14T10:12:36Z</time>
      </trkpt>
      <trkpt lat="45.23675" lon="5.42562">
        <ele>501</ele>
        <time>2009-11-14T10:12:39Z</time>
      </trkpt>
      <trkpt lat="45.23697" lon="5.426">
        <ele>500</ele>
        <time>2009-11-14T10:12:43Z</time>
      </trkpt>
      <trkpt lat="45.23705" lon="5.42625">
        <ele>499</ele>
        <time>2009-11-14T10:12:45Z</time>
      </trkpt>
      <trkpt lat="45.23725" lon="5.42671">
        <ele>502</ele>
        <time>2009-11-14T10:12:50Z</time>
      </trkpt>
      <trkpt lat="45.23731" lon="5.42683">
        <ele>503</ele>
        <time>2009-11-14T10:12:52Z</time>
      </trkpt>
      <trkpt lat="45.23759" lon="5.42728">
        <ele>506</ele>
        <time>2009-11-14T10:13:04Z</time>
      </trkpt>
      <trkpt lat="45.23792" lon="5.42762">
        <ele>507</ele>
        <time>2009-11-14T10:13:17Z</time>
      </trkpt>
      <trkpt lat="45.23799" lon="5.42794">
        <ele>510</ele>
        <time>2009-11-14T10:13:27Z</time>
      </trkpt>
      <trkpt lat="45.23793" lon="5.42822">
        <ele>513</ele>
        <time>2009-11-14T10:13:38Z</time>
      </trkpt>
      <trkpt lat="45.23778" lon="5.4287">
        <ele>514</ele>
        <time>2009-11-14T10:13:55Z</time>
      </trkpt>
      <trkpt lat="45.23803" lon="5.42922">
        <ele>514</ele>
        <time>2009-11-14T10:14:09Z</time>
      </trkpt>
      <trkpt lat="45.23814" lon="5.42934">
        <ele>513</ele>
        <time>2009-11-14T10:14:13Z</time>
      </trkpt>
      <trkpt lat="45.23843" lon="5.42964">
        <ele>509</ele>
        <time>2009-11-14T10:14:20Z</time>
      </trkpt>
      <trkpt lat="45.23862" lon="5.42981">
        <ele>505</ele>
        <time>2009-11-14T10:14:23Z</time>
      </trkpt>
      <trkpt lat="45.23869" lon="5.42988">
        <ele>504</ele>
        <time>2009-11-14T10:14:24Z</time>
      </trkpt>
      <trkpt lat="45.23887" lon="5.43024">
        <ele>504</ele>
        <time>2009-11-14T10:14:28Z</time>
      </trkpt>
      <trkpt lat="45.23919" lon="5.43111">
        <ele>504</ele>
        <time>2009-11-14T10:14:39Z</time>
      </trkpt>
      <trkpt lat="45.23964" lon="5.43128">
        <ele>504</ele>
        <time>2009-11-14T10:14:48Z</time>
      </trkpt>
      <trkpt lat="45.23976" lon="5.43126">
        <ele>503</ele>
        <time>2009-11-14T10:14:50Z</time>
      </trkpt>
      <trkpt lat="45.24007" lon="5.43132">
        <ele>501</ele>
        <time>2009-11-14T10:14:55Z</time>
      </trkpt>
      <trkpt lat="45.24025" lon="5.43147">
        <ele>500</ele>
        <time>2009-11-14T10:15:00Z</time>
      </trkpt>
      <trkpt lat="45.2404" lon="5.43128">
        <ele>497</ele>
        <time>2009-11-14T10:15:07Z</time>
      </trkpt>
      <trkpt lat="45.24042" lon="5.43122">
        <ele>496</ele>
        <time>2009-11-14T10:15:08Z</time>
      </trkpt>
      <trkpt lat="45.2405" lon="5.43106">
        <ele>494</ele>
        <time>2009-11-14T10:15:11Z</time>
      </trkpt>
      <trkpt lat="45.24057" lon="5.43094">
        <ele>492</ele>
        <time>2009-11-14T10:15:13Z</time>
      </trkpt>
      <trkpt lat="45.24077" lon="5.43057">
        <ele>487</ele>
        <time>2009-11-14T10:15:18Z</time>
      </trkpt>
      <trkpt lat="45.24095" lon="5.43019">
        <ele>485</ele>
        <time>2009-11-14T10:15:27Z</time>
      </trkpt>
      <trkpt lat="45.24098" lon="5.43012">
        <ele>485</ele>
        <time>2009-11-14T10:15:28Z</time>
      </trkpt>
      <trkpt lat="45.24117" lon="5.42974">
        <ele>481</ele>
        <time>2009-11-14T10:15:33Z</time>
      </trkpt>
      <trkpt lat="45.24125" lon="5.42935">
        <ele>479</ele>
        <time>2009-11-14T10:15:36Z</time>
      </trkpt>
      <trkpt lat="45.24117" lon="5.42892">
        <ele>477</ele>
        <time>2009-11-14T10:15:42Z</time>
      </trkpt>
      <trkpt lat="45.24113" lon="5.4288">
        <ele>476</ele>
        <time>2009-11-14T10:15:44Z</time>
      </trkpt>
      <trkpt lat="45.24104" lon="5.4286">
        <ele>474</ele>
        <time>2009-11-14T10:15:48Z</time>
      </trkpt>
      <trkpt lat="45.24101" lon="5.42846">
        <ele>469</ele>
        <time>2009-11-14T10:15:52Z</time>
      </trkpt>
      <trkpt lat="45.24109" lon="5.42828">
        <ele>466</ele>
        <time>2009-11-14T10:15:56Z</time>
      </trkpt>
      <trkpt lat="45.24113" lon="5.42815">
        <ele>464</ele>
        <time>2009-11-14T10:15:58Z</time>
      </trkpt>
      <trkpt lat="45.24118" lon="5.42795">
        <ele>463</ele>
        <time>2009-11-14T10:16:01Z</time>
      </trkpt>
      <trkpt lat="45.24125" lon="5.42775">
        <ele>459</ele>
        <time>2009-11-14T10:16:04Z</time>
      </trkpt>
      <trkpt lat="45.24142" lon="5.42752">
        <ele>457</ele>
        <time>2009-11-14T10:16:08Z</time>
      </trkpt>
      <trkpt lat="45.24142" lon="5.42752">
        <ele>457</ele>
        <time>2009-11-14T10:16:10Z</time>
      </trkpt>
      <trkpt lat="45.2416" lon="5.42764">
        <ele>454</ele>
        <time>2009-11-14T10:16:21Z</time>
      </trkpt>
      <trkpt lat="45.24167" lon="5.42773">
        <ele>452</ele>
        <time>2009-11-14T10:16:24Z</time>
      </trkpt>
      <trkpt lat="45.24173" lon="5.42783">
        <ele>450</ele>
        <time>2009-11-14T10:16:27Z</time>
      </trkpt>
      <trkpt lat="45.24179" lon="5.42792">
        <ele>450</ele>
        <time>2009-11-14T10:16:28Z</time>
      </trkpt>
      <trkpt lat="45.24198" lon="5.42821">
        <ele>447</ele>
        <time>2009-11-14T10:16:34Z</time>
      </trkpt>
      <trkpt lat="45.2422" lon="5.42837">
        <ele>443</ele>
        <time>2009-11-14T10:16:39Z</time>
      </trkpt>
      <trkpt lat="45.24235" lon="5.42838">
        <ele>442</ele>
        <time>2009-11-14T10:16:42Z</time>
      </trkpt>
      <trkpt lat="45.24252" lon="5.42844">
        <ele>440</ele>
        <time>2009-11-14T10:16:45Z</time>
      </trkpt>
      <trkpt lat="45.24275" lon="5.42861">
        <ele>436</ele>
        <time>2009-11-14T10:16:51Z</time>
      </trkpt>
      <trkpt lat="45.24295" lon="5.42868">
        <ele>433</ele>
        <time>2009-11-14T10:16:56Z</time>
      </trkpt>
      <trkpt lat="45.24334" lon="5.42902">
        <ele>430</ele>
        <time>2009-11-14T10:17:03Z</time>
      </trkpt>
      <trkpt lat="45.24362" lon="5.42923">
        <ele>429</ele>
        <time>2009-11-14T10:17:08Z</time>
      </trkpt>
      <trkpt lat="45.24396" lon="5.42936">
        <ele>427</ele>
        <time>2009-11-14T10:17:14Z</time>
      </trkpt>
      <trkpt lat="45.24429" lon="5.42929">
        <ele>424</ele>
        <time>2009-11-14T10:17:21Z</time>
      </trkpt>
      <trkpt lat="45.24439" lon="5.42925">
        <ele>422</ele>
        <time>2009-11-14T10:17:23Z</time>
      </trkpt>
      <trkpt lat="45.24467" lon="5.42906">
        <ele>418</ele>
        <time>2009-11-14T10:17:28Z</time>
      </trkpt>
      <trkpt lat="45.24472" lon="5.42901">
        <ele>418</ele>
        <time>2009-11-14T10:17:29Z</time>
      </trkpt>
      <trkpt lat="45.24497" lon="5.42872">
        <ele>415</ele>
        <time>2009-11-14T10:17:34Z</time>
      </trkpt>
      <trkpt lat="45.24509" lon="5.42861">
        <ele>414</ele>
        <time>2009-11-14T10:17:36Z</time>
      </trkpt>
      <trkpt lat="45.24538" lon="5.42856">
        <ele>410</ele>
        <time>2009-11-14T10:17:41Z</time>
      </trkpt>
      <trkpt lat="45.24544" lon="5.42864">
        <ele>409</ele>
        <time>2009-11-14T10:17:42Z</time>
      </trkpt>
      <trkpt lat="45.24549" lon="5.42874">
        <ele>409</ele>
        <time>2009-11-14T10:17:43Z</time>
      </trkpt>
      <trkpt lat="45.24566" lon="5.4291">
        <ele>404</ele>
        <time>2009-11-14T10:17:46Z</time>
      </trkpt>
      <trkpt lat="45.24589" lon="5.42959">
        <ele>401</ele>
        <time>2009-11-14T10:17:50Z</time>
      </trkpt>
      <trkpt lat="45.24597" lon="5.43008">
        <ele>396</ele>
        <time>2009-11-14T10:17:54Z</time>
      </trkpt>
      <trkpt lat="45.24598" lon="5.43062">
        <ele>391</ele>
        <time>2009-11-14T10:17:59Z</time>
      </trkpt>
      <trkpt lat="45.24599" lon="5.43089">
        <ele>390</ele>
        <time>2009-11-14T10:18:02Z</time>
      </trkpt>
      <trkpt lat="45.24614" lon="5.43107">
        <ele>387</ele>
        <time>2009-11-14T10:18:08Z</time>
      </trkpt>
      <trkpt lat="45.24619" lon="5.43108">
        <ele>386</ele>
        <time>2009-11-14T10:18:12Z</time>
      </trkpt>
      <trkpt lat="45.2462" lon="5.43108">
        <ele>386</ele>
        <time>2009-11-14T10:18:20Z</time>
      </trkpt>
      <trkpt lat="45.2461" lon="5.43107">
        <ele>388</ele>
        <time>2009-11-14T10:18:30Z</time>
      </trkpt>
      <trkpt lat="45.2461" lon="5.43107">
        <ele>388</ele>
        <time>2009-11-14T10:18:52Z</time>
      </trkpt>
      <trkpt lat="45.2461" lon="5.43107">
        <ele>387</ele>
        <time>2009-11-14T10:19:11Z</time>
      </trkpt>
      <trkpt lat="45.24639" lon="5.43111">
        <ele>386</ele>
        <time>2009-11-14T10:19:26Z</time>
      </trkpt>
      <trkpt lat="45.24647" lon="5.43112">
        <ele>386</ele>
        <time>2009-11-14T10:19:31Z</time>
      </trkpt>
      <trkpt lat="45.24652" lon="5.43102">
        <ele>385</ele>
        <time>2009-11-14T10:19:35Z</time>
      </trkpt>
      <trkpt lat="45.24657" lon="5.43076">
        <ele>386</ele>
        <time>2009-11-14T10:19:45Z</time>
      </trkpt>
      <trkpt lat="45.2468" lon="5.43031">
        <ele>387</ele>
        <time>2009-11-14T10:20:04Z</time>
      </trkpt>
      <trkpt lat="45.24714" lon="5.42987">
        <ele>388</ele>
        <time>2009-11-14T10:20:26Z</time>
      </trkpt>
      <trkpt lat="45.24719" lon="5.4298">
        <ele>387</ele>
        <time>2009-11-14T10:20:29Z</time>
      </trkpt>
      <trkpt lat="45.24741" lon="5.42948">
        <ele>390</ele>
        <time>2009-11-14T10:20:44Z</time>
      </trkpt>
      <trkpt lat="45.24743" lon="5.42946">
        <ele>390</ele>
        <time>2009-11-14T10:20:45Z</time>
      </trkpt>
      <trkpt lat="45.24751" lon="5.42937">
        <ele>388</ele>
        <time>2009-11-14T10:20:49Z</time>
      </trkpt>
      <trkpt lat="45.24806" lon="5.42876">
        <ele>389</ele>
        <time>2009-11-14T10:21:11Z</time>
      </trkpt>
      <trkpt lat="45.24843" lon="5.4285">
        <ele>393</ele>
        <time>2009-11-14T10:21:27Z</time>
      </trkpt>
      <trkpt lat="45.24862" lon="5.42835">
        <ele>389</ele>
        <time>2009-11-14T10:21:36Z</time>
      </trkpt>
      <trkpt lat="45.24864" lon="5.42833">
        <ele>393</ele>
        <time>2009-11-14T10:21:37Z</time>
      </trkpt>
      <trkpt lat="45.24879" lon="5.42806">
        <ele>394</ele>
        <time>2009-11-14T10:21:46Z</time>
      </trkpt>
      <trkpt lat="45.24877" lon="5.42735">
        <ele>398</ele>
        <time>2009-11-14T10:22:05Z</time>
      </trkpt>
      <trkpt lat="45.24868" lon="5.42667">
        <ele>401</ele>
        <time>2009-11-14T10:22:23Z</time>
      </trkpt>
      <trkpt lat="45.24869" lon="5.42601">
        <ele>402</ele>
        <time>2009-11-14T10:22:39Z</time>
      </trkpt>
      <trkpt lat="45.24861" lon="5.4252">
        <ele>402</ele>
        <time>2009-11-14T10:22:58Z</time>
      </trkpt>
      <trkpt lat="45.24853" lon="5.42461">
        <ele>403</ele>
        <time>2009-11-14T10:23:14Z</time>
      </trkpt>
      <trkpt lat="45.24845" lon="5.42384">
        <ele>402</ele>
        <time>2009-11-14T10:23:32Z</time>
      </trkpt>
      <trkpt lat="45.24845" lon="5.42376">
        <ele>401</ele>
        <time>2009-11-14T10:23:34Z</time>
      </trkpt>
      <trkpt lat="45.24844" lon="5.4236">
        <ele>405</ele>
        <time>2009-11-14T10:23:38Z</time>
      </trkpt>
      <trkpt lat="45.24842" lon="5.42293">
        <ele>401</ele>
        <time>2009-11-14T10:23:53Z</time>
      </trkpt>
      <trkpt lat="45.24843" lon="5.42246">
        <ele>403</ele>
        <time>2009-11-14T10:24:03Z</time>
      </trkpt>
      <trkpt lat="45.24848" lon="5.42159">
        <ele>404</ele>
        <time>2009-11-14T10:24:21Z</time>
      </trkpt>
      <trkpt lat="45.24839" lon="5.42084">
        <ele>406</ele>
        <time>2009-11-14T10:24:39Z</time>
      </trkpt>
      <trkpt lat="45.24857" lon="5.42054">
        <ele>406</ele>
        <time>2009-11-14T10:24:49Z</time>
      </trkpt>
      <trkpt lat="45.24847" lon="5.41996">
        <ele>406</ele>
        <time>2009-11-14T10:25:02Z</time>
      </trkpt>
      <trkpt lat="45.24837" lon="5.41957">
        <ele>402</ele>
        <time>2009-11-14T10:25:11Z</time>
      </trkpt>
      <trkpt lat="45.24836" lon="5.41953">
        <ele>404</ele>
        <time>2009-11-14T10:25:12Z</time>
      </trkpt>
      <trkpt lat="45.24835" lon="5.41948">
        <ele>407</ele>
        <time>2009-11-14T10:25:13Z</time>
      </trkpt>
      <trkpt lat="45.24834" lon="5.41944">
        <ele>406</ele>
        <time>2009-11-14T10:25:14Z</time>
      </trkpt>
      <trkpt lat="45.24809" lon="5.41841">
        <ele>405</ele>
        <time>2009-11-14T10:25:34Z</time>
      </trkpt>
      <trkpt lat="45.24806" lon="5.4183">
        <ele>405</ele>
        <time>2009-11-14T10:25:36Z</time>
      </trkpt>
      <trkpt lat="45.2479" lon="5.41786">
        <ele>408</ele>
        <time>2009-11-14T10:25:45Z</time>
      </trkpt>
      <trkpt lat="45.24786" lon="5.41772">
        <ele>406</ele>
        <time>2009-11-14T10:25:48Z</time>
      </trkpt>
      <trkpt lat="45.24772" lon="5.41717">
        <ele>406</ele>
        <time>2009-11-14T10:25:59Z</time>
      </trkpt>
      <trkpt lat="45.24756" lon="5.41649">
        <ele>409</ele>
        <time>2009-11-14T10:26:14Z</time>
      </trkpt>
      <trkpt lat="45.2475" lon="5.41628">
        <ele>411</ele>
        <time>2009-11-14T10:26:20Z</time>
      </trkpt>
      <trkpt lat="45.24754" lon="5.41621">
        <ele>411</ele>
        <time>2009-11-14T10:26:24Z</time>
      </trkpt>
      <trkpt lat="45.24756" lon="5.41617">
        <ele>412</ele>
        <time>2009-11-14T10:26:26Z</time>
      </trkpt>
      <trkpt lat="45.24763" lon="5.4157">
        <ele>414</ele>
        <time>2009-11-14T10:26:43Z</time>
      </trkpt>
      <trkpt lat="45.2476" lon="5.41524">
        <ele>414</ele>
        <time>2009-11-14T10:26:58Z</time>
      </trkpt>
      <trkpt lat="45.2476" lon="5.41522">
        <ele>414</ele>
        <time>2009-11-14T10:26:59Z</time>
      </trkpt>
      <trkpt lat="45.24779" lon="5.41515">
        <ele>417</ele>
        <time>2009-11-14T10:27:12Z</time>
      </trkpt>
      <trkpt lat="45.24797" lon="5.41514">
        <ele>420</ele>
        <time>2009-11-14T10:27:24Z</time>
      </trkpt>
      <trkpt lat="45.24799" lon="5.41517">
        <ele>421</ele>
        <time>2009-11-14T10:27:26Z</time>
      </trkpt>
      <trkpt lat="45.24794" lon="5.41558">
        <ele>425</ele>
        <time>2009-11-14T10:27:45Z</time>
      </trkpt>
      <trkpt lat="45.24794" lon="5.4156">
        <ele>425</ele>
        <time>2009-11-14T10:27:46Z</time>
      </trkpt>
      <trkpt lat="45.24799" lon="5.41599">
        <ele>428</ele>
        <time>2009-11-14T10:28:03Z</time>
      </trkpt>
      <trkpt lat="45.24815" lon="5.41637">
        <ele>431</ele>
        <time>2009-11-14T10:28:20Z</time>
      </trkpt>
      <trkpt lat="45.24835" lon="5.41629">
        <ele>434</ele>
        <time>2009-11-14T10:28:34Z</time>
      </trkpt>
      <trkpt lat="45.24858" lon="5.416">
        <ele>438</ele>
        <time>2009-11-14T10:28:52Z</time>
      </trkpt>
      <trkpt lat="45.24887" lon="5.41594">
        <ele>441</ele>
        <time>2009-11-14T10:29:08Z</time>
      </trkpt>
      <trkpt lat="45.2491" lon="5.41588">
        <ele>444</ele>
        <time>2009-11-14T10:29:21Z</time>
      </trkpt>
      <trkpt lat="45.24927" lon="5.41583">
        <ele>447</ele>
        <time>2009-11-14T10:29:32Z</time>
      </trkpt>
      <trkpt lat="45.24933" lon="5.41575">
        <ele>449</ele>
        <time>2009-11-14T10:29:37Z</time>
      </trkpt>
      <trkpt lat="45.24936" lon="5.41567">
        <ele>449</ele>
        <time>2009-11-14T10:29:41Z</time>
      </trkpt>
      <trkpt lat="45.24937" lon="5.4153">
        <ele>452</ele>
        <time>2009-11-14T10:29:57Z</time>
      </trkpt>
      <trkpt lat="45.24943" lon="5.4151">
        <ele>454</ele>
        <time>2009-11-14T10:30:05Z</time>
      </trkpt>
      <trkpt lat="45.24961" lon="5.41488">
        <ele>456</ele>
        <time>2009-11-14T10:30:18Z</time>
      </trkpt>
      <trkpt lat="45.24981" lon="5.41467">
        <ele>457</ele>
        <time>2009-11-14T10:30:29Z</time>
      </trkpt>
      <trkpt lat="45.25014" lon="5.41437">
        <ele>458</ele>
        <time>2009-11-14T10:30:41Z</time>
      </trkpt>
      <trkpt lat="45.25032" lon="5.41424">
        <ele>461</ele>
        <time>2009-11-14T10:30:52Z</time>
      </trkpt>
      <trkpt lat="45.25054" lon="5.41412">
        <ele>463</ele>
        <time>2009-11-14T10:31:03Z</time>
      </trkpt>
      <trkpt lat="45.25085" lon="5.41399">
        <ele>466</ele>
        <time>2009-11-14T10:31:15Z</time>
      </trkpt>
      <trkpt lat="45.25114" lon="5.41395">
        <ele>470</ele>
        <time>2009-11-14T10:31:29Z</time>
      </trkpt>
      <trkpt lat="45.25143" lon="5.41402">
        <ele>473</ele>
        <time>2009-11-14T10:31:43Z</time>
      </trkpt>
      <trkpt lat="45.25168" lon="5.41414">
        <ele>476</ele>
        <time>2009-11-14T10:31:56Z</time>
      </trkpt>
      <trkpt lat="45.2519" lon="5.41436">
        <ele>479</ele>
        <time>2009-11-14T10:32:09Z</time>
      </trkpt>
      <trkpt lat="45.25202" lon="5.41471">
        <ele>482</ele>
        <time>2009-11-14T10:32:22Z</time>
      </trkpt>
      <trkpt lat="45.25207" lon="5.415">
        <ele>486</ele>
        <time>2009-11-14T10:32:33Z</time>
      </trkpt>
      <trkpt lat="45.25213" lon="5.41543">
        <ele>488</ele>
        <time>2009-11-14T10:32:47Z</time>
      </trkpt>
      <trkpt lat="45.25221" lon="5.41586">
        <ele>492</ele>
        <time>2009-11-14T10:33:02Z</time>
      </trkpt>
      <trkpt lat="45.25219" lon="5.41636">
        <ele>495</ele>
        <time>2009-11-14T10:33:18Z</time>
      </trkpt>
      <trkpt lat="45.25218" lon="5.41656">
        <ele>496</ele>
        <time>2009-11-14T10:33:24Z</time>
      </trkpt>
      <trkpt lat="45.25219" lon="5.41701">
        <ele>499</ele>
        <time>2009-11-14T10:33:38Z</time>
      </trkpt>
      <trkpt lat="45.25204" lon="5.41745">
        <ele>502</ele>
        <time>2009-11-14T10:33:54Z</time>
      </trkpt>
      <trkpt lat="45.25189" lon="5.41788">
        <ele>504</ele>
        <time>2009-11-14T10:34:10Z</time>
      </trkpt>
      <trkpt lat="45.25189" lon="5.41791">
        <ele>504</ele>
        <time>2009-11-14T10:34:11Z</time>
      </trkpt>
      <trkpt lat="45.25202" lon="5.41817">
        <ele>504</ele>
        <time>2009-11-14T10:34:26Z</time>
      </trkpt>
      <trkpt lat="45.25215" lon="5.41832">
        <ele>504</ele>
        <time>2009-11-14T10:34:41Z</time>
      </trkpt>
      <trkpt lat="45.25217" lon="5.41833">
        <ele>504</ele>
        <time>2009-11-14T10:35:00Z</time>
      </trkpt>
      <trkpt lat="45.25217" lon="5.41832">
        <ele>504</ele>
        <time>2009-11-14T10:35:38Z</time>
      </trkpt>
      <trkpt lat="45.25233" lon="5.41854">
        <ele>504</ele>
        <time>2009-11-14T10:36:16Z</time>
      </trkpt>
      <trkpt lat="45.25264" lon="5.41897">
        <ele>503</ele>
        <time>2009-11-14T10:36:32Z</time>
      </trkpt>
      <trkpt lat="45.25264" lon="5.41903">
        <ele>503</ele>
        <time>2009-11-14T10:36:58Z</time>
      </trkpt>
      <trkpt lat="45.25263" lon="5.41944">
        <ele>502</ele>
        <time>2009-11-14T10:37:11Z</time>
      </trkpt>
      <trkpt lat="45.25237" lon="5.41974">
        <ele>499</ele>
        <time>2009-11-14T10:37:22Z</time>
      </trkpt>
      <trkpt lat="45.25236" lon="5.41985">
        <ele>498</ele>
        <time>2009-11-14T10:37:24Z</time>
      </trkpt>
      <trkpt lat="45.25204" lon="5.42001">
        <ele>496</ele>
        <time>2009-11-14T10:37:27Z</time>
      </trkpt>
      <trkpt lat="45.25231" lon="5.42066">
        <ele>496</ele>
        <time>2009-11-14T10:37:36Z</time>
      </trkpt>
      <trkpt lat="45.25271" lon="5.42096">
        <ele>498</ele>
        <time>2009-11-14T10:37:55Z</time>
      </trkpt>
      <trkpt lat="45.25309" lon="5.42033">
        <ele>500</ele>
        <time>2009-11-14T10:38:08Z</time>
      </trkpt>
      <trkpt lat="45.25309" lon="5.42033">
        <ele>496</ele>
        <time>2009-11-14T10:38:14Z</time>
      </trkpt>
      <trkpt lat="45.25309" lon="5.42033">
        <ele>500</ele>
        <time>2009-11-14T10:38:15Z</time>
      </trkpt>
      <trkpt lat="45.25309" lon="5.42033">
        <ele>496</ele>
        <time>2009-11-14T10:38:16Z</time>
      </trkpt>
      <trkpt lat="45.25309" lon="5.42033">
        <ele>500</ele>
        <time>2009-11-14T10:38:17Z</time>
      </trkpt>
      <trkpt lat="45.25305" lon="5.42037">
        <ele>499</ele>
        <time>2009-11-14T10:38:43Z</time>
      </trkpt>
      <trkpt lat="45.25304" lon="5.42039">
        <ele>499</ele>
        <time>2009-11-14T10:38:45Z</time>
      </trkpt>
      <trkpt lat="45.253" lon="5.42042">
        <ele>499</ele>
        <time>2009-11-14T10:38:55Z</time>
      </trkpt>
      <trkpt lat="45.25293" lon="5.42041">
        <ele>498</ele>
        <time>2009-11-14T10:38:59Z</time>
      </trkpt>
      <trkpt lat="45.25277" lon="5.42036">
        <ele>498</ele>
        <time>2009-11-14T10:39:12Z</time>
      </trkpt>
      <trkpt lat="45.25278" lon="5.42035">
        <ele>497</ele>
        <time>2009-11-14T10:39:27Z</time>
      </trkpt>
      <trkpt lat="45.25267" lon="5.42029">
        <ele>497</ele>
        <time>2009-11-14T10:39:51Z</time>
      </trkpt>
      <trkpt lat="45.25224" lon="5.41982">
        <ele>496</ele>
        <time>2009-11-14T10:40:07Z</time>
      </trkpt>
      <trkpt lat="45.25217" lon="5.41965">
        <ele>497</ele>
        <time>2009-11-14T10:40:12Z</time>
      </trkpt>
      <trkpt lat="45.25213" lon="5.41969">
        <ele>496</ele>
        <time>2009-11-14T10:40:16Z</time>
      </trkpt>
      <trkpt lat="45.25208" lon="5.41994">
        <ele>491</ele>
        <time>2009-11-14T10:40:21Z</time>
      </trkpt>
      <trkpt lat="45.25204" lon="5.42011">
        <ele>488</ele>
        <time>2009-11-14T10:40:24Z</time>
      </trkpt>
      <trkpt lat="45.25204" lon="5.42022">
        <ele>487</ele>
        <time>2009-11-14T10:40:26Z</time>
      </trkpt>
      <trkpt lat="45.2521" lon="5.42039">
        <ele>486</ele>
        <time>2009-11-14T10:40:30Z</time>
      </trkpt>
      <trkpt lat="45.2522" lon="5.42056">
        <ele>483</ele>
        <time>2009-11-14T10:40:36Z</time>
      </trkpt>
      <trkpt lat="45.25232" lon="5.42067">
        <ele>479</ele>
        <time>2009-11-14T10:40:41Z</time>
      </trkpt>
      <trkpt lat="45.25244" lon="5.42074">
        <ele>476</ele>
        <time>2009-11-14T10:40:46Z</time>
      </trkpt>
      <trkpt lat="45.25254" lon="5.42081">
        <ele>473</ele>
        <time>2009-11-14T10:40:52Z</time>
      </trkpt>
      <trkpt lat="45.25267" lon="5.42091">
        <ele>469</ele>
        <time>2009-11-14T10:40:57Z</time>
      </trkpt>
      <trkpt lat="45.25276" lon="5.42105">
        <ele>466</ele>
        <time>2009-11-14T10:41:02Z</time>
      </trkpt>
      <trkpt lat="45.25284" lon="5.4212">
        <ele>463</ele>
        <time>2009-11-14T10:41:08Z</time>
      </trkpt>
      <trkpt lat="45.25291" lon="5.42133">
        <ele>459</ele>
        <time>2009-11-14T10:41:12Z</time>
      </trkpt>
      <trkpt lat="45.25301" lon="5.4215">
        <ele>456</ele>
        <time>2009-11-14T10:41:18Z</time>
      </trkpt>
      <trkpt lat="45.25315" lon="5.42165">
        <ele>453</ele>
        <time>2009-11-14T10:41:24Z</time>
      </trkpt>
      <trkpt lat="45.25317" lon="5.42166">
        <ele>452</ele>
        <time>2009-11-14T10:41:25Z</time>
      </trkpt>
      <trkpt lat="45.25319" lon="5.42169">
        <ele>452</ele>
        <time>2009-11-14T10:41:27Z</time>
      </trkpt>
      <trkpt lat="45.25324" lon="5.42177">
        <ele>451</ele>
        <time>2009-11-14T10:41:41Z</time>
      </trkpt>
      <trkpt lat="45.2533" lon="5.42188">
        <ele>450</ele>
        <time>2009-11-14T10:41:47Z</time>
      </trkpt>
      <trkpt lat="45.25326" lon="5.42209">
        <ele>452</ele>
        <time>2009-11-14T10:42:01Z</time>
      </trkpt>
      <trkpt lat="45.25323" lon="5.42213">
        <ele>453</ele>
        <time>2009-11-14T10:42:05Z</time>
      </trkpt>
      <trkpt lat="45.25319" lon="5.42219">
        <ele>454</ele>
        <time>2009-11-14T10:42:11Z</time>
      </trkpt>
      <trkpt lat="45.25312" lon="5.42232">
        <ele>454</ele>
        <time>2009-11-14T10:42:14Z</time>
      </trkpt>
      <trkpt lat="45.25298" lon="5.42253">
        <ele>456</ele>
        <time>2009-11-14T10:42:27Z</time>
      </trkpt>
      <trkpt lat="45.25298" lon="5.42254">
        <ele>456</ele>
        <time>2009-11-14T10:42:28Z</time>
      </trkpt>
      <trkpt lat="45.25297" lon="5.42254">
        <ele>457</ele>
        <time>2009-11-14T10:42:32Z</time>
      </trkpt>
      <trkpt lat="45.25297" lon="5.42254">
        <ele>457</ele>
        <time>2009-11-14T10:42:36Z</time>
      </trkpt>
      <trkpt lat="45.25297" lon="5.42254">
        <ele>458</ele>
        <time>2009-11-14T10:42:50Z</time>
      </trkpt>
      <trkpt lat="45.25313" lon="5.42265">
        <ele>459</ele>
        <time>2009-11-14T10:42:56Z</time>
      </trkpt>
      <trkpt lat="45.2532" lon="5.42264">
        <ele>460</ele>
        <time>2009-11-14T10:43:01Z</time>
      </trkpt>
      <trkpt lat="45.2532" lon="5.42264">
        <ele>460</ele>
        <time>2009-11-14T10:43:06Z</time>
      </trkpt>
      <trkpt lat="45.2532" lon="5.42264">
        <ele>463</ele>
        <time>2009-11-14T10:43:21Z</time>
      </trkpt>
      <trkpt lat="45.25324" lon="5.42257">
        <ele>464</ele>
        <time>2009-11-14T10:43:31Z</time>
      </trkpt>
      <trkpt lat="45.25351" lon="5.42241">
        <ele>466</ele>
        <time>2009-11-14T10:43:46Z</time>
      </trkpt>
      <trkpt lat="45.25351" lon="5.42241">
        <ele>468</ele>
        <time>2009-11-14T10:43:58Z</time>
      </trkpt>
      <trkpt lat="45.25351" lon="5.42241">
        <ele>471</ele>
        <time>2009-11-14T10:44:17Z</time>
      </trkpt>
      <trkpt lat="45.25351" lon="5.42241">
        <ele>473</ele>
        <time>2009-11-14T10:44:31Z</time>
      </trkpt>
      <trkpt lat="45.2541" lon="5.42238">
        <ele>475</ele>
        <time>2009-11-14T10:44:43Z</time>
      </trkpt>
      <trkpt lat="45.2542" lon="5.42246">
        <ele>476</ele>
        <time>2009-11-14T10:44:52Z</time>
      </trkpt>
      <trkpt lat="45.25437" lon="5.4226">
        <ele>479</ele>
        <time>2009-11-14T10:45:06Z</time>
      </trkpt>
      <trkpt lat="45.25449" lon="5.42274">
        <ele>482</ele>
        <time>2009-11-14T10:45:18Z</time>
      </trkpt>
      <trkpt lat="45.25456" lon="5.42282">
        <ele>483</ele>
        <time>2009-11-14T10:45:23Z</time>
      </trkpt>
      <trkpt lat="45.25471" lon="5.423">
        <ele>485</ele>
        <time>2009-11-14T10:45:38Z</time>
      </trkpt>
      <trkpt lat="45.25477" lon="5.42307">
        <ele>487</ele>
        <time>2009-11-14T10:45:50Z</time>
      </trkpt>
      <trkpt lat="45.25477" lon="5.42307">
        <ele>486</ele>
        <time>2009-11-14T10:45:52Z</time>
      </trkpt>
      <trkpt lat="45.25484" lon="5.42314">
        <ele>487</ele>
        <time>2009-11-14T10:45:56Z</time>
      </trkpt>
      <trkpt lat="45.25487" lon="5.42318">
        <ele>487</ele>
        <time>2009-11-14T10:45:59Z</time>
      </trkpt>
      <trkpt lat="45.25507" lon="5.42341">
        <ele>489</ele>
        <time>2009-11-14T10:46:15Z</time>
      </trkpt>
      <trkpt lat="45.25524" lon="5.42355">
        <ele>490</ele>
        <time>2009-11-14T10:46:27Z</time>
      </trkpt>
      <trkpt lat="45.25546" lon="5.42371">
        <ele>493</ele>
        <time>2009-11-14T10:46:44Z</time>
      </trkpt>
      <trkpt lat="45.25567" lon="5.42383">
        <ele>496</ele>
        <time>2009-11-14T10:46:59Z</time>
      </trkpt>
      <trkpt lat="45.25583" lon="5.42396">
        <ele>499</ele>
        <time>2009-11-14T10:47:15Z</time>
      </trkpt>
      <trkpt lat="45.25583" lon="5.42396">
        <ele>499</ele>
        <time>2009-11-14T10:47:37Z</time>
      </trkpt>
      <trkpt lat="45.25597" lon="5.42412">
        <ele>501</ele>
        <time>2009-11-14T10:47:49Z</time>
      </trkpt>
      <trkpt lat="45.25617" lon="5.42434">
        <ele>503</ele>
        <time>2009-11-14T10:48:03Z</time>
      </trkpt>
      <trkpt lat="45.25638" lon="5.42462">
        <ele>506</ele>
        <time>2009-11-14T10:48:17Z</time>
      </trkpt>
      <trkpt lat="45.2564" lon="5.42466">
        <ele>506</ele>
        <time>2009-11-14T10:48:19Z</time>
      </trkpt>
      <trkpt lat="45.25646" lon="5.42488">
        <ele>507</ele>
        <time>2009-11-14T10:48:26Z</time>
      </trkpt>
      <trkpt lat="45.25646" lon="5.42527">
        <ele>507</ele>
        <time>2009-11-14T10:48:39Z</time>
      </trkpt>
      <trkpt lat="45.25658" lon="5.42573">
        <ele>508</ele>
        <time>2009-11-14T10:48:51Z</time>
      </trkpt>
      <trkpt lat="45.25667" lon="5.42589">
        <ele>510</ele>
        <time>2009-11-14T10:49:00Z</time>
      </trkpt>
      <trkpt lat="45.25686" lon="5.42619">
        <ele>511</ele>
        <time>2009-11-14T10:49:12Z</time>
      </trkpt>
      <trkpt lat="45.25697" lon="5.42632">
        <ele>512</ele>
        <time>2009-11-14T10:49:18Z</time>
      </trkpt>
      <trkpt lat="45.25717" lon="5.42657">
        <ele>513</ele>
        <time>2009-11-14T10:49:32Z</time>
      </trkpt>
      <trkpt lat="45.25722" lon="5.42663">
        <ele>513</ele>
        <time>2009-11-14T10:49:35Z</time>
      </trkpt>
      <trkpt lat="45.25734" lon="5.42648">
        <ele>513</ele>
        <time>2009-11-14T10:49:41Z</time>
      </trkpt>
      <trkpt lat="45.25732" lon="5.42592">
        <ele>515</ele>
        <time>2009-11-14T10:50:01Z</time>
      </trkpt>
      <trkpt lat="45.2573" lon="5.4257">
        <ele>518</ele>
        <time>2009-11-14T10:50:15Z</time>
      </trkpt>
      <trkpt lat="45.25736" lon="5.42554">
        <ele>520</ele>
        <time>2009-11-14T10:50:25Z</time>
      </trkpt>
      <trkpt lat="45.25742" lon="5.42539">
        <ele>523</ele>
        <time>2009-11-14T10:50:38Z</time>
      </trkpt>
      <trkpt lat="45.2575" lon="5.42508">
        <ele>525</ele>
        <time>2009-11-14T10:50:55Z</time>
      </trkpt>
      <trkpt lat="45.25756" lon="5.42482">
        <ele>529</ele>
        <time>2009-11-14T10:51:14Z</time>
      </trkpt>
      <trkpt lat="45.25759" lon="5.42462">
        <ele>532</ele>
        <time>2009-11-14T10:51:28Z</time>
      </trkpt>
      <trkpt lat="45.25759" lon="5.42462">
        <ele>532</ele>
        <time>2009-11-14T10:51:29Z</time>
      </trkpt>
      <trkpt lat="45.25765" lon="5.42429">
        <ele>536</ele>
        <time>2009-11-14T10:51:47Z</time>
      </trkpt>
      <trkpt lat="45.25768" lon="5.42411">
        <ele>538</ele>
        <time>2009-11-14T10:51:56Z</time>
      </trkpt>
      <trkpt lat="45.25768" lon="5.42411">
        <ele>540</ele>
        <time>2009-11-14T10:52:11Z</time>
      </trkpt>
      <trkpt lat="45.25768" lon="5.42411">
        <ele>536</ele>
        <time>2009-11-14T10:52:20Z</time>
      </trkpt>
      <trkpt lat="45.25768" lon="5.42411">
        <ele>540</ele>
        <time>2009-11-14T10:52:21Z</time>
      </trkpt>
      <trkpt lat="45.25768" lon="5.42411">
        <ele>540</ele>
        <time>2009-11-14T10:52:37Z</time>
      </trkpt>
      <trkpt lat="45.25757" lon="5.42354">
        <ele>541</ele>
        <time>2009-11-14T10:52:55Z</time>
      </trkpt>
      <trkpt lat="45.25736" lon="5.42299">
        <ele>543</ele>
        <time>2009-11-14T10:53:17Z</time>
      </trkpt>
      <trkpt lat="45.2572" lon="5.42234">
        <ele>545</ele>
        <time>2009-11-14T10:53:38Z</time>
      </trkpt>
      <trkpt lat="45.25709" lon="5.42163">
        <ele>546</ele>
        <time>2009-11-14T10:53:59Z</time>
      </trkpt>
      <trkpt lat="45.2569" lon="5.42109">
        <ele>550</ele>
        <time>2009-11-14T10:54:15Z</time>
      </trkpt>
      <trkpt lat="45.25689" lon="5.42105">
        <ele>550</ele>
        <time>2009-11-14T10:54:16Z</time>
      </trkpt>
      <trkpt lat="45.25674" lon="5.42059">
        <ele>550</ele>
        <time>2009-11-14T10:54:30Z</time>
      </trkpt>
      <trkpt lat="45.25674" lon="5.42059">
        <ele>552</ele>
        <time>2009-11-14T10:54:36Z</time>
      </trkpt>
      <trkpt lat="45.25707" lon="5.42109">
        <ele>555</ele>
        <time>2009-11-14T10:54:57Z</time>
      </trkpt>
      <trkpt lat="45.25734" lon="5.4216">
        <ele>558</ele>
        <time>2009-11-14T10:55:16Z</time>
      </trkpt>
      <trkpt lat="45.25748" lon="5.42201">
        <ele>562</ele>
        <time>2009-11-14T10:55:31Z</time>
      </trkpt>
      <trkpt lat="45.25754" lon="5.42205">
        <ele>562</ele>
        <time>2009-11-14T10:55:35Z</time>
      </trkpt>
      <trkpt lat="45.25758" lon="5.42205">
        <ele>562</ele>
        <time>2009-11-14T10:55:40Z</time>
      </trkpt>
      <trkpt lat="45.25763" lon="5.42153">
        <ele>566</ele>
        <time>2009-11-14T10:55:55Z</time>
      </trkpt>
      <trkpt lat="45.25762" lon="5.42109">
        <ele>569</ele>
        <time>2009-11-14T10:56:09Z</time>
      </trkpt>
      <trkpt lat="45.25763" lon="5.42107">
        <ele>569</ele>
        <time>2009-11-14T10:56:10Z</time>
      </trkpt>
      <trkpt lat="45.2577" lon="5.42103">
        <ele>571</ele>
        <time>2009-11-14T10:56:15Z</time>
      </trkpt>
      <trkpt lat="45.25789" lon="5.42142">
        <ele>574</ele>
        <time>2009-11-14T10:56:31Z</time>
      </trkpt>
      <trkpt lat="45.25803" lon="5.42175">
        <ele>577</ele>
        <time>2009-11-14T10:56:44Z</time>
      </trkpt>
      <trkpt lat="45.25812" lon="5.42212">
        <ele>580</ele>
        <time>2009-11-14T10:56:57Z</time>
      </trkpt>
      <trkpt lat="45.25821" lon="5.42248">
        <ele>584</ele>
        <time>2009-11-14T10:57:10Z</time>
      </trkpt>
      <trkpt lat="45.25835" lon="5.42278">
        <ele>587</ele>
        <time>2009-11-14T10:57:23Z</time>
      </trkpt>
      <trkpt lat="45.25846" lon="5.4227">
        <ele>587</ele>
        <time>2009-11-14T10:57:29Z</time>
      </trkpt>
      <trkpt lat="45.25831" lon="5.42226">
        <ele>589</ele>
        <time>2009-11-14T10:57:46Z</time>
      </trkpt>
      <trkpt lat="45.25827" lon="5.42211">
        <ele>590</ele>
        <time>2009-11-14T10:57:51Z</time>
      </trkpt>
      <trkpt lat="45.25825" lon="5.42202">
        <ele>591</ele>
        <time>2009-11-14T10:58:03Z</time>
      </trkpt>
      <trkpt lat="45.25825" lon="5.42202">
        <ele>591</ele>
        <time>2009-11-14T10:58:04Z</time>
      </trkpt>
      <trkpt lat="45.25827" lon="5.42212">
        <ele>590</ele>
        <time>2009-11-14T10:58:13Z</time>
      </trkpt>
      <trkpt lat="45.25828" lon="5.42216">
        <ele>590</ele>
        <time>2009-11-14T10:58:15Z</time>
      </trkpt>
      <trkpt lat="45.25852" lon="5.42255">
        <ele>591</ele>
        <time>2009-11-14T10:58:27Z</time>
      </trkpt>
      <trkpt lat="45.25852" lon="5.42255">
        <ele>587</ele>
        <time>2009-11-14T10:58:33Z</time>
      </trkpt>
      <trkpt lat="45.25852" lon="5.42255">
        <ele>591</ele>
        <time>2009-11-14T10:58:34Z</time>
      </trkpt>
      <trkpt lat="45.2584" lon="5.42215">
        <ele>591</ele>
        <time>2009-11-14T10:59:06Z</time>
      </trkpt>
      <trkpt lat="45.25849" lon="5.42217">
        <ele>592</ele>
        <time>2009-11-14T10:59:10Z</time>
      </trkpt>
      <trkpt lat="45.25858" lon="5.42201">
        <ele>595</ele>
        <time>2009-11-14T10:59:19Z</time>
      </trkpt>
      <trkpt lat="45.25852" lon="5.42155">
        <ele>595</ele>
        <time>2009-11-14T10:59:32Z</time>
      </trkpt>
      <trkpt lat="45.25835" lon="5.42097">
        <ele>597</ele>
        <time>2009-11-14T10:59:50Z</time>
      </trkpt>
      <trkpt lat="45.25824" lon="5.42041">
        <ele>598</ele>
        <time>2009-11-14T11:00:06Z</time>
      </trkpt>
      <trkpt lat="45.25822" lon="5.42033">
        <ele>599</ele>
        <time>2009-11-14T11:00:09Z</time>
      </trkpt>
      <trkpt lat="45.25818" lon="5.41998">
        <ele>600</ele>
        <time>2009-11-14T11:00:21Z</time>
      </trkpt>
      <trkpt lat="45.25815" lon="5.41968">
        <ele>601</ele>
        <time>2009-11-14T11:00:37Z</time>
      </trkpt>
      <trkpt lat="45.25815" lon="5.41965">
        <ele>600</ele>
        <time>2009-11-14T11:00:55Z</time>
      </trkpt>
      <trkpt lat="45.25818" lon="5.4196">
        <ele>602</ele>
        <time>2009-11-14T11:01:09Z</time>
      </trkpt>
      <trkpt lat="45.25817" lon="5.4196">
        <ele>601</ele>
        <time>2009-11-14T11:01:15Z</time>
      </trkpt>
      <trkpt lat="45.25816" lon="5.41956">
        <ele>603</ele>
        <time>2009-11-14T11:01:18Z</time>
      </trkpt>
      <trkpt lat="45.25823" lon="5.41933">
        <ele>606</ele>
        <time>2009-11-14T11:01:28Z</time>
      </trkpt>
      <trkpt lat="45.2583" lon="5.41915">
        <ele>609</ele>
        <time>2009-11-14T11:01:37Z</time>
      </trkpt>
      <trkpt lat="45.2583" lon="5.4191">
        <ele>610</ele>
        <time>2009-11-14T11:01:40Z</time>
      </trkpt>
      <trkpt lat="45.2583" lon="5.41901">
        <ele>611</ele>
        <time>2009-11-14T11:01:45Z</time>
      </trkpt>
      <trkpt lat="45.25824" lon="5.4187">
        <ele>615</ele>
        <time>2009-11-14T11:02:00Z</time>
      </trkpt>
      <trkpt lat="45.25818" lon="5.41833">
        <ele>618</ele>
        <time>2009-11-14T11:02:17Z</time>
      </trkpt>
      <trkpt lat="45.25816" lon="5.41822">
        <ele>620</ele>
        <time>2009-11-14T11:02:22Z</time>
      </trkpt>
      <trkpt lat="45.25808" lon="5.41775">
        <ele>622</ele>
        <time>2009-11-14T11:02:41Z</time>
      </trkpt>
      <trkpt lat="45.25821" lon="5.41793">
        <ele>625</ele>
        <time>2009-11-14T11:02:52Z</time>
      </trkpt>
      <trkpt lat="45.25835" lon="5.41814">
        <ele>627</ele>
        <time>2009-11-14T11:03:10Z</time>
      </trkpt>
      <trkpt lat="45.25835" lon="5.41815">
        <ele>627</ele>
        <time>2009-11-14T11:03:28Z</time>
      </trkpt>
      <trkpt lat="45.25835" lon="5.41819">
        <ele>627</ele>
        <time>2009-11-14T11:03:30Z</time>
      </trkpt>
      <trkpt lat="45.25845" lon="5.41834">
        <ele>627</ele>
        <time>2009-11-14T11:03:42Z</time>
      </trkpt>
      <trkpt lat="45.25849" lon="5.41838">
        <ele>628</ele>
        <time>2009-11-14T11:03:46Z</time>
      </trkpt>
      <trkpt lat="45.25882" lon="5.41886">
        <ele>628</ele>
        <time>2009-11-14T11:04:05Z</time>
      </trkpt>
      <trkpt lat="45.25885" lon="5.41888">
        <ele>628</ele>
        <time>2009-11-14T11:04:19Z</time>
      </trkpt>
      <trkpt lat="45.25885" lon="5.41888">
        <ele>628</ele>
        <time>2009-11-14T11:04:35Z</time>
      </trkpt>
      <trkpt lat="45.25895" lon="5.41889">
        <ele>627</ele>
        <time>2009-11-14T11:04:42Z</time>
      </trkpt>
      <trkpt lat="45.25903" lon="5.41891">
        <ele>627</ele>
        <time>2009-11-14T11:04:47Z</time>
      </trkpt>
      <trkpt lat="45.25935" lon="5.419">
        <ele>625</ele>
        <time>2009-11-14T11:05:00Z</time>
      </trkpt>
      <trkpt lat="45.25949" lon="5.41908">
        <ele>623</ele>
        <time>2009-11-14T11:05:03Z</time>
      </trkpt>
      <trkpt lat="45.25964" lon="5.41917">
        <ele>619</ele>
        <time>2009-11-14T11:05:06Z</time>
      </trkpt>
      <trkpt lat="45.25993" lon="5.41938">
        <ele>613</ele>
        <time>2009-11-14T11:05:11Z</time>
      </trkpt>
      <trkpt lat="45.26023" lon="5.41961">
        <ele>610</ele>
        <time>2009-11-14T11:05:16Z</time>
      </trkpt>
      <trkpt lat="45.26028" lon="5.41965">
        <ele>609</ele>
        <time>2009-11-14T11:05:17Z</time>
      </trkpt>
      <trkpt lat="45.26049" lon="5.41983">
        <ele>607</ele>
        <time>2009-11-14T11:05:21Z</time>
      </trkpt>
      <trkpt lat="45.26066" lon="5.42001">
        <ele>605</ele>
        <time>2009-11-14T11:05:23Z</time>
      </trkpt>
      <trkpt lat="45.26089" lon="5.42019">
        <ele>604</ele>
        <time>2009-11-14T11:05:28Z</time>
      </trkpt>
      <trkpt lat="45.26141" lon="5.42091">
        <ele>603</ele>
        <time>2009-11-14T11:05:43Z</time>
      </trkpt>
      <trkpt lat="45.26209" lon="5.42169">
        <ele>604</ele>
        <time>2009-11-14T11:06:03Z</time>
      </trkpt>
      <trkpt lat="45.26233" lon="5.42205">
        <ele>603</ele>
        <time>2009-11-14T11:06:10Z</time>
      </trkpt>
      <trkpt lat="45.26243" lon="5.42228">
        <ele>601</ele>
        <time>2009-11-14T11:06:14Z</time>
      </trkpt>
      <trkpt lat="45.26248" lon="5.42241">
        <ele>602</ele>
        <time>2009-11-14T11:06:19Z</time>
      </trkpt>
      <trkpt lat="45.26271" lon="5.4229">
        <ele>604</ele>
        <time>2009-11-14T11:06:30Z</time>
      </trkpt>
      <trkpt lat="45.26289" lon="5.42313">
        <ele>605</ele>
        <time>2009-11-14T11:06:37Z</time>
      </trkpt>
      <trkpt lat="45.26318" lon="5.42329">
        <ele>606</ele>
        <time>2009-11-14T11:06:48Z</time>
      </trkpt>
      <trkpt lat="45.26343" lon="5.42327">
        <ele>610</ele>
        <time>2009-11-14T11:06:58Z</time>
      </trkpt>
      <trkpt lat="45.26373" lon="5.42326">
        <ele>612</ele>
        <time>2009-11-14T11:07:12Z</time>
      </trkpt>
      <trkpt lat="45.26403" lon="5.42335">
        <ele>615</ele>
        <time>2009-11-14T11:07:26Z</time>
      </trkpt>
      <trkpt lat="45.26433" lon="5.42351">
        <ele>616</ele>
        <time>2009-11-14T11:07:39Z</time>
      </trkpt>
      <trkpt lat="45.26469" lon="5.42372">
        <ele>616</ele>
        <time>2009-11-14T11:07:50Z</time>
      </trkpt>
      <trkpt lat="45.26529" lon="5.42396">
        <ele>617</ele>
        <time>2009-11-14T11:08:07Z</time>
      </trkpt>
      <trkpt lat="45.2658" lon="5.42384">
        <ele>619</ele>
        <time>2009-11-14T11:08:22Z</time>
      </trkpt>
      <trkpt lat="45.2661" lon="5.42391">
        <ele>621</ele>
        <time>2009-11-14T11:08:32Z</time>
      </trkpt>
      <trkpt lat="45.26651" lon="5.42398">
        <ele>623</ele>
        <time>2009-11-14T11:08:45Z</time>
      </trkpt>
      <trkpt lat="45.26703" lon="5.42402">
        <ele>624</ele>
        <time>2009-11-14T11:08:59Z</time>
      </trkpt>
      <trkpt lat="45.2676" lon="5.4241">
        <ele>624</ele>
        <time>2009-11-14T11:09:13Z</time>
      </trkpt>
      <trkpt lat="45.26823" lon="5.4241">
        <ele>621</ele>
        <time>2009-11-14T11:09:25Z</time>
      </trkpt>
      <trkpt lat="45.26828" lon="5.42409">
        <ele>621</ele>
        <time>2009-11-14T11:09:26Z</time>
      </trkpt>
      <trkpt lat="45.26834" lon="5.4241">
        <ele>620</ele>
        <time>2009-11-14T11:09:27Z</time>
      </trkpt>
      <trkpt lat="45.26869" lon="5.42437">
        <ele>619</ele>
        <time>2009-11-14T11:09:33Z</time>
      </trkpt>
      <trkpt lat="45.26877" lon="5.42454">
        <ele>618</ele>
        <time>2009-11-14T11:09:35Z</time>
      </trkpt>
      <trkpt lat="45.26902" lon="5.42485">
        <ele>620</ele>
        <time>2009-11-14T11:09:41Z</time>
      </trkpt>
      <trkpt lat="45.26931" lon="5.4254">
        <ele>624</ele>
        <time>2009-11-14T11:09:55Z</time>
      </trkpt>
      <trkpt lat="45.26932" lon="5.4254">
        <ele>624</ele>
        <time>2009-11-14T11:09:56Z</time>
      </trkpt>
      <trkpt lat="45.26932" lon="5.4254">
        <ele>623</ele>
        <time>2009-11-14T11:10:04Z</time>
      </trkpt>
      <trkpt lat="45.26925" lon="5.42612">
        <ele>622</ele>
        <time>2009-11-14T11:10:17Z</time>
      </trkpt>
      <trkpt lat="45.26931" lon="5.42659">
        <ele>622</ele>
        <time>2009-11-14T11:10:26Z</time>
      </trkpt>
      <trkpt lat="45.26931" lon="5.42661">
        <ele>622</ele>
        <time>2009-11-14T11:10:28Z</time>
      </trkpt>
      <trkpt lat="45.26937" lon="5.4266">
        <ele>619</ele>
        <time>2009-11-14T11:10:33Z</time>
      </trkpt>
      <trkpt lat="45.26977" lon="5.42653">
        <ele>617</ele>
        <time>2009-11-14T11:10:43Z</time>
      </trkpt>
      <trkpt lat="45.27005" lon="5.42673">
        <ele>620</ele>
        <time>2009-11-14T11:10:56Z</time>
      </trkpt>
      <trkpt lat="45.27007" lon="5.42673">
        <ele>620</ele>
        <time>2009-11-14T11:10:57Z</time>
      </trkpt>
      <trkpt lat="45.27024" lon="5.42671">
        <ele>622</ele>
        <time>2009-11-14T11:11:07Z</time>
      </trkpt>
      <trkpt lat="45.27043" lon="5.42692">
        <ele>621</ele>
        <time>2009-11-14T11:11:16Z</time>
      </trkpt>
      <trkpt lat="45.27058" lon="5.42718">
        <ele>622</ele>
        <time>2009-11-14T11:11:27Z</time>
      </trkpt>
      <trkpt lat="45.27093" lon="5.42714">
        <ele>621</ele>
        <time>2009-11-14T11:11:39Z</time>
      </trkpt>
      <trkpt lat="45.27098" lon="5.42717">
        <ele>621</ele>
        <time>2009-11-14T11:11:41Z</time>
      </trkpt>
      <trkpt lat="45.27122" lon="5.42755">
        <ele>621</ele>
        <time>2009-11-14T11:11:54Z</time>
      </trkpt>
      <trkpt lat="45.27125" lon="5.42763">
        <ele>622</ele>
        <time>2009-11-14T11:12:06Z</time>
      </trkpt>
      <trkpt lat="45.27135" lon="5.42789">
        <ele>624</ele>
        <time>2009-11-14T11:12:16Z</time>
      </trkpt>
      <trkpt lat="45.27147" lon="5.42813">
        <ele>625</ele>
        <time>2009-11-14T11:12:25Z</time>
      </trkpt>
      <trkpt lat="45.27177" lon="5.42863">
        <ele>628</ele>
        <time>2009-11-14T11:12:45Z</time>
      </trkpt>
      <trkpt lat="45.27179" lon="5.42865">
        <ele>628</ele>
        <time>2009-11-14T11:12:47Z</time>
      </trkpt>
      <trkpt lat="45.27198" lon="5.4284">
        <ele>628</ele>
        <time>2009-11-14T11:12:55Z</time>
      </trkpt>
      <trkpt lat="45.27208" lon="5.42839">
        <ele>627</ele>
        <time>2009-11-14T11:13:00Z</time>
      </trkpt>
      <trkpt lat="45.27243" lon="5.42846">
        <ele>628</ele>
        <time>2009-11-14T11:13:13Z</time>
      </trkpt>
      <trkpt lat="45.27245" lon="5.42848">
        <ele>628</ele>
        <time>2009-11-14T11:13:14Z</time>
      </trkpt>
      <trkpt lat="45.27249" lon="5.42847">
        <ele>628</ele>
        <time>2009-11-14T11:13:16Z</time>
      </trkpt>
      <trkpt lat="45.27266" lon="5.42835">
        <ele>626</ele>
        <time>2009-11-14T11:13:22Z</time>
      </trkpt>
      <trkpt lat="45.27291" lon="5.42832">
        <ele>626</ele>
        <time>2009-11-14T11:13:31Z</time>
      </trkpt>
      <trkpt lat="45.27303" lon="5.42828">
        <ele>625</ele>
        <time>2009-11-14T11:13:35Z</time>
      </trkpt>
      <trkpt lat="45.27308" lon="5.42825">
        <ele>623</ele>
        <time>2009-11-14T11:13:37Z</time>
      </trkpt>
      <trkpt lat="45.27329" lon="5.42806">
        <ele>622</ele>
        <time>2009-11-14T11:13:42Z</time>
      </trkpt>
      <trkpt lat="45.27342" lon="5.42788">
        <ele>622</ele>
        <time>2009-11-14T11:13:46Z</time>
      </trkpt>
      <trkpt lat="45.27347" lon="5.42753">
        <ele>618</ele>
        <time>2009-11-14T11:13:51Z</time>
      </trkpt>
      <trkpt lat="45.27364" lon="5.42685">
        <ele>618</ele>
        <time>2009-11-14T11:14:04Z</time>
      </trkpt>
      <trkpt lat="45.27363" lon="5.42666">
        <ele>619</ele>
        <time>2009-11-14T11:14:14Z</time>
      </trkpt>
      <trkpt lat="45.27361" lon="5.42663">
        <ele>618</ele>
        <time>2009-11-14T11:14:25Z</time>
      </trkpt>
      <trkpt lat="45.27364" lon="5.42649">
        <ele>618</ele>
        <time>2009-11-14T11:14:30Z</time>
      </trkpt>
      <trkpt lat="45.27369" lon="5.42644">
        <ele>617</ele>
        <time>2009-11-14T11:14:33Z</time>
      </trkpt>
      <trkpt lat="45.27375" lon="5.4263">
        <ele>617</ele>
        <time>2009-11-14T11:14:46Z</time>
      </trkpt>
      <trkpt lat="45.27376" lon="5.42629">
        <ele>617</ele>
        <time>2009-11-14T11:14:50Z</time>
      </trkpt>
      <trkpt lat="45.27383" lon="5.42632">
        <ele>616</ele>
        <time>2009-11-14T11:14:55Z</time>
      </trkpt>
      <trkpt lat="45.274" lon="5.42644">
        <ele>615</ele>
        <time>2009-11-14T11:15:03Z</time>
      </trkpt>
      <trkpt lat="45.27415" lon="5.42639">
        <ele>615</ele>
        <time>2009-11-14T11:15:07Z</time>
      </trkpt>
      <trkpt lat="45.27443" lon="5.42647">
        <ele>615</ele>
        <time>2009-11-14T11:15:14Z</time>
      </trkpt>
      <trkpt lat="45.27462" lon="5.4265">
        <ele>614</ele>
        <time>2009-11-14T11:15:20Z</time>
      </trkpt>
      <trkpt lat="45.2748" lon="5.42662">
        <ele>615</ele>
        <time>2009-11-14T11:15:26Z</time>
      </trkpt>
      <trkpt lat="45.27495" lon="5.4267">
        <ele>616</ele>
        <time>2009-11-14T11:15:32Z</time>
      </trkpt>
      <trkpt lat="45.27531" lon="5.42695">
        <ele>617</ele>
        <time>2009-11-14T11:15:48Z</time>
      </trkpt>
      <trkpt lat="45.27555" lon="5.42703">
        <ele>619</ele>
        <time>2009-11-14T11:15:59Z</time>
      </trkpt>
      <trkpt lat="45.27563" lon="5.42709">
        <ele>621</ele>
        <time>2009-11-14T11:16:04Z</time>
      </trkpt>
      <trkpt lat="45.2757" lon="5.42711">
        <ele>621</ele>
        <time>2009-11-14T11:16:07Z</time>
      </trkpt>
      <trkpt lat="45.27597" lon="5.42721">
        <ele>623</ele>
        <time>2009-11-14T11:16:19Z</time>
      </trkpt>
      <trkpt lat="45.27612" lon="5.4272">
        <ele>622</ele>
        <time>2009-11-14T11:16:26Z</time>
      </trkpt>
      <trkpt lat="45.27626" lon="5.4271">
        <ele>621</ele>
        <time>2009-11-14T11:16:32Z</time>
      </trkpt>
      <trkpt lat="45.27629" lon="5.42708">
        <ele>617</ele>
        <time>2009-11-14T11:16:45Z</time>
      </trkpt>
      <trkpt lat="45.27629" lon="5.42708">
        <ele>621</ele>
        <time>2009-11-14T11:16:46Z</time>
      </trkpt>
      <trkpt lat="45.2763" lon="5.42707">
        <ele>620</ele>
        <time>2009-11-14T11:17:02Z</time>
      </trkpt>
      <trkpt lat="45.27637" lon="5.42694">
        <ele>620</ele>
        <time>2009-11-14T11:17:09Z</time>
      </trkpt>
      <trkpt lat="45.27641" lon="5.4268">
        <ele>619</ele>
        <time>2009-11-14T11:17:15Z</time>
      </trkpt>
      <trkpt lat="45.27642" lon="5.42674">
        <ele>619</ele>
        <time>2009-11-14T11:17:17Z</time>
      </trkpt>
      <trkpt lat="45.27639" lon="5.4264">
        <ele>623</ele>
        <time>2009-11-14T11:17:33Z</time>
      </trkpt>
      <trkpt lat="45.2764" lon="5.42615">
        <ele>625</ele>
        <time>2009-11-14T11:17:48Z</time>
      </trkpt>
      <trkpt lat="45.27639" lon="5.42606">
        <ele>626</ele>
        <time>2009-11-14T11:17:53Z</time>
      </trkpt>
      <trkpt lat="45.27638" lon="5.42587">
        <ele>627</ele>
        <time>2009-11-14T11:18:03Z</time>
      </trkpt>
      <trkpt lat="45.27638" lon="5.42577">
        <ele>629</ele>
        <time>2009-11-14T11:18:08Z</time>
      </trkpt>
      <trkpt lat="45.27637" lon="5.42566">
        <ele>629</ele>
        <time>2009-11-14T11:18:12Z</time>
      </trkpt>
      <trkpt lat="45.27639" lon="5.42545">
        <ele>631</ele>
        <time>2009-11-14T11:18:21Z</time>
      </trkpt>
      <trkpt lat="45.27639" lon="5.4254">
        <ele>632</ele>
        <time>2009-11-14T11:18:24Z</time>
      </trkpt>
      <trkpt lat="45.27638" lon="5.42528">
        <ele>632</ele>
        <time>2009-11-14T11:18:30Z</time>
      </trkpt>
      <trkpt lat="45.2764" lon="5.42496">
        <ele>634</ele>
        <time>2009-11-14T11:18:45Z</time>
      </trkpt>
      <trkpt lat="45.27644" lon="5.42489">
        <ele>635</ele>
        <time>2009-11-14T11:18:49Z</time>
      </trkpt>
      <trkpt lat="45.27658" lon="5.42469">
        <ele>635</ele>
        <time>2009-11-14T11:19:03Z</time>
      </trkpt>
      <trkpt lat="45.27659" lon="5.42469">
        <ele>635</ele>
        <time>2009-11-14T11:19:04Z</time>
      </trkpt>
      <trkpt lat="45.27677" lon="5.42457">
        <ele>636</ele>
        <time>2009-11-14T11:19:20Z</time>
      </trkpt>
      <trkpt lat="45.27679" lon="5.42446">
        <ele>638</ele>
        <time>2009-11-14T11:19:33Z</time>
      </trkpt>
      <trkpt lat="45.27679" lon="5.42445">
        <ele>638</ele>
        <time>2009-11-14T11:19:48Z</time>
      </trkpt>
      <trkpt lat="45.27653" lon="5.42446">
        <ele>640</ele>
        <time>2009-11-14T11:20:06Z</time>
      </trkpt>
      <trkpt lat="45.27626" lon="5.42454">
        <ele>644</ele>
        <time>2009-11-14T11:20:24Z</time>
      </trkpt>
      <trkpt lat="45.27611" lon="5.42481">
        <ele>647</ele>
        <time>2009-11-14T11:20:41Z</time>
      </trkpt>
      <trkpt lat="45.27608" lon="5.42489">
        <ele>648</ele>
        <time>2009-11-14T11:20:46Z</time>
      </trkpt>
      <trkpt lat="45.27601" lon="5.42516">
        <ele>650</ele>
        <time>2009-11-14T11:21:04Z</time>
      </trkpt>
      <trkpt lat="45.27594" lon="5.42532">
        <ele>653</ele>
        <time>2009-11-14T11:21:15Z</time>
      </trkpt>
      <trkpt lat="45.27581" lon="5.42558">
        <ele>656</ele>
        <time>2009-11-14T11:21:32Z</time>
      </trkpt>
      <trkpt lat="45.27565" lon="5.42581">
        <ele>659</ele>
        <time>2009-11-14T11:21:50Z</time>
      </trkpt>
      <trkpt lat="45.27548" lon="5.42586">
        <ele>662</ele>
        <time>2009-11-14T11:22:06Z</time>
      </trkpt>
      <trkpt lat="45.27533" lon="5.42561">
        <ele>664</ele>
        <time>2009-11-14T11:22:23Z</time>
      </trkpt>
      <trkpt lat="45.27523" lon="5.42544">
        <ele>667</ele>
        <time>2009-11-14T11:22:39Z</time>
      </trkpt>
      <trkpt lat="45.27522" lon="5.42531">
        <ele>669</ele>
        <time>2009-11-14T11:22:54Z</time>
      </trkpt>
      <trkpt lat="45.27522" lon="5.42532">
        <ele>669</ele>
        <time>2009-11-14T11:22:59Z</time>
      </trkpt>
      <trkpt lat="45.27532" lon="5.42515">
        <ele>672</ele>
        <time>2009-11-14T11:23:12Z</time>
      </trkpt>
      <trkpt lat="45.27529" lon="5.4248">
        <ele>675</ele>
        <time>2009-11-14T11:23:30Z</time>
      </trkpt>
      <trkpt lat="45.27529" lon="5.42478">
        <ele>675</ele>
        <time>2009-11-14T11:23:31Z</time>
      </trkpt>
      <trkpt lat="45.27529" lon="5.42469">
        <ele>676</ele>
        <time>2009-11-14T11:23:36Z</time>
      </trkpt>
      <trkpt lat="45.27529" lon="5.42461">
        <ele>676</ele>
        <time>2009-11-14T11:23:40Z</time>
      </trkpt>
      <trkpt lat="45.27528" lon="5.42451">
        <ele>677</ele>
        <time>2009-11-14T11:23:45Z</time>
      </trkpt>
      <trkpt lat="45.27528" lon="5.42445">
        <ele>678</ele>
        <time>2009-11-14T11:23:48Z</time>
      </trkpt>
      <trkpt lat="45.27528" lon="5.42442">
        <ele>678</ele>
        <time>2009-11-14T11:23:50Z</time>
      </trkpt>
      <trkpt lat="45.27528" lon="5.42433">
        <ele>679</ele>
        <time>2009-11-14T11:23:55Z</time>
      </trkpt>
      <trkpt lat="45.2753" lon="5.42408">
        <ele>681</ele>
        <time>2009-11-14T11:24:09Z</time>
      </trkpt>
      <trkpt lat="45.27532" lon="5.42393">
        <ele>682</ele>
        <time>2009-11-14T11:24:24Z</time>
      </trkpt>
      <trkpt lat="45.27533" lon="5.42386">
        <ele>684</ele>
        <time>2009-11-14T11:24:28Z</time>
      </trkpt>
      <trkpt lat="45.27537" lon="5.4237">
        <ele>685</ele>
        <time>2009-11-14T11:24:37Z</time>
      </trkpt>
      <trkpt lat="45.27539" lon="5.42363">
        <ele>685</ele>
        <time>2009-11-14T11:24:41Z</time>
      </trkpt>
      <trkpt lat="45.27547" lon="5.42347">
        <ele>686</ele>
        <time>2009-11-14T11:24:51Z</time>
      </trkpt>
      <trkpt lat="45.2755" lon="5.42333">
        <ele>687</ele>
        <time>2009-11-14T11:24:57Z</time>
      </trkpt>
      <trkpt lat="45.27552" lon="5.42295">
        <ele>688</ele>
        <time>2009-11-14T11:25:15Z</time>
      </trkpt>
      <trkpt lat="45.27551" lon="5.42284">
        <ele>688</ele>
        <time>2009-11-14T11:25:20Z</time>
      </trkpt>
      <trkpt lat="45.27549" lon="5.42272">
        <ele>690</ele>
        <time>2009-11-14T11:25:26Z</time>
      </trkpt>
      <trkpt lat="45.27558" lon="5.42256">
        <ele>690</ele>
        <time>2009-11-14T11:25:35Z</time>
      </trkpt>
      <trkpt lat="45.27581" lon="5.4224">
        <ele>691</ele>
        <time>2009-11-14T11:25:52Z</time>
      </trkpt>
      <trkpt lat="45.27583" lon="5.42239">
        <ele>691</ele>
        <time>2009-11-14T11:26:07Z</time>
      </trkpt>
      <trkpt lat="45.27582" lon="5.42236">
        <ele>690</ele>
        <time>2009-11-14T11:26:25Z</time>
      </trkpt>
      <trkpt lat="45.27583" lon="5.42236">
        <ele>690</ele>
        <time>2009-11-14T11:26:38Z</time>
      </trkpt>
      <trkpt lat="45.27583" lon="5.42235">
        <ele>690</ele>
        <time>2009-11-14T11:28:26Z</time>
      </trkpt>
      <trkpt lat="45.27583" lon="5.42233">
        <ele>690</ele>
        <time>2009-11-14T11:28:28Z</time>
      </trkpt>
      <trkpt lat="45.27599" lon="5.42183">
        <ele>689</ele>
        <time>2009-11-14T11:28:42Z</time>
      </trkpt>
      <trkpt lat="45.27632" lon="5.42129">
        <ele>687</ele>
        <time>2009-11-14T11:28:58Z</time>
      </trkpt>
      <trkpt lat="45.27672" lon="5.42086">
        <ele>687</ele>
        <time>2009-11-14T11:29:14Z</time>
      </trkpt>
      <trkpt lat="45.27708" lon="5.42051">
        <ele>688</ele>
        <time>2009-11-14T11:29:27Z</time>
      </trkpt>
      <trkpt lat="45.27744" lon="5.42017">
        <ele>690</ele>
        <time>2009-11-14T11:29:43Z</time>
      </trkpt>
      <trkpt lat="45.27764" lon="5.41992">
        <ele>691</ele>
        <time>2009-11-14T11:29:57Z</time>
      </trkpt>
      <trkpt lat="45.27793" lon="5.41951">
        <ele>694</ele>
        <time>2009-11-14T11:30:17Z</time>
      </trkpt>
      <trkpt lat="45.27803" lon="5.41933">
        <ele>697</ele>
        <time>2009-11-14T11:30:33Z</time>
      </trkpt>
      <trkpt lat="45.27819" lon="5.41923">
        <ele>699</ele>
        <time>2009-11-14T11:30:41Z</time>
      </trkpt>
      <trkpt lat="45.27819" lon="5.41923">
        <ele>699</ele>
        <time>2009-11-14T11:30:58Z</time>
      </trkpt>
      <trkpt lat="45.27827" lon="5.41909">
        <ele>700</ele>
        <time>2009-11-14T11:31:47Z</time>
      </trkpt>
      <trkpt lat="45.27829" lon="5.41907">
        <ele>701</ele>
        <time>2009-11-14T11:31:50Z</time>
      </trkpt>
      <trkpt lat="45.27832" lon="5.41906">
        <ele>703</ele>
        <time>2009-11-14T11:32:00Z</time>
      </trkpt>
      <trkpt lat="45.27832" lon="5.41906">
        <ele>706</ele>
        <time>2009-11-14T11:32:17Z</time>
      </trkpt>
      <trkpt lat="45.27832" lon="5.41906">
        <ele>708</ele>
        <time>2009-11-14T11:32:25Z</time>
      </trkpt>
      <trkpt lat="45.27832" lon="5.41906">
        <ele>708</ele>
        <time>2009-11-14T11:32:28Z</time>
      </trkpt>
      <trkpt lat="45.27811" lon="5.41802">
        <ele>711</ele>
        <time>2009-11-14T11:32:48Z</time>
      </trkpt>
      <trkpt lat="45.27809" lon="5.41797">
        <ele>712</ele>
        <time>2009-11-14T11:32:57Z</time>
      </trkpt>
      <trkpt lat="45.278" lon="5.4177">
        <ele>714</ele>
        <time>2009-11-14T11:33:07Z</time>
      </trkpt>
      <trkpt lat="45.278" lon="5.4177">
        <ele>714</ele>
        <time>2009-11-14T11:33:08Z</time>
      </trkpt>
      <trkpt lat="45.27797" lon="5.41765">
        <ele>715</ele>
        <time>2009-11-14T11:33:18Z</time>
      </trkpt>
      <trkpt lat="45.27797" lon="5.41765">
        <ele>715</ele>
        <time>2009-11-14T11:33:24Z</time>
      </trkpt>
      <trkpt lat="45.27786" lon="5.41734">
        <ele>716</ele>
        <time>2009-11-14T11:33:27Z</time>
      </trkpt>
      <trkpt lat="45.27782" lon="5.41709">
        <ele>717</ele>
        <time>2009-11-14T11:33:34Z</time>
      </trkpt>
      <trkpt lat="45.27781" lon="5.41705">
        <ele>717</ele>
        <time>2009-11-14T11:33:39Z</time>
      </trkpt>
      <trkpt lat="45.27771" lon="5.4166">
        <ele>720</ele>
        <time>2009-11-14T11:33:54Z</time>
      </trkpt>
      <trkpt lat="45.27771" lon="5.4166">
        <ele>721</ele>
        <time>2009-11-14T11:34:04Z</time>
      </trkpt>
      <trkpt lat="45.27771" lon="5.4166">
        <ele>722</ele>
        <time>2009-11-14T11:34:17Z</time>
      </trkpt>
      <trkpt lat="45.27771" lon="5.4166">
        <ele>723</ele>
        <time>2009-11-14T11:35:28Z</time>
      </trkpt>
      <trkpt lat="45.27755" lon="5.41588">
        <ele>724</ele>
        <time>2009-11-14T11:35:40Z</time>
      </trkpt>
      <trkpt lat="45.2775" lon="5.41572">
        <ele>726</ele>
        <time>2009-11-14T11:35:55Z</time>
      </trkpt>
      <trkpt lat="45.27744" lon="5.41558">
        <ele>728</ele>
        <time>2009-11-14T11:36:08Z</time>
      </trkpt>
      <trkpt lat="45.27744" lon="5.41558">
        <ele>729</ele>
        <time>2009-11-14T11:36:12Z</time>
      </trkpt>
      <trkpt lat="45.27744" lon="5.41558">
        <ele>730</ele>
        <time>2009-11-14T11:36:16Z</time>
      </trkpt>
      <trkpt lat="45.27728" lon="5.41507">
        <ele>731</ele>
        <time>2009-11-14T11:36:23Z</time>
      </trkpt>
      <trkpt lat="45.27728" lon="5.41507">
        <ele>731</ele>
        <time>2009-11-14T11:36:36Z</time>
      </trkpt>
      <trkpt lat="45.27728" lon="5.41507">
        <ele>731</ele>
        <time>2009-11-14T11:37:08Z</time>
      </trkpt>
      <trkpt lat="45.27728" lon="5.41482">
        <ele>731</ele>
        <time>2009-11-14T11:37:12Z</time>
      </trkpt>
      <trkpt lat="45.27731" lon="5.41472">
        <ele>732</ele>
        <time>2009-11-14T11:37:16Z</time>
      </trkpt>
      <trkpt lat="45.27736" lon="5.41461">
        <ele>732</ele>
        <time>2009-11-14T11:37:21Z</time>
      </trkpt>
      <trkpt lat="45.27752" lon="5.41428">
        <ele>734</ele>
        <time>2009-11-14T11:37:35Z</time>
      </trkpt>
      <trkpt lat="45.27762" lon="5.41414">
        <ele>736</ele>
        <time>2009-11-14T11:37:45Z</time>
      </trkpt>
      <trkpt lat="45.27768" lon="5.41407">
        <ele>737</ele>
        <time>2009-11-14T11:37:54Z</time>
      </trkpt>
      <trkpt lat="45.27793" lon="5.41387">
        <ele>740</ele>
        <time>2009-11-14T11:38:07Z</time>
      </trkpt>
      <trkpt lat="45.27805" lon="5.41375">
        <ele>742</ele>
        <time>2009-11-14T11:38:19Z</time>
      </trkpt>
      <trkpt lat="45.27813" lon="5.41367">
        <ele>745</ele>
        <time>2009-11-14T11:38:30Z</time>
      </trkpt>
      <trkpt lat="45.27813" lon="5.41367">
        <ele>748</ele>
        <time>2009-11-14T11:38:41Z</time>
      </trkpt>
      <trkpt lat="45.27842" lon="5.41332">
        <ele>751</ele>
        <time>2009-11-14T11:38:58Z</time>
      </trkpt>
      <trkpt lat="45.27847" lon="5.41326">
        <ele>754</ele>
        <time>2009-11-14T11:39:12Z</time>
      </trkpt>
      <trkpt lat="45.27847" lon="5.41326">
        <ele>755</ele>
        <time>2009-11-14T11:39:17Z</time>
      </trkpt>
      <trkpt lat="45.27847" lon="5.41326">
        <ele>758</ele>
        <time>2009-11-14T11:39:30Z</time>
      </trkpt>
      <trkpt lat="45.27847" lon="5.41326">
        <ele>761</ele>
        <time>2009-11-14T11:39:44Z</time>
      </trkpt>
      <trkpt lat="45.27847" lon="5.41326">
        <ele>763</ele>
        <time>2009-11-14T11:39:58Z</time>
      </trkpt>
      <trkpt lat="45.27914" lon="5.41272">
        <ele>767</ele>
        <time>2009-11-14T11:40:13Z</time>
      </trkpt>
      <trkpt lat="45.27914" lon="5.41272">
        <ele>767</ele>
        <time>2009-11-14T11:40:15Z</time>
      </trkpt>
      <trkpt lat="45.27926" lon="5.41267">
        <ele>767</ele>
        <time>2009-11-14T11:40:23Z</time>
      </trkpt>
      <trkpt lat="45.27926" lon="5.41267">
        <ele>767</ele>
        <time>2009-11-14T11:40:33Z</time>
      </trkpt>
      <trkpt lat="45.27931" lon="5.41266">
        <ele>767</ele>
        <time>2009-11-14T11:40:45Z</time>
      </trkpt>
      <trkpt lat="45.27947" lon="5.41267">
        <ele>766</ele>
        <time>2009-11-14T11:40:56Z</time>
      </trkpt>
      <trkpt lat="45.27961" lon="5.41266">
        <ele>766</ele>
        <time>2009-11-14T11:41:02Z</time>
      </trkpt>
      <trkpt lat="45.27968" lon="5.41265">
        <ele>766</ele>
        <time>2009-11-14T11:41:06Z</time>
      </trkpt>
      <trkpt lat="45.2797" lon="5.41265">
        <ele>767</ele>
        <time>2009-11-14T11:41:23Z</time>
      </trkpt>
      <trkpt lat="45.27981" lon="5.41265">
        <ele>767</ele>
        <time>2009-11-14T11:42:39Z</time>
      </trkpt>
      <trkpt lat="45.27999" lon="5.4127">
        <ele>768</ele>
        <time>2009-11-14T11:42:49Z</time>
      </trkpt>
      <trkpt lat="45.28017" lon="5.41278">
        <ele>768</ele>
        <time>2009-11-14T11:42:58Z</time>
      </trkpt>
      <trkpt lat="45.28026" lon="5.41281">
        <ele>768</ele>
        <time>2009-11-14T11:43:03Z</time>
      </trkpt>
      <trkpt lat="45.2803" lon="5.41282">
        <ele>768</ele>
        <time>2009-11-14T11:43:05Z</time>
      </trkpt>
      <trkpt lat="45.28057" lon="5.41286">
        <ele>768</ele>
        <time>2009-11-14T11:43:16Z</time>
      </trkpt>
      <trkpt lat="45.28078" lon="5.4129">
        <ele>768</ele>
        <time>2009-11-14T11:43:23Z</time>
      </trkpt>
      <trkpt lat="45.28103" lon="5.41296">
        <ele>767</ele>
        <time>2009-11-14T11:43:33Z</time>
      </trkpt>
      <trkpt lat="45.28123" lon="5.413">
        <ele>767</ele>
        <time>2009-11-14T11:43:40Z</time>
      </trkpt>
      <trkpt lat="45.28125" lon="5.41301">
        <ele>767</ele>
        <time>2009-11-14T11:43:41Z</time>
      </trkpt>
      <trkpt lat="45.28132" lon="5.41302">
        <ele>767</ele>
        <time>2009-11-14T11:43:45Z</time>
      </trkpt>
      <trkpt lat="45.28144" lon="5.41307">
        <ele>767</ele>
        <time>2009-11-14T11:43:51Z</time>
      </trkpt>
      <trkpt lat="45.28162" lon="5.41314">
        <ele>768</ele>
        <time>2009-11-14T11:44:00Z</time>
      </trkpt>
      <trkpt lat="45.28164" lon="5.41315">
        <ele>768</ele>
        <time>2009-11-14T11:44:01Z</time>
      </trkpt>
      <trkpt lat="45.282" lon="5.41303">
        <ele>772</ele>
        <time>2009-11-14T11:44:17Z</time>
      </trkpt>
      <trkpt lat="45.28211" lon="5.41298">
        <ele>773</ele>
        <time>2009-11-14T11:44:22Z</time>
      </trkpt>
      <trkpt lat="45.28236" lon="5.41284">
        <ele>776</ele>
        <time>2009-11-14T11:44:35Z</time>
      </trkpt>
      <trkpt lat="45.28256" lon="5.41277">
        <ele>775</ele>
        <time>2009-11-14T11:44:44Z</time>
      </trkpt>
      <trkpt lat="45.28265" lon="5.41276">
        <ele>775</ele>
        <time>2009-11-14T11:44:49Z</time>
      </trkpt>
      <trkpt lat="45.28275" lon="5.41275">
        <ele>774</ele>
        <time>2009-11-14T11:44:53Z</time>
      </trkpt>
      <trkpt lat="45.2828" lon="5.41274">
        <ele>774</ele>
        <time>2009-11-14T11:44:55Z</time>
      </trkpt>
      <trkpt lat="45.2829" lon="5.41274">
        <ele>773</ele>
        <time>2009-11-14T11:44:59Z</time>
      </trkpt>
      <trkpt lat="45.28301" lon="5.41275">
        <ele>770</ele>
        <time>2009-11-14T11:45:03Z</time>
      </trkpt>
      <trkpt lat="45.28322" lon="5.41281">
        <ele>766</ele>
        <time>2009-11-14T11:45:08Z</time>
      </trkpt>
      <trkpt lat="45.28323" lon="5.41281">
        <ele>765</ele>
        <time>2009-11-14T11:45:09Z</time>
      </trkpt>
      <trkpt lat="45.2834" lon="5.41289">
        <ele>764</ele>
        <time>2009-11-14T11:45:11Z</time>
      </trkpt>
      <trkpt lat="45.28387" lon="5.41314">
        <ele>761</ele>
        <time>2009-11-14T11:45:19Z</time>
      </trkpt>
      <trkpt lat="45.28405" lon="5.41326">
        <ele>761</ele>
        <time>2009-11-14T11:45:22Z</time>
      </trkpt>
      <trkpt lat="45.28421" lon="5.41336">
        <ele>761</ele>
        <time>2009-11-14T11:45:26Z</time>
      </trkpt>
      <trkpt lat="45.28441" lon="5.4135">
        <ele>759</ele>
        <time>2009-11-14T11:45:33Z</time>
      </trkpt>
      <trkpt lat="45.28448" lon="5.41355">
        <ele>759</ele>
        <time>2009-11-14T11:45:35Z</time>
      </trkpt>
      <trkpt lat="45.28475" lon="5.41374">
        <ele>755</ele>
        <time>2009-11-14T11:45:41Z</time>
      </trkpt>
      <trkpt lat="45.28496" lon="5.41388">
        <ele>751</ele>
        <time>2009-11-14T11:45:44Z</time>
      </trkpt>
      <trkpt lat="45.28512" lon="5.41398">
        <ele>748</ele>
        <time>2009-11-14T11:45:46Z</time>
      </trkpt>
      <trkpt lat="45.28537" lon="5.41434">
        <ele>745</ele>
        <time>2009-11-14T11:45:50Z</time>
      </trkpt>
      <trkpt lat="45.2858" lon="5.41501">
        <ele>745</ele>
        <time>2009-11-14T11:45:58Z</time>
      </trkpt>
      <trkpt lat="45.28595" lon="5.41522">
        <ele>746</ele>
        <time>2009-11-14T11:46:01Z</time>
      </trkpt>
      <trkpt lat="45.28636" lon="5.41601">
        <ele>744</ele>
        <time>2009-11-14T11:46:13Z</time>
      </trkpt>
      <trkpt lat="45.28657" lon="5.41644">
        <ele>741</ele>
        <time>2009-11-14T11:46:19Z</time>
      </trkpt>
      <trkpt lat="45.28683" lon="5.41694">
        <ele>737</ele>
        <time>2009-11-14T11:46:25Z</time>
      </trkpt>
      <trkpt lat="45.28689" lon="5.41712">
        <ele>739</ele>
        <time>2009-11-14T11:46:28Z</time>
      </trkpt>
      <trkpt lat="45.28699" lon="5.4178">
        <ele>740</ele>
        <time>2009-11-14T11:46:41Z</time>
      </trkpt>
      <trkpt lat="45.28708" lon="5.41828">
        <ele>744</ele>
        <time>2009-11-14T11:46:52Z</time>
      </trkpt>
      <trkpt lat="45.28714" lon="5.41894">
        <ele>746</ele>
        <time>2009-11-14T11:47:09Z</time>
      </trkpt>
      <trkpt lat="45.28724" lon="5.41961">
        <ele>744</ele>
        <time>2009-11-14T11:47:24Z</time>
      </trkpt>
      <trkpt lat="45.28725" lon="5.41987">
        <ele>741</ele>
        <time>2009-11-14T11:47:28Z</time>
      </trkpt>
      <trkpt lat="45.28718" lon="5.42025">
        <ele>737</ele>
        <time>2009-11-14T11:47:33Z</time>
      </trkpt>
      <trkpt lat="45.28717" lon="5.42034">
        <ele>736</ele>
        <time>2009-11-14T11:47:34Z</time>
      </trkpt>
      <trkpt lat="45.28705" lon="5.42097">
        <ele>733</ele>
        <time>2009-11-14T11:47:40Z</time>
      </trkpt>
      <trkpt lat="45.28702" lon="5.42107">
        <ele>733</ele>
        <time>2009-11-14T11:47:41Z</time>
      </trkpt>
      <trkpt lat="45.28675" lon="5.42176">
        <ele>733</ele>
        <time>2009-11-14T11:47:49Z</time>
      </trkpt>
      <trkpt lat="45.28664" lon="5.42201">
        <ele>734</ele>
        <time>2009-11-14T11:48:03Z</time>
      </trkpt>
      <trkpt lat="45.28664" lon="5.42201">
        <ele>734</ele>
        <time>2009-11-14T11:48:11Z</time>
      </trkpt>
      <trkpt lat="45.28656" lon="5.4222">
        <ele>733</ele>
        <time>2009-11-14T11:48:26Z</time>
      </trkpt>
      <trkpt lat="45.28644" lon="5.42253">
        <ele>736</ele>
        <time>2009-11-14T11:48:37Z</time>
      </trkpt>
      <trkpt lat="45.28642" lon="5.42266">
        <ele>737</ele>
        <time>2009-11-14T11:48:41Z</time>
      </trkpt>
      <trkpt lat="45.28638" lon="5.42299">
        <ele>737</ele>
        <time>2009-11-14T11:48:50Z</time>
      </trkpt>
      <trkpt lat="45.2863" lon="5.4237">
        <ele>736</ele>
        <time>2009-11-14T11:49:05Z</time>
      </trkpt>
      <trkpt lat="45.28629" lon="5.42381">
        <ele>736</ele>
        <time>2009-11-14T11:49:08Z</time>
      </trkpt>
      <trkpt lat="45.28628" lon="5.42388">
        <ele>736</ele>
        <time>2009-11-14T11:49:11Z</time>
      </trkpt>
      <trkpt lat="45.28627" lon="5.42409">
        <ele>736</ele>
        <time>2009-11-14T11:49:20Z</time>
      </trkpt>
      <trkpt lat="45.28626" lon="5.42424">
        <ele>735</ele>
        <time>2009-11-14T11:49:24Z</time>
      </trkpt>
      <trkpt lat="45.28623" lon="5.4244">
        <ele>736</ele>
        <time>2009-11-14T11:49:28Z</time>
      </trkpt>
      <trkpt lat="45.28622" lon="5.42501">
        <ele>736</ele>
        <time>2009-11-14T11:49:42Z</time>
      </trkpt>
      <trkpt lat="45.2862" lon="5.42547">
        <ele>735</ele>
        <time>2009-11-14T11:49:51Z</time>
      </trkpt>
      <trkpt lat="45.28615" lon="5.42571">
        <ele>734</ele>
        <time>2009-11-14T11:49:55Z</time>
      </trkpt>
      <trkpt lat="45.28603" lon="5.42614">
        <ele>731</ele>
        <time>2009-11-14T11:50:02Z</time>
      </trkpt>
      <trkpt lat="45.28597" lon="5.42634">
        <ele>729</ele>
        <time>2009-11-14T11:50:05Z</time>
      </trkpt>
      <trkpt lat="45.28584" lon="5.42659">
        <ele>726</ele>
        <time>2009-11-14T11:50:11Z</time>
      </trkpt>
      <trkpt lat="45.2858" lon="5.42665">
        <ele>725</ele>
        <time>2009-11-14T11:50:12Z</time>
      </trkpt>
      <trkpt lat="45.28575" lon="5.42675">
        <ele>724</ele>
        <time>2009-11-14T11:50:14Z</time>
      </trkpt>
      <trkpt lat="45.28554" lon="5.42707">
        <ele>720</ele>
        <time>2009-11-14T11:50:20Z</time>
      </trkpt>
      <trkpt lat="45.28552" lon="5.4271">
        <ele>720</ele>
        <time>2009-11-14T11:50:21Z</time>
      </trkpt>
      <trkpt lat="45.28532" lon="5.42742">
        <ele>719</ele>
        <time>2009-11-14T11:50:30Z</time>
      </trkpt>
      <trkpt lat="45.28527" lon="5.42748">
        <ele>718</ele>
        <time>2009-11-14T11:50:38Z</time>
      </trkpt>
      <trkpt lat="45.28527" lon="5.42748">
        <ele>717</ele>
        <time>2009-11-14T11:50:40Z</time>
      </trkpt>
      <trkpt lat="45.28515" lon="5.42764">
        <ele>715</ele>
        <time>2009-11-14T11:50:43Z</time>
      </trkpt>
      <trkpt lat="45.28514" lon="5.42765">
        <ele>716</ele>
        <time>2009-11-14T11:50:47Z</time>
      </trkpt>
      <trkpt lat="45.28526" lon="5.42797">
        <ele>715</ele>
        <time>2009-11-14T11:50:55Z</time>
      </trkpt>
      <trkpt lat="45.28532" lon="5.42806">
        <ele>715</ele>
        <time>2009-11-14T11:51:00Z</time>
      </trkpt>
      <trkpt lat="45.28541" lon="5.42832">
        <ele>715</ele>
        <time>2009-11-14T11:51:09Z</time>
      </trkpt>
      <trkpt lat="45.28546" lon="5.42853">
        <ele>715</ele>
        <time>2009-11-14T11:51:16Z</time>
      </trkpt>
      <trkpt lat="45.28549" lon="5.42872">
        <ele>714</ele>
        <time>2009-11-14T11:51:21Z</time>
      </trkpt>
      <trkpt lat="45.2855" lon="5.42891">
        <ele>715</ele>
        <time>2009-11-14T11:51:25Z</time>
      </trkpt>
      <trkpt lat="45.28575" lon="5.42943">
        <ele>716</ele>
        <time>2009-11-14T11:51:40Z</time>
      </trkpt>
      <trkpt lat="45.28576" lon="5.42946">
        <ele>717</ele>
        <time>2009-11-14T11:51:41Z</time>
      </trkpt>
      <trkpt lat="45.28596" lon="5.42944">
        <ele>718</ele>
        <time>2009-11-14T11:51:46Z</time>
      </trkpt>
      <trkpt lat="45.28596" lon="5.42944">
        <ele>721</ele>
        <time>2009-11-14T11:52:01Z</time>
      </trkpt>
      <trkpt lat="45.28596" lon="5.42944">
        <ele>720</ele>
        <time>2009-11-14T11:52:07Z</time>
      </trkpt>
      <trkpt lat="45.28605" lon="5.42972">
        <ele>721</ele>
        <time>2009-11-14T11:52:11Z</time>
      </trkpt>
      <trkpt lat="45.28605" lon="5.42977">
        <ele>721</ele>
        <time>2009-11-14T11:52:13Z</time>
      </trkpt>
      <trkpt lat="45.28603" lon="5.43009">
        <ele>724</ele>
        <time>2009-11-14T11:52:26Z</time>
      </trkpt>
      <trkpt lat="45.28603" lon="5.43009">
        <ele>725</ele>
        <time>2009-11-14T11:52:30Z</time>
      </trkpt>
      <trkpt lat="45.286" lon="5.43029">
        <ele>725</ele>
        <time>2009-11-14T11:52:33Z</time>
      </trkpt>
      <trkpt lat="45.28599" lon="5.43041">
        <ele>726</ele>
        <time>2009-11-14T11:52:38Z</time>
      </trkpt>
      <trkpt lat="45.28597" lon="5.43075">
        <ele>728</ele>
        <time>2009-11-14T11:52:50Z</time>
      </trkpt>
      <trkpt lat="45.28597" lon="5.43082">
        <ele>728</ele>
        <time>2009-11-14T11:52:52Z</time>
      </trkpt>
      <trkpt lat="45.28597" lon="5.43087">
        <ele>729</ele>
        <time>2009-11-14T11:52:54Z</time>
      </trkpt>
      <trkpt lat="45.28603" lon="5.43112">
        <ele>731</ele>
        <time>2009-11-14T11:53:03Z</time>
      </trkpt>
      <trkpt lat="45.28608" lon="5.43127">
        <ele>732</ele>
        <time>2009-11-14T11:53:08Z</time>
      </trkpt>
      <trkpt lat="45.28606" lon="5.43143">
        <ele>732</ele>
        <time>2009-11-14T11:53:13Z</time>
      </trkpt>
      <trkpt lat="45.2861" lon="5.43162">
        <ele>733</ele>
        <time>2009-11-14T11:53:19Z</time>
      </trkpt>
      <trkpt lat="45.28611" lon="5.43172">
        <ele>733</ele>
        <time>2009-11-14T11:53:23Z</time>
      </trkpt>
      <trkpt lat="45.28612" lon="5.43177">
        <ele>733</ele>
        <time>2009-11-14T11:53:25Z</time>
      </trkpt>
      <trkpt lat="45.28612" lon="5.43184">
        <ele>732</ele>
        <time>2009-11-14T11:53:28Z</time>
      </trkpt>
      <trkpt lat="45.28613" lon="5.43189">
        <ele>732</ele>
        <time>2009-11-14T11:53:30Z</time>
      </trkpt>
      <trkpt lat="45.28612" lon="5.43198">
        <ele>732</ele>
        <time>2009-11-14T11:53:34Z</time>
      </trkpt>
      <trkpt lat="45.28616" lon="5.43203">
        <ele>732</ele>
        <time>2009-11-14T11:53:36Z</time>
      </trkpt>
      <trkpt lat="45.28618" lon="5.43215">
        <ele>732</ele>
        <time>2009-11-14T11:53:40Z</time>
      </trkpt>
      <trkpt lat="45.28617" lon="5.43226">
        <ele>732</ele>
        <time>2009-11-14T11:53:44Z</time>
      </trkpt>
      <trkpt lat="45.28614" lon="5.43234">
        <ele>731</ele>
        <time>2009-11-14T11:53:47Z</time>
      </trkpt>
      <trkpt lat="45.28611" lon="5.4326">
        <ele>728</ele>
        <time>2009-11-14T11:53:53Z</time>
      </trkpt>
      <trkpt lat="45.28612" lon="5.43264">
        <ele>727</ele>
        <time>2009-11-14T11:53:54Z</time>
      </trkpt>
      <trkpt lat="45.28618" lon="5.43273">
        <ele>724</ele>
        <time>2009-11-14T11:53:57Z</time>
      </trkpt>
      <trkpt lat="45.28627" lon="5.43279">
        <ele>722</ele>
        <time>2009-11-14T11:53:59Z</time>
      </trkpt>
      <trkpt lat="45.28641" lon="5.43278">
        <ele>721</ele>
        <time>2009-11-14T11:54:01Z</time>
      </trkpt>
      <trkpt lat="45.28662" lon="5.43281">
        <ele>719</ele>
        <time>2009-11-14T11:54:04Z</time>
      </trkpt>
      <trkpt lat="45.28721" lon="5.43258">
        <ele>718</ele>
        <time>2009-11-14T11:54:14Z</time>
      </trkpt>
      <trkpt lat="45.28754" lon="5.43245">
        <ele>720</ele>
        <time>2009-11-14T11:54:24Z</time>
      </trkpt>
      <trkpt lat="45.2878" lon="5.43222">
        <ele>724</ele>
        <time>2009-11-14T11:54:38Z</time>
      </trkpt>
      <trkpt lat="45.28817" lon="5.43199">
        <ele>727</ele>
        <time>2009-11-14T11:54:57Z</time>
      </trkpt>
      <trkpt lat="45.28841" lon="5.4318">
        <ele>730</ele>
        <time>2009-11-14T11:55:11Z</time>
      </trkpt>
      <trkpt lat="45.28846" lon="5.43175">
        <ele>732</ele>
        <time>2009-11-14T11:55:15Z</time>
      </trkpt>
      <trkpt lat="45.28849" lon="5.43173">
        <ele>732</ele>
        <time>2009-11-14T11:55:17Z</time>
      </trkpt>
      <trkpt lat="45.28857" lon="5.43168">
        <ele>733</ele>
        <time>2009-11-14T11:55:21Z</time>
      </trkpt>
      <trkpt lat="45.28882" lon="5.43161">
        <ele>735</ele>
        <time>2009-11-14T11:55:32Z</time>
      </trkpt>
      <trkpt lat="45.28888" lon="5.43159">
        <ele>736</ele>
        <time>2009-11-14T11:55:38Z</time>
      </trkpt>
      <trkpt lat="45.28909" lon="5.43153">
        <ele>739</ele>
        <time>2009-11-14T11:55:49Z</time>
      </trkpt>
      <trkpt lat="45.28921" lon="5.4315">
        <ele>740</ele>
        <time>2009-11-14T11:55:54Z</time>
      </trkpt>
      <trkpt lat="45.28956" lon="5.43138">
        <ele>742</ele>
        <time>2009-11-14T11:56:07Z</time>
      </trkpt>
      <trkpt lat="45.28958" lon="5.43137">
        <ele>743</ele>
        <time>2009-11-14T11:56:08Z</time>
      </trkpt>
      <trkpt lat="45.28966" lon="5.43133">
        <ele>743</ele>
        <time>2009-11-14T11:56:12Z</time>
      </trkpt>
      <trkpt lat="45.28989" lon="5.43122">
        <ele>744</ele>
        <time>2009-11-14T11:56:21Z</time>
      </trkpt>
      <trkpt lat="45.29012" lon="5.43115">
        <ele>744</ele>
        <time>2009-11-14T11:56:30Z</time>
      </trkpt>
      <trkpt lat="45.2902" lon="5.43113">
        <ele>744</ele>
        <time>2009-11-14T11:56:32Z</time>
      </trkpt>
      <trkpt lat="45.29038" lon="5.4311">
        <ele>746</ele>
        <time>2009-11-14T11:56:42Z</time>
      </trkpt>
      <trkpt lat="45.29075" lon="5.43128">
        <ele>748</ele>
        <time>2009-11-14T11:56:56Z</time>
      </trkpt>
      <trkpt lat="45.29136" lon="5.43168">
        <ele>750</ele>
        <time>2009-11-14T11:57:11Z</time>
      </trkpt>
      <trkpt lat="45.29164" lon="5.43223">
        <ele>752</ele>
        <time>2009-11-14T11:57:22Z</time>
      </trkpt>
      <trkpt lat="45.29162" lon="5.43253">
        <ele>751</ele>
        <time>2009-11-14T11:57:31Z</time>
      </trkpt>
      <trkpt lat="45.29177" lon="5.43266">
        <ele>752</ele>
        <time>2009-11-14T11:57:35Z</time>
      </trkpt>
      <trkpt lat="45.29154" lon="5.43272">
        <ele>751</ele>
        <time>2009-11-14T11:57:40Z</time>
      </trkpt>
      <trkpt lat="45.29189" lon="5.43323">
        <ele>749</ele>
        <time>2009-11-14T11:57:49Z</time>
      </trkpt>
      <trkpt lat="45.29198" lon="5.43367">
        <ele>746</ele>
        <time>2009-11-14T11:57:56Z</time>
      </trkpt>
      <trkpt lat="45.29199" lon="5.4337">
        <ele>745</ele>
        <time>2009-11-14T11:57:57Z</time>
      </trkpt>
      <trkpt lat="45.29206" lon="5.43389">
        <ele>743</ele>
        <time>2009-11-14T11:58:00Z</time>
      </trkpt>
      <trkpt lat="45.29213" lon="5.43407">
        <ele>740</ele>
        <time>2009-11-14T11:58:03Z</time>
      </trkpt>
      <trkpt lat="45.29223" lon="5.4343">
        <ele>736</ele>
        <time>2009-11-14T11:58:07Z</time>
      </trkpt>
      <trkpt lat="45.29227" lon="5.43439">
        <ele>733</ele>
        <time>2009-11-14T11:58:09Z</time>
      </trkpt>
      <trkpt lat="45.2924" lon="5.43467">
        <ele>729</ele>
        <time>2009-11-14T11:58:13Z</time>
      </trkpt>
      <trkpt lat="45.29256" lon="5.43502">
        <ele>724</ele>
        <time>2009-11-14T11:58:17Z</time>
      </trkpt>
      <trkpt lat="45.29261" lon="5.43518">
        <ele>721</ele>
        <time>2009-11-14T11:58:20Z</time>
      </trkpt>
      <trkpt lat="45.29268" lon="5.43538">
        <ele>716</ele>
        <time>2009-11-14T11:58:23Z</time>
      </trkpt>
      <trkpt lat="45.29272" lon="5.43552">
        <ele>715</ele>
        <time>2009-11-14T11:58:25Z</time>
      </trkpt>
      <trkpt lat="45.29288" lon="5.43584">
        <ele>713</ele>
        <time>2009-11-14T11:58:33Z</time>
      </trkpt>
      <trkpt lat="45.29288" lon="5.43584">
        <ele>713</ele>
        <time>2009-11-14T11:59:24Z</time>
      </trkpt>
      <trkpt lat="45.29288" lon="5.43584">
        <ele>713</ele>
        <time>2009-11-14T12:00:04Z</time>
      </trkpt>
      <trkpt lat="45.29288" lon="5.43584">
        <ele>712</ele>
        <time>2009-11-14T12:00:08Z</time>
      </trkpt>
      <trkpt lat="45.29303" lon="5.43624">
        <ele>708</ele>
        <time>2009-11-14T12:00:16Z</time>
      </trkpt>
      <trkpt lat="45.29307" lon="5.4365">
        <ele>705</ele>
        <time>2009-11-14T12:00:22Z</time>
      </trkpt>
      <trkpt lat="45.29316" lon="5.43678">
        <ele>702</ele>
        <time>2009-11-14T12:00:28Z</time>
      </trkpt>
      <trkpt lat="45.29318" lon="5.4369">
        <ele>701</ele>
        <time>2009-11-14T12:00:30Z</time>
      </trkpt>
      <trkpt lat="45.29321" lon="5.4373">
        <ele>697</ele>
        <time>2009-11-14T12:00:38Z</time>
      </trkpt>
      <trkpt lat="45.29327" lon="5.43755">
        <ele>694</ele>
        <time>2009-11-14T12:00:43Z</time>
      </trkpt>
      <trkpt lat="45.29336" lon="5.43768">
        <ele>690</ele>
        <time>2009-11-14T12:00:48Z</time>
      </trkpt>
      <trkpt lat="45.2935" lon="5.43777">
        <ele>688</ele>
        <time>2009-11-14T12:00:51Z</time>
      </trkpt>
      <trkpt lat="45.29358" lon="5.43782">
        <ele>688</ele>
        <time>2009-11-14T12:00:53Z</time>
      </trkpt>
      <trkpt lat="45.29377" lon="5.4378">
        <ele>688</ele>
        <time>2009-11-14T12:00:58Z</time>
      </trkpt>
      <trkpt lat="45.29378" lon="5.43778">
        <ele>688</ele>
        <time>2009-11-14T12:01:00Z</time>
      </trkpt>
      <trkpt lat="45.29373" lon="5.43789">
        <ele>689</ele>
        <time>2009-11-14T12:01:11Z</time>
      </trkpt>
      <trkpt lat="45.29373" lon="5.43789">
        <ele>689</ele>
        <time>2009-11-14T12:01:15Z</time>
      </trkpt>
      <trkpt lat="45.29381" lon="5.43786">
        <ele>688</ele>
        <time>2009-11-14T12:01:25Z</time>
      </trkpt>
      <trkpt lat="45.29381" lon="5.43786">
        <ele>688</ele>
        <time>2009-11-14T12:01:40Z</time>
      </trkpt>
      <trkpt lat="45.29381" lon="5.43786">
        <ele>689</ele>
        <time>2009-11-14T12:02:36Z</time>
      </trkpt>
      <trkpt lat="45.29381" lon="5.43786">
        <ele>690</ele>
        <time>2009-11-14T12:13:11Z</time>
      </trkpt>
      <trkpt lat="45.29381" lon="5.43786">
        <ele>691</ele>
        <time>2009-11-14T12:14:03Z</time>
      </trkpt>
      <trkpt lat="45.29381" lon="5.43786">
        <ele>690</ele>
        <time>2009-11-14T12:14:29Z</time>
      </trkpt>
      <trkpt lat="45.29384" lon="5.43763">
        <ele>691</ele>
        <time>2009-11-14T12:14:36Z</time>
      </trkpt>
      <trkpt lat="45.29406" lon="5.43744">
        <ele>691</ele>
        <time>2009-11-14T12:14:46Z</time>
      </trkpt>
      <trkpt lat="45.29396" lon="5.43734">
        <ele>692</ele>
        <time>2009-11-14T12:14:52Z</time>
      </trkpt>
      <trkpt lat="45.29426" lon="5.43725">
        <ele>692</ele>
        <time>2009-11-14T12:15:07Z</time>
      </trkpt>
      <trkpt lat="45.29408" lon="5.43693">
        <ele>692</ele>
        <time>2009-11-14T12:15:19Z</time>
      </trkpt>
      <trkpt lat="45.29408" lon="5.43693">
        <ele>692</ele>
        <time>2009-11-14T12:15:22Z</time>
      </trkpt>
      <trkpt lat="45.29422" lon="5.43729">
        <ele>690</ele>
        <time>2009-11-14T12:15:33Z</time>
      </trkpt>
      <trkpt lat="45.29418" lon="5.43733">
        <ele>690</ele>
        <time>2009-11-14T12:15:36Z</time>
      </trkpt>
      <trkpt lat="45.29414" lon="5.43736">
        <ele>690</ele>
        <time>2009-11-14T12:15:38Z</time>
      </trkpt>
      <trkpt lat="45.29394" lon="5.43783">
        <ele>689</ele>
        <time>2009-11-14T12:15:48Z</time>
      </trkpt>
      <trkpt lat="45.29373" lon="5.43789">
        <ele>689</ele>
        <time>2009-11-14T12:15:55Z</time>
      </trkpt>
      <trkpt lat="45.29369" lon="5.43801">
        <ele>688</ele>
        <time>2009-11-14T12:15:59Z</time>
      </trkpt>
      <trkpt lat="45.29369" lon="5.43809">
        <ele>689</ele>
        <time>2009-11-14T12:16:05Z</time>
      </trkpt>
      <trkpt lat="45.29401" lon="5.43784">
        <ele>692</ele>
        <time>2009-11-14T12:16:20Z</time>
      </trkpt>
      <trkpt lat="45.29413" lon="5.43783">
        <ele>694</ele>
        <time>2009-11-14T12:16:36Z</time>
      </trkpt>
      <trkpt lat="45.29413" lon="5.43783">
        <ele>693</ele>
        <time>2009-11-14T12:17:07Z</time>
      </trkpt>
      <trkpt lat="45.29386" lon="5.43784">
        <ele>690</ele>
        <time>2009-11-14T12:17:16Z</time>
      </trkpt>
      <trkpt lat="45.29381" lon="5.43786">
        <ele>689</ele>
        <time>2009-11-14T12:17:18Z</time>
      </trkpt>
      <trkpt lat="45.29369" lon="5.438">
        <ele>687</ele>
        <time>2009-11-14T12:17:26Z</time>
      </trkpt>
      <trkpt lat="45.29384" lon="5.43785">
        <ele>688</ele>
        <time>2009-11-14T12:17:37Z</time>
      </trkpt>
      <trkpt lat="45.29393" lon="5.43746">
        <ele>691</ele>
        <time>2009-11-14T12:17:50Z</time>
      </trkpt>
      <trkpt lat="45.29432" lon="5.43721">
        <ele>692</ele>
        <time>2009-11-14T12:18:06Z</time>
      </trkpt>
      <trkpt lat="45.29437" lon="5.43718">
        <ele>692</ele>
        <time>2009-11-14T12:18:09Z</time>
      </trkpt>
      <trkpt lat="45.29454" lon="5.43695">
        <ele>694</ele>
        <time>2009-11-14T12:18:23Z</time>
      </trkpt>
      <trkpt lat="45.29454" lon="5.43695">
        <ele>697</ele>
        <time>2009-11-14T12:18:33Z</time>
      </trkpt>
      <trkpt lat="45.29467" lon="5.43677">
        <ele>699</ele>
        <time>2009-11-14T12:18:45Z</time>
      </trkpt>
      <trkpt lat="45.29467" lon="5.43677">
        <ele>700</ele>
        <time>2009-11-14T12:18:49Z</time>
      </trkpt>
      <trkpt lat="45.29486" lon="5.43665">
        <ele>700</ele>
        <time>2009-11-14T12:18:53Z</time>
      </trkpt>
      <trkpt lat="45.29495" lon="5.43654">
        <ele>701</ele>
        <time>2009-11-14T12:18:58Z</time>
      </trkpt>
      <trkpt lat="45.29507" lon="5.43635">
        <ele>702</ele>
        <time>2009-11-14T12:19:05Z</time>
      </trkpt>
      <trkpt lat="45.29525" lon="5.43588">
        <ele>701</ele>
        <time>2009-11-14T12:19:17Z</time>
      </trkpt>
      <trkpt lat="45.29526" lon="5.43584">
        <ele>701</ele>
        <time>2009-11-14T12:19:18Z</time>
      </trkpt>
      <trkpt lat="45.29536" lon="5.43552">
        <ele>702</ele>
        <time>2009-11-14T12:19:26Z</time>
      </trkpt>
      <trkpt lat="45.29556" lon="5.43512">
        <ele>701</ele>
        <time>2009-11-14T12:19:37Z</time>
      </trkpt>
      <trkpt lat="45.29562" lon="5.43501">
        <ele>701</ele>
        <time>2009-11-14T12:19:40Z</time>
      </trkpt>
      <trkpt lat="45.29571" lon="5.43487">
        <ele>703</ele>
        <time>2009-11-14T12:19:45Z</time>
      </trkpt>
      <trkpt lat="45.29588" lon="5.43466">
        <ele>706</ele>
        <time>2009-11-14T12:19:55Z</time>
      </trkpt>
      <trkpt lat="45.29599" lon="5.43459">
        <ele>707</ele>
        <time>2009-11-14T12:20:10Z</time>
      </trkpt>
      <trkpt lat="45.29599" lon="5.43459">
        <ele>707</ele>
        <time>2009-11-14T12:20:34Z</time>
      </trkpt>
      <trkpt lat="45.29619" lon="5.43446">
        <ele>705</ele>
        <time>2009-11-14T12:20:40Z</time>
      </trkpt>
      <trkpt lat="45.29634" lon="5.43437">
        <ele>703</ele>
        <time>2009-11-14T12:20:46Z</time>
      </trkpt>
      <trkpt lat="45.29644" lon="5.43432">
        <ele>701</ele>
        <time>2009-11-14T12:20:51Z</time>
      </trkpt>
      <trkpt lat="45.29655" lon="5.43429">
        <ele>701</ele>
        <time>2009-11-14T12:20:54Z</time>
      </trkpt>
      <trkpt lat="45.29671" lon="5.43425">
        <ele>699</ele>
        <time>2009-11-14T12:20:57Z</time>
      </trkpt>
      <trkpt lat="45.2969" lon="5.43425">
        <ele>699</ele>
        <time>2009-11-14T12:21:00Z</time>
      </trkpt>
      <trkpt lat="45.29738" lon="5.43449">
        <ele>695</ele>
        <time>2009-11-14T12:21:08Z</time>
      </trkpt>
      <trkpt lat="45.29742" lon="5.43452">
        <ele>695</ele>
        <time>2009-11-14T12:21:09Z</time>
      </trkpt>
      <trkpt lat="45.29788" lon="5.43458">
        <ele>692</ele>
        <time>2009-11-14T12:21:13Z</time>
      </trkpt>
      <trkpt lat="45.29787" lon="5.43423">
        <ele>694</ele>
        <time>2009-11-14T12:21:16Z</time>
      </trkpt>
      <trkpt lat="45.29793" lon="5.43444">
        <ele>696</ele>
        <time>2009-11-14T12:21:21Z</time>
      </trkpt>
      <trkpt lat="45.29802" lon="5.43454">
        <ele>699</ele>
        <time>2009-11-14T12:21:25Z</time>
      </trkpt>
      <trkpt lat="45.29815" lon="5.43467">
        <ele>701</ele>
        <time>2009-11-14T12:21:35Z</time>
      </trkpt>
      <trkpt lat="45.29824" lon="5.43477">
        <ele>701</ele>
        <time>2009-11-14T12:21:41Z</time>
      </trkpt>
      <trkpt lat="45.29833" lon="5.4349">
        <ele>702</ele>
        <time>2009-11-14T12:21:48Z</time>
      </trkpt>
      <trkpt lat="45.29838" lon="5.43499">
        <ele>703</ele>
        <time>2009-11-14T12:21:53Z</time>
      </trkpt>
      <trkpt lat="45.29844" lon="5.43507">
        <ele>704</ele>
        <time>2009-11-14T12:21:57Z</time>
      </trkpt>
      <trkpt lat="45.2985" lon="5.43514">
        <ele>705</ele>
        <time>2009-11-14T12:22:02Z</time>
      </trkpt>
      <trkpt lat="45.29855" lon="5.4352">
        <ele>705</ele>
        <time>2009-11-14T12:22:04Z</time>
      </trkpt>
      <trkpt lat="45.29873" lon="5.43544">
        <ele>708</ele>
        <time>2009-11-14T12:22:18Z</time>
      </trkpt>
      <trkpt lat="45.2988" lon="5.43556">
        <ele>709</ele>
        <time>2009-11-14T12:22:24Z</time>
      </trkpt>
      <trkpt lat="45.29882" lon="5.43562">
        <ele>709</ele>
        <time>2009-11-14T12:22:27Z</time>
      </trkpt>
      <trkpt lat="45.29888" lon="5.43575">
        <ele>710</ele>
        <time>2009-11-14T12:22:32Z</time>
      </trkpt>
      <trkpt lat="45.2989" lon="5.43581">
        <ele>710</ele>
        <time>2009-11-14T12:22:34Z</time>
      </trkpt>
      <trkpt lat="45.29891" lon="5.43586">
        <ele>710</ele>
        <time>2009-11-14T12:22:36Z</time>
      </trkpt>
      <trkpt lat="45.29903" lon="5.43637">
        <ele>712</ele>
        <time>2009-11-14T12:22:53Z</time>
      </trkpt>
      <trkpt lat="45.29908" lon="5.43661">
        <ele>714</ele>
        <time>2009-11-14T12:23:01Z</time>
      </trkpt>
      <trkpt lat="45.29909" lon="5.43667">
        <ele>714</ele>
        <time>2009-11-14T12:23:03Z</time>
      </trkpt>
      <trkpt lat="45.29911" lon="5.43676">
        <ele>715</ele>
        <time>2009-11-14T12:23:06Z</time>
      </trkpt>
      <trkpt lat="45.29913" lon="5.43685">
        <ele>715</ele>
        <time>2009-11-14T12:23:09Z</time>
      </trkpt>
      <trkpt lat="45.29915" lon="5.43693">
        <ele>716</ele>
        <time>2009-11-14T12:23:12Z</time>
      </trkpt>
      <trkpt lat="45.29918" lon="5.43709">
        <ele>717</ele>
        <time>2009-11-14T12:23:19Z</time>
      </trkpt>
      <trkpt lat="45.2992" lon="5.43721">
        <ele>718</ele>
        <time>2009-11-14T12:23:24Z</time>
      </trkpt>
      <trkpt lat="45.29921" lon="5.43723">
        <ele>718</ele>
        <time>2009-11-14T12:23:26Z</time>
      </trkpt>
      <trkpt lat="45.29922" lon="5.43731">
        <ele>719</ele>
        <time>2009-11-14T12:23:30Z</time>
      </trkpt>
      <trkpt lat="45.29926" lon="5.43753">
        <ele>721</ele>
        <time>2009-11-14T12:23:39Z</time>
      </trkpt>
      <trkpt lat="45.29927" lon="5.43764">
        <ele>722</ele>
        <time>2009-11-14T12:23:43Z</time>
      </trkpt>
      <trkpt lat="45.29929" lon="5.43773">
        <ele>723</ele>
        <time>2009-11-14T12:23:50Z</time>
      </trkpt>
      <trkpt lat="45.29931" lon="5.43787">
        <ele>724</ele>
        <time>2009-11-14T12:23:54Z</time>
      </trkpt>
      <trkpt lat="45.29931" lon="5.43787">
        <ele>725</ele>
        <time>2009-11-14T12:23:58Z</time>
      </trkpt>
      <trkpt lat="45.2993" lon="5.43782">
        <ele>727</ele>
        <time>2009-11-14T12:24:06Z</time>
      </trkpt>
      <trkpt lat="45.2993" lon="5.43782">
        <ele>728</ele>
        <time>2009-11-14T12:24:23Z</time>
      </trkpt>
      <trkpt lat="45.2995" lon="5.43764">
        <ele>728</ele>
        <time>2009-11-14T12:24:40Z</time>
      </trkpt>
      <trkpt lat="45.29952" lon="5.43752">
        <ele>728</ele>
        <time>2009-11-14T12:24:45Z</time>
      </trkpt>
      <trkpt lat="45.29955" lon="5.43733">
        <ele>730</ele>
        <time>2009-11-14T12:24:54Z</time>
      </trkpt>
      <trkpt lat="45.29958" lon="5.43714">
        <ele>731</ele>
        <time>2009-11-14T12:25:03Z</time>
      </trkpt>
      <trkpt lat="45.29968" lon="5.43679">
        <ele>734</ele>
        <time>2009-11-14T12:25:17Z</time>
      </trkpt>
      <trkpt lat="45.2997" lon="5.43671">
        <ele>735</ele>
        <time>2009-11-14T12:25:21Z</time>
      </trkpt>
      <trkpt lat="45.29972" lon="5.43666">
        <ele>736</ele>
        <time>2009-11-14T12:25:25Z</time>
      </trkpt>
      <trkpt lat="45.29972" lon="5.43666">
        <ele>736</ele>
        <time>2009-11-14T12:25:27Z</time>
      </trkpt>
      <trkpt lat="45.29985" lon="5.43625">
        <ele>739</ele>
        <time>2009-11-14T12:25:41Z</time>
      </trkpt>
      <trkpt lat="45.29991" lon="5.43606">
        <ele>743</ele>
        <time>2009-11-14T12:25:53Z</time>
      </trkpt>
      <trkpt lat="45.29997" lon="5.43592">
        <ele>746</ele>
        <time>2009-11-14T12:26:02Z</time>
      </trkpt>
      <trkpt lat="45.29997" lon="5.43592">
        <ele>749</ele>
        <time>2009-11-14T12:26:14Z</time>
      </trkpt>
      <trkpt lat="45.29997" lon="5.43592">
        <ele>749</ele>
        <time>2009-11-14T12:26:15Z</time>
      </trkpt>
      <trkpt lat="45.30003" lon="5.43579">
        <ele>752</ele>
        <time>2009-11-14T12:26:29Z</time>
      </trkpt>
      <trkpt lat="45.30003" lon="5.43579">
        <ele>753</ele>
        <time>2009-11-14T12:26:32Z</time>
      </trkpt>
      <trkpt lat="45.30003" lon="5.43579">
        <ele>753</ele>
        <time>2009-11-14T12:26:43Z</time>
      </trkpt>
      <trkpt lat="45.30003" lon="5.43579">
        <ele>753</ele>
        <time>2009-11-14T12:27:36Z</time>
      </trkpt>
      <trkpt lat="45.30017" lon="5.43539">
        <ele>753</ele>
        <time>2009-11-14T12:27:41Z</time>
      </trkpt>
      <trkpt lat="45.30017" lon="5.4353">
        <ele>754</ele>
        <time>2009-11-14T12:27:51Z</time>
      </trkpt>
      <trkpt lat="45.30017" lon="5.4353">
        <ele>754</ele>
        <time>2009-11-14T12:27:54Z</time>
      </trkpt>
      <trkpt lat="45.30017" lon="5.43506">
        <ele>754</ele>
        <time>2009-11-14T12:27:59Z</time>
      </trkpt>
      <trkpt lat="45.30017" lon="5.43502">
        <ele>756</ele>
        <time>2009-11-14T12:28:05Z</time>
      </trkpt>
      <trkpt lat="45.30018" lon="5.43464">
        <ele>756</ele>
        <time>2009-11-14T12:28:20Z</time>
      </trkpt>
      <trkpt lat="45.3002" lon="5.43431">
        <ele>757</ele>
        <time>2009-11-14T12:28:31Z</time>
      </trkpt>
      <trkpt lat="45.3002" lon="5.43423">
        <ele>757</ele>
        <time>2009-11-14T12:28:34Z</time>
      </trkpt>
      <trkpt lat="45.30021" lon="5.43411">
        <ele>757</ele>
        <time>2009-11-14T12:28:38Z</time>
      </trkpt>
      <trkpt lat="45.30025" lon="5.43368">
        <ele>754</ele>
        <time>2009-11-14T12:28:49Z</time>
      </trkpt>
      <trkpt lat="45.30027" lon="5.4335">
        <ele>754</ele>
        <time>2009-11-14T12:28:52Z</time>
      </trkpt>
      <trkpt lat="45.30029" lon="5.43324">
        <ele>752</ele>
        <time>2009-11-14T12:28:56Z</time>
      </trkpt>
      <trkpt lat="45.30031" lon="5.43301">
        <ele>750</ele>
        <time>2009-11-14T12:28:59Z</time>
      </trkpt>
      <trkpt lat="45.30034" lon="5.43234">
        <ele>751</ele>
        <time>2009-11-14T12:29:11Z</time>
      </trkpt>
      <trkpt lat="45.30034" lon="5.43232">
        <ele>751</ele>
        <time>2009-11-14T12:29:12Z</time>
      </trkpt>
      <trkpt lat="45.30033" lon="5.43181">
        <ele>751</ele>
        <time>2009-11-14T12:29:26Z</time>
      </trkpt>
      <trkpt lat="45.30039" lon="5.43123">
        <ele>754</ele>
        <time>2009-11-14T12:29:42Z</time>
      </trkpt>
      <trkpt lat="45.30039" lon="5.43114">
        <ele>753</ele>
        <time>2009-11-14T12:29:46Z</time>
      </trkpt>
      <trkpt lat="45.3004" lon="5.43104">
        <ele>754</ele>
        <time>2009-11-14T12:29:49Z</time>
      </trkpt>
      <trkpt lat="45.30043" lon="5.4308">
        <ele>753</ele>
        <time>2009-11-14T12:30:02Z</time>
      </trkpt>
      <trkpt lat="45.30042" lon="5.43068">
        <ele>753</ele>
        <time>2009-11-14T12:30:07Z</time>
      </trkpt>
      <trkpt lat="45.30046" lon="5.43063">
        <ele>752</ele>
        <time>2009-11-14T12:30:09Z</time>
      </trkpt>
      <trkpt lat="45.30053" lon="5.42982">
        <ele>753</ele>
        <time>2009-11-14T12:30:31Z</time>
      </trkpt>
      <trkpt lat="45.30054" lon="5.42976">
        <ele>753</ele>
        <time>2009-11-14T12:30:33Z</time>
      </trkpt>
      <trkpt lat="45.30073" lon="5.42924">
        <ele>753</ele>
        <time>2009-11-14T12:30:51Z</time>
      </trkpt>
      <trkpt lat="45.30078" lon="5.42916">
        <ele>753</ele>
        <time>2009-11-14T12:30:54Z</time>
      </trkpt>
      <trkpt lat="45.30094" lon="5.42869">
        <ele>753</ele>
        <time>2009-11-14T12:31:09Z</time>
      </trkpt>
      <trkpt lat="45.30112" lon="5.42828">
        <ele>753</ele>
        <time>2009-11-14T12:31:22Z</time>
      </trkpt>
      <trkpt lat="45.30135" lon="5.42808">
        <ele>755</ele>
        <time>2009-11-14T12:31:33Z</time>
      </trkpt>
      <trkpt lat="45.30162" lon="5.42801">
        <ele>754</ele>
        <time>2009-11-14T12:31:45Z</time>
      </trkpt>
      <trkpt lat="45.30175" lon="5.42793">
        <ele>753</ele>
        <time>2009-11-14T12:31:48Z</time>
      </trkpt>
      <trkpt lat="45.30179" lon="5.42793">
        <ele>753</ele>
        <time>2009-11-14T12:31:50Z</time>
      </trkpt>
      <trkpt lat="45.30194" lon="5.42794">
        <ele>753</ele>
        <time>2009-11-14T12:31:55Z</time>
      </trkpt>
      <trkpt lat="45.30229" lon="5.42801">
        <ele>755</ele>
        <time>2009-11-14T12:32:05Z</time>
      </trkpt>
      <trkpt lat="45.30232" lon="5.42803">
        <ele>754</ele>
        <time>2009-11-14T12:32:06Z</time>
      </trkpt>
      <trkpt lat="45.30255" lon="5.42816">
        <ele>754</ele>
        <time>2009-11-14T12:32:14Z</time>
      </trkpt>
      <trkpt lat="45.30269" lon="5.42809">
        <ele>753</ele>
        <time>2009-11-14T12:32:18Z</time>
      </trkpt>
      <trkpt lat="45.30306" lon="5.42776">
        <ele>751</ele>
        <time>2009-11-14T12:32:29Z</time>
      </trkpt>
      <trkpt lat="45.30331" lon="5.42742">
        <ele>749</ele>
        <time>2009-11-14T12:32:39Z</time>
      </trkpt>
      <trkpt lat="45.30339" lon="5.42745">
        <ele>749</ele>
        <time>2009-11-14T12:32:40Z</time>
      </trkpt>
      <trkpt lat="45.30366" lon="5.42719">
        <ele>747</ele>
        <time>2009-11-14T12:32:45Z</time>
      </trkpt>
      <trkpt lat="45.30403" lon="5.42713">
        <ele>744</ele>
        <time>2009-11-14T12:32:50Z</time>
      </trkpt>
      <trkpt lat="45.3042" lon="5.4272">
        <ele>742</ele>
        <time>2009-11-14T12:32:52Z</time>
      </trkpt>
      <trkpt lat="45.30459" lon="5.42758">
        <ele>737</ele>
        <time>2009-11-14T12:32:57Z</time>
      </trkpt>
      <trkpt lat="45.30475" lon="5.42771">
        <ele>735</ele>
        <time>2009-11-14T12:32:59Z</time>
      </trkpt>
      <trkpt lat="45.30516" lon="5.42786">
        <ele>730</ele>
        <time>2009-11-14T12:33:04Z</time>
      </trkpt>
      <trkpt lat="45.30548" lon="5.42804">
        <ele>725</ele>
        <time>2009-11-14T12:33:07Z</time>
      </trkpt>
      <trkpt lat="45.30558" lon="5.42815">
        <ele>724</ele>
        <time>2009-11-14T12:33:08Z</time>
      </trkpt>
      <trkpt lat="45.30576" lon="5.42835">
        <ele>722</ele>
        <time>2009-11-14T12:33:10Z</time>
      </trkpt>
      <trkpt lat="45.306" lon="5.42879">
        <ele>722</ele>
        <time>2009-11-14T12:33:14Z</time>
      </trkpt>
      <trkpt lat="45.3061" lon="5.42896">
        <ele>723</ele>
        <time>2009-11-14T12:33:16Z</time>
      </trkpt>
      <trkpt lat="45.30619" lon="5.42907">
        <ele>724</ele>
        <time>2009-11-14T12:33:18Z</time>
      </trkpt>
      <trkpt lat="45.30637" lon="5.42922">
        <ele>724</ele>
        <time>2009-11-14T12:33:22Z</time>
      </trkpt>
      <trkpt lat="45.3067" lon="5.42944">
        <ele>724</ele>
        <time>2009-11-14T12:33:33Z</time>
      </trkpt>
      <trkpt lat="45.30696" lon="5.42952">
        <ele>723</ele>
        <time>2009-11-14T12:33:41Z</time>
      </trkpt>
      <trkpt lat="45.30773" lon="5.42963">
        <ele>720</ele>
        <time>2009-11-14T12:33:56Z</time>
      </trkpt>
      <trkpt lat="45.30779" lon="5.42966">
        <ele>719</ele>
        <time>2009-11-14T12:33:57Z</time>
      </trkpt>
      <trkpt lat="45.30793" lon="5.42977">
        <ele>718</ele>
        <time>2009-11-14T12:34:00Z</time>
      </trkpt>
      <trkpt lat="45.30801" lon="5.42988">
        <ele>717</ele>
        <time>2009-11-14T12:34:02Z</time>
      </trkpt>
      <trkpt lat="45.30807" lon="5.43002">
        <ele>717</ele>
        <time>2009-11-14T12:34:05Z</time>
      </trkpt>
      <trkpt lat="45.30808" lon="5.43005">
        <ele>716</ele>
        <time>2009-11-14T12:34:18Z</time>
      </trkpt>
      <trkpt lat="45.3081" lon="5.43012">
        <ele>716</ele>
        <time>2009-11-14T12:34:46Z</time>
      </trkpt>
      <trkpt lat="45.30816" lon="5.4304">
        <ele>713</ele>
        <time>2009-11-14T12:34:52Z</time>
      </trkpt>
      <trkpt lat="45.30822" lon="5.43068">
        <ele>710</ele>
        <time>2009-11-14T12:34:56Z</time>
      </trkpt>
      <trkpt lat="45.30823" lon="5.43075">
        <ele>709</ele>
        <time>2009-11-14T12:34:57Z</time>
      </trkpt>
      <trkpt lat="45.30829" lon="5.43107">
        <ele>705</ele>
        <time>2009-11-14T12:35:01Z</time>
      </trkpt>
      <trkpt lat="45.30846" lon="5.4314">
        <ele>700</ele>
        <time>2009-11-14T12:35:05Z</time>
      </trkpt>
      <trkpt lat="45.3086" lon="5.43168">
        <ele>696</ele>
        <time>2009-11-14T12:35:09Z</time>
      </trkpt>
      <trkpt lat="45.30869" lon="5.43186">
        <ele>694</ele>
        <time>2009-11-14T12:35:12Z</time>
      </trkpt>
      <trkpt lat="45.30888" lon="5.43216">
        <ele>688</ele>
        <time>2009-11-14T12:35:20Z</time>
      </trkpt>
      <trkpt lat="45.30892" lon="5.43218">
        <ele>688</ele>
        <time>2009-11-14T12:35:21Z</time>
      </trkpt>
      <trkpt lat="45.30908" lon="5.43218">
        <ele>685</ele>
        <time>2009-11-14T12:35:25Z</time>
      </trkpt>
      <trkpt lat="45.3093" lon="5.43213">
        <ele>680</ele>
        <time>2009-11-14T12:35:28Z</time>
      </trkpt>
      <trkpt lat="45.30945" lon="5.432">
        <ele>677</ele>
        <time>2009-11-14T12:35:30Z</time>
      </trkpt>
      <trkpt lat="45.30956" lon="5.43182">
        <ele>674</ele>
        <time>2009-11-14T12:35:32Z</time>
      </trkpt>
      <trkpt lat="45.30973" lon="5.43152">
        <ele>668</ele>
        <time>2009-11-14T12:35:35Z</time>
      </trkpt>
      <trkpt lat="45.30993" lon="5.43117">
        <ele>664</ele>
        <time>2009-11-14T12:35:38Z</time>
      </trkpt>
      <trkpt lat="45.31009" lon="5.43094">
        <ele>661</ele>
        <time>2009-11-14T12:35:40Z</time>
      </trkpt>
      <trkpt lat="45.31034" lon="5.43061">
        <ele>657</ele>
        <time>2009-11-14T12:35:43Z</time>
      </trkpt>
      <trkpt lat="45.31042" lon="5.43051">
        <ele>657</ele>
        <time>2009-11-14T12:35:44Z</time>
      </trkpt>
      <trkpt lat="45.31085" lon="5.43045">
        <ele>653</ele>
        <time>2009-11-14T12:35:50Z</time>
      </trkpt>
      <trkpt lat="45.31098" lon="5.4305">
        <ele>649</ele>
        <time>2009-11-14T12:35:52Z</time>
      </trkpt>
      <trkpt lat="45.31124" lon="5.43055">
        <ele>648</ele>
        <time>2009-11-14T12:35:55Z</time>
      </trkpt>
      <trkpt lat="45.31138" lon="5.43055">
        <ele>646</ele>
        <time>2009-11-14T12:35:57Z</time>
      </trkpt>
      <trkpt lat="45.31165" lon="5.43055">
        <ele>641</ele>
        <time>2009-11-14T12:36:00Z</time>
      </trkpt>
      <trkpt lat="45.31196" lon="5.43061">
        <ele>638</ele>
        <time>2009-11-14T12:36:04Z</time>
      </trkpt>
      <trkpt lat="45.31203" lon="5.4306">
        <ele>637</ele>
        <time>2009-11-14T12:36:05Z</time>
      </trkpt>
      <trkpt lat="45.31231" lon="5.4305">
        <ele>632</ele>
        <time>2009-11-14T12:36:09Z</time>
      </trkpt>
      <trkpt lat="45.31244" lon="5.43038">
        <ele>628</ele>
        <time>2009-11-14T12:36:11Z</time>
      </trkpt>
      <trkpt lat="45.31266" lon="5.43016">
        <ele>623</ele>
        <time>2009-11-14T12:36:15Z</time>
      </trkpt>
      <trkpt lat="45.31282" lon="5.43014">
        <ele>620</ele>
        <time>2009-11-14T12:36:17Z</time>
      </trkpt>
      <trkpt lat="45.31309" lon="5.43019">
        <ele>614</ele>
        <time>2009-11-14T12:36:21Z</time>
      </trkpt>
      <trkpt lat="45.31316" lon="5.43036">
        <ele>613</ele>
        <time>2009-11-14T12:36:22Z</time>
      </trkpt>
      <trkpt lat="45.3135" lon="5.43023">
        <ele>610</ele>
        <time>2009-11-14T12:36:26Z</time>
      </trkpt>
      <trkpt lat="45.31366" lon="5.43017">
        <ele>607</ele>
        <time>2009-11-14T12:36:28Z</time>
      </trkpt>
      <trkpt lat="45.31392" lon="5.43008">
        <ele>604</ele>
        <time>2009-11-14T12:36:31Z</time>
      </trkpt>
      <trkpt lat="45.31422" lon="5.43006">
        <ele>598</ele>
        <time>2009-11-14T12:36:35Z</time>
      </trkpt>
      <trkpt lat="45.31457" lon="5.43007">
        <ele>593</ele>
        <time>2009-11-14T12:36:39Z</time>
      </trkpt>
      <trkpt lat="45.31478" lon="5.43007">
        <ele>590</ele>
        <time>2009-11-14T12:36:42Z</time>
      </trkpt>
      <trkpt lat="45.31501" lon="5.43003">
        <ele>586</ele>
        <time>2009-11-14T12:36:46Z</time>
      </trkpt>
      <trkpt lat="45.31525" lon="5.43003">
        <ele>583</ele>
        <time>2009-11-14T12:36:51Z</time>
      </trkpt>
      <trkpt lat="45.31547" lon="5.43004">
        <ele>578</ele>
        <time>2009-11-14T12:36:55Z</time>
      </trkpt>
      <trkpt lat="45.31559" lon="5.42996">
        <ele>577</ele>
        <time>2009-11-14T12:36:57Z</time>
      </trkpt>
      <trkpt lat="45.31575" lon="5.42968">
        <ele>572</ele>
        <time>2009-11-14T12:37:01Z</time>
      </trkpt>
      <trkpt lat="45.3158" lon="5.42962">
        <ele>571</ele>
        <time>2009-11-14T12:37:02Z</time>
      </trkpt>
      <trkpt lat="45.31611" lon="5.4293">
        <ele>565</ele>
        <time>2009-11-14T12:37:07Z</time>
      </trkpt>
      <trkpt lat="45.31617" lon="5.42926">
        <ele>565</ele>
        <time>2009-11-14T12:37:08Z</time>
      </trkpt>
      <trkpt lat="45.31636" lon="5.42922">
        <ele>563</ele>
        <time>2009-11-14T12:37:12Z</time>
      </trkpt>
      <trkpt lat="45.31638" lon="5.42922">
        <ele>564</ele>
        <time>2009-11-14T12:37:20Z</time>
      </trkpt>
      <trkpt lat="45.31653" lon="5.42878">
        <ele>561</ele>
        <time>2009-11-14T12:37:30Z</time>
      </trkpt>
      <trkpt lat="45.31649" lon="5.42862">
        <ele>561</ele>
        <time>2009-11-14T12:37:34Z</time>
      </trkpt>
      <trkpt lat="45.31659" lon="5.42901">
        <ele>562</ele>
        <time>2009-11-14T12:37:37Z</time>
      </trkpt>
      <trkpt lat="45.3165" lon="5.42866">
        <ele>563</ele>
        <time>2009-11-14T12:37:38Z</time>
      </trkpt>
      <trkpt lat="45.31656" lon="5.42891">
        <ele>562</ele>
        <time>2009-11-14T12:37:44Z</time>
      </trkpt>
      <trkpt lat="45.31667" lon="5.42898">
        <ele>562</ele>
        <time>2009-11-14T12:37:49Z</time>
      </trkpt>
      <trkpt lat="45.31669" lon="5.42898">
        <ele>562</ele>
        <time>2009-11-14T12:37:53Z</time>
      </trkpt>
      <trkpt lat="45.31669" lon="5.42898">
        <ele>562</ele>
        <time>2009-11-14T12:37:56Z</time>
      </trkpt>
      <trkpt lat="45.31662" lon="5.429">
        <ele>562</ele>
        <time>2009-11-14T12:38:02Z</time>
      </trkpt>
      <trkpt lat="45.31657" lon="5.42892">
        <ele>562</ele>
        <time>2009-11-14T12:38:10Z</time>
      </trkpt>
      <trkpt lat="45.31671" lon="5.42868">
        <ele>561</ele>
        <time>2009-11-14T12:38:12Z</time>
      </trkpt>
      <trkpt lat="45.31696" lon="5.42866">
        <ele>558</ele>
        <time>2009-11-14T12:38:17Z</time>
      </trkpt>
      <trkpt lat="45.31729" lon="5.42896">
        <ele>554</ele>
        <time>2009-11-14T12:38:23Z</time>
      </trkpt>
      <trkpt lat="45.31742" lon="5.42907">
        <ele>551</ele>
        <time>2009-11-14T12:38:25Z</time>
      </trkpt>
      <trkpt lat="45.31783" lon="5.42917">
        <ele>547</ele>
        <time>2009-11-14T12:38:30Z</time>
      </trkpt>
      <trkpt lat="45.31835" lon="5.42908">
        <ele>544</ele>
        <time>2009-11-14T12:38:36Z</time>
      </trkpt>
      <trkpt lat="45.31859" lon="5.42921">
        <ele>541</ele>
        <time>2009-11-14T12:38:40Z</time>
      </trkpt>
      <trkpt lat="45.31861" lon="5.42932">
        <ele>540</ele>
        <time>2009-11-14T12:38:41Z</time>
      </trkpt>
      <trkpt lat="45.3189" lon="5.42954">
        <ele>534</ele>
        <time>2009-11-14T12:38:45Z</time>
      </trkpt>
      <trkpt lat="45.31906" lon="5.42963">
        <ele>533</ele>
        <time>2009-11-14T12:38:47Z</time>
      </trkpt>
      <trkpt lat="45.31926" lon="5.42977">
        <ele>531</ele>
        <time>2009-11-14T12:38:50Z</time>
      </trkpt>
      <trkpt lat="45.3194" lon="5.42986">
        <ele>530</ele>
        <time>2009-11-14T12:38:58Z</time>
      </trkpt>
      <trkpt lat="45.3194" lon="5.42986">
        <ele>529</ele>
        <time>2009-11-14T12:39:12Z</time>
      </trkpt>
      <trkpt lat="45.31972" lon="5.42989">
        <ele>526</ele>
        <time>2009-11-14T12:39:19Z</time>
      </trkpt>
      <trkpt lat="45.31978" lon="5.42987">
        <ele>525</ele>
        <time>2009-11-14T12:39:21Z</time>
      </trkpt>
      <trkpt lat="45.31989" lon="5.42986">
        <ele>525</ele>
        <time>2009-11-14T12:39:28Z</time>
      </trkpt>
      <trkpt lat="45.31999" lon="5.42988">
        <ele>523</ele>
        <time>2009-11-14T12:39:38Z</time>
      </trkpt>
      <trkpt lat="45.32025" lon="5.42992">
        <ele>521</ele>
        <time>2009-11-14T12:39:50Z</time>
      </trkpt>
      <trkpt lat="45.32044" lon="5.43014">
        <ele>518</ele>
        <time>2009-11-14T12:40:02Z</time>
      </trkpt>
      <trkpt lat="45.32065" lon="5.43037">
        <ele>515</ele>
        <time>2009-11-14T12:40:16Z</time>
      </trkpt>
      <trkpt lat="45.32086" lon="5.43048">
        <ele>513</ele>
        <time>2009-11-14T12:40:29Z</time>
      </trkpt>
      <trkpt lat="45.32096" lon="5.43053">
        <ele>511</ele>
        <time>2009-11-14T12:40:41Z</time>
      </trkpt>
      <trkpt lat="45.32096" lon="5.43053">
        <ele>510</ele>
        <time>2009-11-14T12:40:52Z</time>
      </trkpt>
      <trkpt lat="45.32124" lon="5.43075">
        <ele>507</ele>
        <time>2009-11-14T12:41:04Z</time>
      </trkpt>
      <trkpt lat="45.32127" lon="5.43078">
        <ele>507</ele>
        <time>2009-11-14T12:41:08Z</time>
      </trkpt>
      <trkpt lat="45.32121" lon="5.43093">
        <ele>506</ele>
        <time>2009-11-14T12:41:12Z</time>
      </trkpt>
      <trkpt lat="45.32129" lon="5.4308">
        <ele>506</ele>
        <time>2009-11-14T12:41:23Z</time>
      </trkpt>
      <trkpt lat="45.32129" lon="5.4308">
        <ele>506</ele>
        <time>2009-11-14T12:41:38Z</time>
      </trkpt>
      <trkpt lat="45.32137" lon="5.43088">
        <ele>503</ele>
        <time>2009-11-14T12:41:43Z</time>
      </trkpt>
      <trkpt lat="45.32143" lon="5.43082">
        <ele>501</ele>
        <time>2009-11-14T12:41:53Z</time>
      </trkpt>
      <trkpt lat="45.32154" lon="5.43075">
        <ele>500</ele>
        <time>2009-11-14T12:41:57Z</time>
      </trkpt>
      <trkpt lat="45.32176" lon="5.43116">
        <ele>497</ele>
        <time>2009-11-14T12:42:06Z</time>
      </trkpt>
      <trkpt lat="45.32179" lon="5.43118">
        <ele>496</ele>
        <time>2009-11-14T12:42:07Z</time>
      </trkpt>
      <trkpt lat="45.32208" lon="5.43127">
        <ele>493</ele>
        <time>2009-11-14T12:42:19Z</time>
      </trkpt>
      <trkpt lat="45.32213" lon="5.4313">
        <ele>492</ele>
        <time>2009-11-14T12:42:21Z</time>
      </trkpt>
      <trkpt lat="45.32227" lon="5.4314">
        <ele>490</ele>
        <time>2009-11-14T12:42:28Z</time>
      </trkpt>
      <trkpt lat="45.32227" lon="5.43144">
        <ele>488</ele>
        <time>2009-11-14T12:42:29Z</time>
      </trkpt>
      <trkpt lat="45.32226" lon="5.4315">
        <ele>488</ele>
        <time>2009-11-14T12:42:31Z</time>
      </trkpt>
      <trkpt lat="45.32221" lon="5.4318">
        <ele>485</ele>
        <time>2009-11-14T12:42:39Z</time>
      </trkpt>
      <trkpt lat="45.32219" lon="5.43195">
        <ele>483</ele>
        <time>2009-11-14T12:42:43Z</time>
      </trkpt>
      <trkpt lat="45.32219" lon="5.43203">
        <ele>482</ele>
        <time>2009-11-14T12:42:45Z</time>
      </trkpt>
      <trkpt lat="45.32233" lon="5.43236">
        <ele>478</ele>
        <time>2009-11-14T12:42:53Z</time>
      </trkpt>
      <trkpt lat="45.32247" lon="5.43257">
        <ele>475</ele>
        <time>2009-11-14T12:42:57Z</time>
      </trkpt>
      <trkpt lat="45.32251" lon="5.43263">
        <ele>475</ele>
        <time>2009-11-14T12:42:58Z</time>
      </trkpt>
      <trkpt lat="45.32282" lon="5.43281">
        <ele>473</ele>
        <time>2009-11-14T12:43:04Z</time>
      </trkpt>
      <trkpt lat="45.32328" lon="5.43279">
        <ele>474</ele>
        <time>2009-11-14T12:43:17Z</time>
      </trkpt>
      <trkpt lat="45.32355" lon="5.4326">
        <ele>477</ele>
        <time>2009-11-14T12:43:31Z</time>
      </trkpt>
      <trkpt lat="45.32378" lon="5.4324">
        <ele>481</ele>
        <time>2009-11-14T12:43:45Z</time>
      </trkpt>
      <trkpt lat="45.32404" lon="5.43228">
        <ele>483</ele>
        <time>2009-11-14T12:44:00Z</time>
      </trkpt>
      <trkpt lat="45.32419" lon="5.43225">
        <ele>484</ele>
        <time>2009-11-14T12:44:07Z</time>
      </trkpt>
      <trkpt lat="45.32428" lon="5.43238">
        <ele>484</ele>
        <time>2009-11-14T12:44:11Z</time>
      </trkpt>
      <trkpt lat="45.32431" lon="5.43299">
        <ele>487</ele>
        <time>2009-11-14T12:44:31Z</time>
      </trkpt>
      <trkpt lat="45.32431" lon="5.43306">
        <ele>488</ele>
        <time>2009-11-14T12:44:43Z</time>
      </trkpt>
      <trkpt lat="45.32431" lon="5.43306">
        <ele>487</ele>
        <time>2009-11-14T12:45:00Z</time>
      </trkpt>
      <trkpt lat="45.32431" lon="5.43316">
        <ele>488</ele>
        <time>2009-11-14T12:45:04Z</time>
      </trkpt>
      <trkpt lat="45.32431" lon="5.43384">
        <ele>490</ele>
        <time>2009-11-14T12:45:24Z</time>
      </trkpt>
      <trkpt lat="45.32443" lon="5.43451">
        <ele>493</ele>
        <time>2009-11-14T12:45:43Z</time>
      </trkpt>
      <trkpt lat="45.32451" lon="5.43512">
        <ele>494</ele>
        <time>2009-11-14T12:45:58Z</time>
      </trkpt>
      <trkpt lat="45.32465" lon="5.43599">
        <ele>496</ele>
        <time>2009-11-14T12:46:20Z</time>
      </trkpt>
      <trkpt lat="45.32462" lon="5.4369">
        <ele>497</ele>
        <time>2009-11-14T12:46:41Z</time>
      </trkpt>
      <trkpt lat="45.32465" lon="5.4373">
        <ele>497</ele>
        <time>2009-11-14T12:46:54Z</time>
      </trkpt>
      <trkpt lat="45.32466" lon="5.4374">
        <ele>497</ele>
        <time>2009-11-14T12:46:59Z</time>
      </trkpt>
      <trkpt lat="45.32468" lon="5.43757">
        <ele>497</ele>
        <time>2009-11-14T12:47:06Z</time>
      </trkpt>
      <trkpt lat="45.32472" lon="5.4381">
        <ele>496</ele>
        <time>2009-11-14T12:47:22Z</time>
      </trkpt>
      <trkpt lat="45.32478" lon="5.43893">
        <ele>494</ele>
        <time>2009-11-14T12:47:38Z</time>
      </trkpt>
      <trkpt lat="45.32495" lon="5.43933">
        <ele>491</ele>
        <time>2009-11-14T12:47:44Z</time>
      </trkpt>
      <trkpt lat="45.32533" lon="5.43976">
        <ele>491</ele>
        <time>2009-11-14T12:47:55Z</time>
      </trkpt>
      <trkpt lat="45.32539" lon="5.43982">
        <ele>491</ele>
        <time>2009-11-14T12:47:59Z</time>
      </trkpt>
      <trkpt lat="45.32543" lon="5.43991">
        <ele>490</ele>
        <time>2009-11-14T12:48:03Z</time>
      </trkpt>
      <trkpt lat="45.32553" lon="5.44005">
        <ele>490</ele>
        <time>2009-11-14T12:48:07Z</time>
      </trkpt>
      <trkpt lat="45.32591" lon="5.44071">
        <ele>490</ele>
        <time>2009-11-14T12:48:24Z</time>
      </trkpt>
      <trkpt lat="45.32623" lon="5.44126">
        <ele>490</ele>
        <time>2009-11-14T12:48:38Z</time>
      </trkpt>
      <trkpt lat="45.32642" lon="5.44191">
        <ele>490</ele>
        <time>2009-11-14T12:48:50Z</time>
      </trkpt>
      <trkpt lat="45.32673" lon="5.44249">
        <ele>491</ele>
        <time>2009-11-14T12:49:04Z</time>
      </trkpt>
      <trkpt lat="45.3271" lon="5.44291">
        <ele>491</ele>
        <time>2009-11-14T12:49:17Z</time>
      </trkpt>
      <trkpt lat="45.32763" lon="5.44357">
        <ele>492</ele>
        <time>2009-11-14T12:49:35Z</time>
      </trkpt>
      <trkpt lat="45.32819" lon="5.44426">
        <ele>495</ele>
        <time>2009-11-14T12:49:55Z</time>
      </trkpt>
      <trkpt lat="45.32861" lon="5.44489">
        <ele>497</ele>
        <time>2009-11-14T12:50:12Z</time>
      </trkpt>
      <trkpt lat="45.32923" lon="5.44559">
        <ele>500</ele>
        <time>2009-11-14T12:50:36Z</time>
      </trkpt>
      <trkpt lat="45.32961" lon="5.44565">
        <ele>497</ele>
        <time>2009-11-14T12:50:48Z</time>
      </trkpt>
      <trkpt lat="45.32983" lon="5.44555">
        <ele>494</ele>
        <time>2009-11-14T12:50:52Z</time>
      </trkpt>
      <trkpt lat="45.33006" lon="5.44544">
        <ele>495</ele>
        <time>2009-11-14T12:50:57Z</time>
      </trkpt>
      <trkpt lat="45.33014" lon="5.4458">
        <ele>496</ele>
        <time>2009-11-14T12:51:10Z</time>
      </trkpt>
      <trkpt lat="45.33016" lon="5.44603">
        <ele>498</ele>
        <time>2009-11-14T12:51:25Z</time>
      </trkpt>
      <trkpt lat="45.33016" lon="5.44613">
        <ele>498</ele>
        <time>2009-11-14T12:52:12Z</time>
      </trkpt>
      <trkpt lat="45.33022" lon="5.44659">
        <ele>498</ele>
        <time>2009-11-14T12:52:25Z</time>
      </trkpt>
      <trkpt lat="45.33023" lon="5.44668">
        <ele>497</ele>
        <time>2009-11-14T12:52:27Z</time>
      </trkpt>
      <trkpt lat="45.33021" lon="5.44703">
        <ele>493</ele>
        <time>2009-11-14T12:52:33Z</time>
      </trkpt>
      <trkpt lat="45.33021" lon="5.44712">
        <ele>493</ele>
        <time>2009-11-14T12:52:34Z</time>
      </trkpt>
      <trkpt lat="45.33021" lon="5.44721">
        <ele>493</ele>
        <time>2009-11-14T12:52:35Z</time>
      </trkpt>
      <trkpt lat="45.33033" lon="5.44775">
        <ele>495</ele>
        <time>2009-11-14T12:52:44Z</time>
      </trkpt>
      <trkpt lat="45.33044" lon="5.44817">
        <ele>497</ele>
        <time>2009-11-14T12:52:55Z</time>
      </trkpt>
      <trkpt lat="45.33056" lon="5.44878">
        <ele>499</ele>
        <time>2009-11-14T12:53:08Z</time>
      </trkpt>
      <trkpt lat="45.33059" lon="5.44936">
        <ele>502</ele>
        <time>2009-11-14T12:53:22Z</time>
      </trkpt>
      <trkpt lat="45.3306" lon="5.44972">
        <ele>503</ele>
        <time>2009-11-14T12:53:32Z</time>
      </trkpt>
      <trkpt lat="45.33064" lon="5.45019">
        <ele>504</ele>
        <time>2009-11-14T12:53:43Z</time>
      </trkpt>
      <trkpt lat="45.33064" lon="5.45023">
        <ele>504</ele>
        <time>2009-11-14T12:53:44Z</time>
      </trkpt>
      <trkpt lat="45.33064" lon="5.45039">
        <ele>504</ele>
        <time>2009-11-14T12:53:48Z</time>
      </trkpt>
      <trkpt lat="45.33056" lon="5.45103">
        <ele>506</ele>
        <time>2009-11-14T12:54:02Z</time>
      </trkpt>
      <trkpt lat="45.33054" lon="5.4512">
        <ele>507</ele>
        <time>2009-11-14T12:54:06Z</time>
      </trkpt>
      <trkpt lat="45.3305" lon="5.45152">
        <ele>509</ele>
        <time>2009-11-14T12:54:15Z</time>
      </trkpt>
      <trkpt lat="45.33048" lon="5.45165">
        <ele>509</ele>
        <time>2009-11-14T12:54:18Z</time>
      </trkpt>
      <trkpt lat="45.33044" lon="5.45185">
        <ele>510</ele>
        <time>2009-11-14T12:54:23Z</time>
      </trkpt>
      <trkpt lat="45.33036" lon="5.45225">
        <ele>512</ele>
        <time>2009-11-14T12:54:35Z</time>
      </trkpt>
      <trkpt lat="45.33034" lon="5.45267">
        <ele>513</ele>
        <time>2009-11-14T12:54:45Z</time>
      </trkpt>
      <trkpt lat="45.33028" lon="5.45315">
        <ele>514</ele>
        <time>2009-11-14T12:54:57Z</time>
      </trkpt>
      <trkpt lat="45.33027" lon="5.45335">
        <ele>515</ele>
        <time>2009-11-14T12:55:02Z</time>
      </trkpt>
      <trkpt lat="45.33025" lon="5.45357">
        <ele>516</ele>
        <time>2009-11-14T12:55:08Z</time>
      </trkpt>
      <trkpt lat="45.33017" lon="5.45394">
        <ele>517</ele>
        <time>2009-11-14T12:55:19Z</time>
      </trkpt>
      <trkpt lat="45.33015" lon="5.45403">
        <ele>518</ele>
        <time>2009-11-14T12:55:21Z</time>
      </trkpt>
      <trkpt lat="45.33006" lon="5.45475">
        <ele>520</ele>
        <time>2009-11-14T12:55:39Z</time>
      </trkpt>
      <trkpt lat="45.33005" lon="5.45485">
        <ele>521</ele>
        <time>2009-11-14T12:55:42Z</time>
      </trkpt>
      <trkpt lat="45.33004" lon="5.45511">
        <ele>523</ele>
        <time>2009-11-14T12:55:51Z</time>
      </trkpt>
      <trkpt lat="45.33001" lon="5.45531">
        <ele>523</ele>
        <time>2009-11-14T12:55:56Z</time>
      </trkpt>
      <trkpt lat="45.32983" lon="5.4558">
        <ele>525</ele>
        <time>2009-11-14T12:56:09Z</time>
      </trkpt>
      <trkpt lat="45.32975" lon="5.4563">
        <ele>527</ele>
        <time>2009-11-14T12:56:23Z</time>
      </trkpt>
      <trkpt lat="45.32974" lon="5.45675">
        <ele>528</ele>
        <time>2009-11-14T12:56:35Z</time>
      </trkpt>
      <trkpt lat="45.32963" lon="5.45734">
        <ele>530</ele>
        <time>2009-11-14T12:56:50Z</time>
      </trkpt>
      <trkpt lat="45.32962" lon="5.45738">
        <ele>530</ele>
        <time>2009-11-14T12:56:51Z</time>
      </trkpt>
      <trkpt lat="45.32956" lon="5.45761">
        <ele>531</ele>
        <time>2009-11-14T12:56:58Z</time>
      </trkpt>
      <trkpt lat="45.32956" lon="5.45762">
        <ele>532</ele>
        <time>2009-11-14T12:57:00Z</time>
      </trkpt>
      <trkpt lat="45.32953" lon="5.45779">
        <ele>532</ele>
        <time>2009-11-14T12:57:05Z</time>
      </trkpt>
      <trkpt lat="45.32948" lon="5.458">
        <ele>533</ele>
        <time>2009-11-14T12:57:10Z</time>
      </trkpt>
      <trkpt lat="45.32942" lon="5.45819">
        <ele>534</ele>
        <time>2009-11-14T12:57:17Z</time>
      </trkpt>
      <trkpt lat="45.32935" lon="5.4584">
        <ele>535</ele>
        <time>2009-11-14T12:57:23Z</time>
      </trkpt>
      <trkpt lat="45.32928" lon="5.45862">
        <ele>536</ele>
        <time>2009-11-14T12:57:29Z</time>
      </trkpt>
      <trkpt lat="45.32925" lon="5.45873">
        <ele>537</ele>
        <time>2009-11-14T12:57:32Z</time>
      </trkpt>
      <trkpt lat="45.32921" lon="5.45895">
        <ele>537</ele>
        <time>2009-11-14T12:57:39Z</time>
      </trkpt>
      <trkpt lat="45.32916" lon="5.45914">
        <ele>538</ele>
        <time>2009-11-14T12:57:45Z</time>
      </trkpt>
      <trkpt lat="45.32913" lon="5.4592">
        <ele>538</ele>
        <time>2009-11-14T12:57:47Z</time>
      </trkpt>
      <trkpt lat="45.32907" lon="5.45932">
        <ele>539</ele>
        <time>2009-11-14T12:57:51Z</time>
      </trkpt>
      <trkpt lat="45.32894" lon="5.45968">
        <ele>541</ele>
        <time>2009-11-14T12:58:03Z</time>
      </trkpt>
      <trkpt lat="45.32886" lon="5.45987">
        <ele>542</ele>
        <time>2009-11-14T12:58:09Z</time>
      </trkpt>
      <trkpt lat="45.3288" lon="5.46008">
        <ele>543</ele>
        <time>2009-11-14T12:58:14Z</time>
      </trkpt>
      <trkpt lat="45.32888" lon="5.46048">
        <ele>544</ele>
        <time>2009-11-14T12:58:20Z</time>
      </trkpt>
      <trkpt lat="45.32891" lon="5.46055">
        <ele>545</ele>
        <time>2009-11-14T12:58:22Z</time>
      </trkpt>
      <trkpt lat="45.32907" lon="5.46089">
        <ele>547</ele>
        <time>2009-11-14T12:58:36Z</time>
      </trkpt>
      <trkpt lat="45.32913" lon="5.46098">
        <ele>548</ele>
        <time>2009-11-14T12:58:43Z</time>
      </trkpt>
      <trkpt lat="45.32915" lon="5.46102">
        <ele>548</ele>
        <time>2009-11-14T12:58:45Z</time>
      </trkpt>
      <trkpt lat="45.32931" lon="5.46121">
        <ele>549</ele>
        <time>2009-11-14T12:58:56Z</time>
      </trkpt>
      <trkpt lat="45.32934" lon="5.46126">
        <ele>550</ele>
        <time>2009-11-14T12:59:07Z</time>
      </trkpt>
      <trkpt lat="45.32934" lon="5.46126">
        <ele>550</ele>
        <time>2009-11-14T13:00:34Z</time>
      </trkpt>
      <trkpt lat="45.32942" lon="5.46155">
        <ele>546</ele>
        <time>2009-11-14T13:00:41Z</time>
      </trkpt>
      <trkpt lat="45.32947" lon="5.46169">
        <ele>544</ele>
        <time>2009-11-14T13:00:44Z</time>
      </trkpt>
      <trkpt lat="45.32956" lon="5.46192">
        <ele>540</ele>
        <time>2009-11-14T13:00:48Z</time>
      </trkpt>
      <trkpt lat="45.32958" lon="5.462">
        <ele>539</ele>
        <time>2009-11-14T13:00:49Z</time>
      </trkpt>
      <trkpt lat="45.32965" lon="5.46222">
        <ele>537</ele>
        <time>2009-11-14T13:00:53Z</time>
      </trkpt>
      <trkpt lat="45.32965" lon="5.46232">
        <ele>535</ele>
        <time>2009-11-14T13:00:55Z</time>
      </trkpt>
      <trkpt lat="45.32965" lon="5.46251">
        <ele>531</ele>
        <time>2009-11-14T13:00:59Z</time>
      </trkpt>
      <trkpt lat="45.32965" lon="5.46269">
        <ele>527</ele>
        <time>2009-11-14T13:01:02Z</time>
      </trkpt>
      <trkpt lat="45.32971" lon="5.46296">
        <ele>523</ele>
        <time>2009-11-14T13:01:06Z</time>
      </trkpt>
      <trkpt lat="45.32981" lon="5.46316">
        <ele>519</ele>
        <time>2009-11-14T13:01:09Z</time>
      </trkpt>
      <trkpt lat="45.32989" lon="5.46331">
        <ele>516</ele>
        <time>2009-11-14T13:01:12Z</time>
      </trkpt>
      <trkpt lat="45.32996" lon="5.46347">
        <ele>513</ele>
        <time>2009-11-14T13:01:15Z</time>
      </trkpt>
      <trkpt lat="45.32999" lon="5.46352">
        <ele>512</ele>
        <time>2009-11-14T13:01:16Z</time>
      </trkpt>
      <trkpt lat="45.33007" lon="5.46377">
        <ele>507</ele>
        <time>2009-11-14T13:01:20Z</time>
      </trkpt>
      <trkpt lat="45.33013" lon="5.46394">
        <ele>504</ele>
        <time>2009-11-14T13:01:23Z</time>
      </trkpt>
      <trkpt lat="45.33018" lon="5.46412">
        <ele>500</ele>
        <time>2009-11-14T13:01:26Z</time>
      </trkpt>
      <trkpt lat="45.33025" lon="5.46437">
        <ele>497</ele>
        <time>2009-11-14T13:01:30Z</time>
      </trkpt>
      <trkpt lat="45.33033" lon="5.46465">
        <ele>492</ele>
        <time>2009-11-14T13:01:34Z</time>
      </trkpt>
      <trkpt lat="45.33046" lon="5.46506">
        <ele>489</ele>
        <time>2009-11-14T13:01:38Z</time>
      </trkpt>
      <trkpt lat="45.33049" lon="5.46518">
        <ele>488</ele>
        <time>2009-11-14T13:01:40Z</time>
      </trkpt>
      <trkpt lat="45.33058" lon="5.46547">
        <ele>484</ele>
        <time>2009-11-14T13:01:45Z</time>
      </trkpt>
      <trkpt lat="45.33063" lon="5.46567">
        <ele>480</ele>
        <time>2009-11-14T13:01:49Z</time>
      </trkpt>
      <trkpt lat="45.33077" lon="5.46591">
        <ele>477</ele>
        <time>2009-11-14T13:01:53Z</time>
      </trkpt>
      <trkpt lat="45.33093" lon="5.46612">
        <ele>474</ele>
        <time>2009-11-14T13:01:57Z</time>
      </trkpt>
      <trkpt lat="45.33096" lon="5.46617">
        <ele>473</ele>
        <time>2009-11-14T13:01:58Z</time>
      </trkpt>
      <trkpt lat="45.33104" lon="5.46644">
        <ele>471</ele>
        <time>2009-11-14T13:02:04Z</time>
      </trkpt>
      <trkpt lat="45.33079" lon="5.467">
        <ele>471</ele>
        <time>2009-11-14T13:02:19Z</time>
      </trkpt>
      <trkpt lat="45.33083" lon="5.46753">
        <ele>472</ele>
        <time>2009-11-14T13:02:31Z</time>
      </trkpt>
      <trkpt lat="45.33088" lon="5.46841">
        <ele>472</ele>
        <time>2009-11-14T13:02:49Z</time>
      </trkpt>
      <trkpt lat="45.33108" lon="5.46913">
        <ele>469</ele>
        <time>2009-11-14T13:03:03Z</time>
      </trkpt>
      <trkpt lat="45.33111" lon="5.46925">
        <ele>468</ele>
        <time>2009-11-14T13:03:05Z</time>
      </trkpt>
      <trkpt lat="45.33119" lon="5.4695">
        <ele>468</ele>
        <time>2009-11-14T13:03:09Z</time>
      </trkpt>
      <trkpt lat="45.33122" lon="5.4697">
        <ele>468</ele>
        <time>2009-11-14T13:03:12Z</time>
      </trkpt>
      <trkpt lat="45.33131" lon="5.47017">
        <ele>467</ele>
        <time>2009-11-14T13:03:20Z</time>
      </trkpt>
      <trkpt lat="45.33139" lon="5.47099">
        <ele>469</ele>
        <time>2009-11-14T13:03:35Z</time>
      </trkpt>
      <trkpt lat="45.33144" lon="5.4714">
        <ele>470</ele>
        <time>2009-11-14T13:03:45Z</time>
      </trkpt>
      <trkpt lat="45.33145" lon="5.47153">
        <ele>468</ele>
        <time>2009-11-14T13:03:47Z</time>
      </trkpt>
      <trkpt lat="45.33148" lon="5.47179">
        <ele>466</ele>
        <time>2009-11-14T13:03:51Z</time>
      </trkpt>
      <trkpt lat="45.33154" lon="5.47201">
        <ele>466</ele>
        <time>2009-11-14T13:03:55Z</time>
      </trkpt>
      <trkpt lat="45.33134" lon="5.47211">
        <ele>466</ele>
        <time>2009-11-14T13:04:07Z</time>
      </trkpt>
      <trkpt lat="45.331" lon="5.47241">
        <ele>469</ele>
        <time>2009-11-14T13:04:22Z</time>
      </trkpt>
      <trkpt lat="45.33053" lon="5.47281">
        <ele>472</ele>
        <time>2009-11-14T13:04:42Z</time>
      </trkpt>
      <trkpt lat="45.33018" lon="5.47306">
        <ele>474</ele>
        <time>2009-11-14T13:04:57Z</time>
      </trkpt>
      <trkpt lat="45.32985" lon="5.47328">
        <ele>477</ele>
        <time>2009-11-14T13:05:12Z</time>
      </trkpt>
      <trkpt lat="45.32949" lon="5.47338">
        <ele>480</ele>
        <time>2009-11-14T13:05:28Z</time>
      </trkpt>
      <trkpt lat="45.32903" lon="5.47367">
        <ele>482</ele>
        <time>2009-11-14T13:05:46Z</time>
      </trkpt>
      <trkpt lat="45.32892" lon="5.47378">
        <ele>482</ele>
        <time>2009-11-14T13:05:51Z</time>
      </trkpt>
      <trkpt lat="45.32885" lon="5.47384">
        <ele>483</ele>
        <time>2009-11-14T13:05:54Z</time>
      </trkpt>
      <trkpt lat="45.32883" lon="5.47389">
        <ele>484</ele>
        <time>2009-11-14T13:06:01Z</time>
      </trkpt>
      <trkpt lat="45.3292" lon="5.47418">
        <ele>484</ele>
        <time>2009-11-14T13:06:16Z</time>
      </trkpt>
      <trkpt lat="45.32917" lon="5.47419">
        <ele>485</ele>
        <time>2009-11-14T13:06:20Z</time>
      </trkpt>
      <trkpt lat="45.3286" lon="5.47415">
        <ele>484</ele>
        <time>2009-11-14T13:06:36Z</time>
      </trkpt>
      <trkpt lat="45.32833" lon="5.47434">
        <ele>484</ele>
        <time>2009-11-14T13:06:46Z</time>
      </trkpt>
      <trkpt lat="45.32807" lon="5.4746">
        <ele>485</ele>
        <time>2009-11-14T13:06:56Z</time>
      </trkpt>
      <trkpt lat="45.32776" lon="5.47507">
        <ele>488</ele>
        <time>2009-11-14T13:07:11Z</time>
      </trkpt>
      <trkpt lat="45.32752" lon="5.47542">
        <ele>489</ele>
        <time>2009-11-14T13:07:22Z</time>
      </trkpt>
      <trkpt lat="45.32717" lon="5.47582">
        <ele>492</ele>
        <time>2009-11-14T13:07:38Z</time>
      </trkpt>
      <trkpt lat="45.32689" lon="5.47628">
        <ele>496</ele>
        <time>2009-11-14T13:07:55Z</time>
      </trkpt>
      <trkpt lat="45.32671" lon="5.47666">
        <ele>498</ele>
        <time>2009-11-14T13:08:08Z</time>
      </trkpt>
      <trkpt lat="45.32666" lon="5.4767">
        <ele>499</ele>
        <time>2009-11-14T13:08:11Z</time>
      </trkpt>
      <trkpt lat="45.32662" lon="5.47673">
        <ele>499</ele>
        <time>2009-11-14T13:08:14Z</time>
      </trkpt>
      <trkpt lat="45.3265" lon="5.47683">
        <ele>500</ele>
        <time>2009-11-14T13:08:23Z</time>
      </trkpt>
      <trkpt lat="45.3263" lon="5.47703">
        <ele>503</ele>
        <time>2009-11-14T13:08:37Z</time>
      </trkpt>
      <trkpt lat="45.32612" lon="5.47717">
        <ele>505</ele>
        <time>2009-11-14T13:08:47Z</time>
      </trkpt>
      <trkpt lat="45.32605" lon="5.47722">
        <ele>505</ele>
        <time>2009-11-14T13:08:51Z</time>
      </trkpt>
      <trkpt lat="45.32578" lon="5.47743">
        <ele>508</ele>
        <time>2009-11-14T13:09:07Z</time>
      </trkpt>
      <trkpt lat="45.32572" lon="5.47748">
        <ele>509</ele>
        <time>2009-11-14T13:09:10Z</time>
      </trkpt>
      <trkpt lat="45.32565" lon="5.47753">
        <ele>509</ele>
        <time>2009-11-14T13:09:14Z</time>
      </trkpt>
      <trkpt lat="45.3255" lon="5.47767">
        <ele>511</ele>
        <time>2009-11-14T13:09:24Z</time>
      </trkpt>
      <trkpt lat="45.32547" lon="5.47769">
        <ele>512</ele>
        <time>2009-11-14T13:09:30Z</time>
      </trkpt>
      <trkpt lat="45.32542" lon="5.47774">
        <ele>512</ele>
        <time>2009-11-14T13:09:33Z</time>
      </trkpt>
      <trkpt lat="45.32513" lon="5.47792">
        <ele>513</ele>
        <time>2009-11-14T13:09:51Z</time>
      </trkpt>
      <trkpt lat="45.32483" lon="5.47797">
        <ele>516</ele>
        <time>2009-11-14T13:10:07Z</time>
      </trkpt>
      <trkpt lat="45.32478" lon="5.47799">
        <ele>517</ele>
        <time>2009-11-14T13:10:11Z</time>
      </trkpt>
      <trkpt lat="45.32468" lon="5.47799">
        <ele>518</ele>
        <time>2009-11-14T13:10:17Z</time>
      </trkpt>
      <trkpt lat="45.32459" lon="5.47799">
        <ele>519</ele>
        <time>2009-11-14T13:10:23Z</time>
      </trkpt>
      <trkpt lat="45.32436" lon="5.47813">
        <ele>523</ele>
        <time>2009-11-14T13:10:38Z</time>
      </trkpt>
      <trkpt lat="45.32429" lon="5.47821">
        <ele>525</ele>
        <time>2009-11-14T13:10:52Z</time>
      </trkpt>
      <trkpt lat="45.32404" lon="5.4784">
        <ele>527</ele>
        <time>2009-11-14T13:11:06Z</time>
      </trkpt>
      <trkpt lat="45.32395" lon="5.47847">
        <ele>527</ele>
        <time>2009-11-14T13:11:09Z</time>
      </trkpt>
      <trkpt lat="45.32388" lon="5.47854">
        <ele>528</ele>
        <time>2009-11-14T13:11:25Z</time>
      </trkpt>
      <trkpt lat="45.32388" lon="5.47854">
        <ele>527</ele>
        <time>2009-11-14T13:13:17Z</time>
      </trkpt>
      <trkpt lat="45.32383" lon="5.47866">
        <ele>526</ele>
        <time>2009-11-14T13:13:20Z</time>
      </trkpt>
      <trkpt lat="45.32376" lon="5.47873">
        <ele>526</ele>
        <time>2009-11-14T13:13:24Z</time>
      </trkpt>
      <trkpt lat="45.32345" lon="5.47896">
        <ele>526</ele>
        <time>2009-11-14T13:13:38Z</time>
      </trkpt>
      <trkpt lat="45.32311" lon="5.47932">
        <ele>527</ele>
        <time>2009-11-14T13:13:54Z</time>
      </trkpt>
      <trkpt lat="45.32264" lon="5.47949">
        <ele>527</ele>
        <time>2009-11-14T13:14:10Z</time>
      </trkpt>
      <trkpt lat="45.32232" lon="5.47944">
        <ele>529</ele>
        <time>2009-11-14T13:14:21Z</time>
      </trkpt>
      <trkpt lat="45.32205" lon="5.47934">
        <ele>530</ele>
        <time>2009-11-14T13:14:31Z</time>
      </trkpt>
      <trkpt lat="45.32198" lon="5.47933">
        <ele>531</ele>
        <time>2009-11-14T13:14:34Z</time>
      </trkpt>
      <trkpt lat="45.32165" lon="5.47918">
        <ele>531</ele>
        <time>2009-11-14T13:14:45Z</time>
      </trkpt>
      <trkpt lat="45.32135" lon="5.47901">
        <ele>534</ele>
        <time>2009-11-14T13:14:56Z</time>
      </trkpt>
      <trkpt lat="45.32113" lon="5.4789">
        <ele>536</ele>
        <time>2009-11-14T13:15:05Z</time>
      </trkpt>
      <trkpt lat="45.32093" lon="5.47883">
        <ele>535</ele>
        <time>2009-11-14T13:15:12Z</time>
      </trkpt>
      <trkpt lat="45.32062" lon="5.47855">
        <ele>535</ele>
        <time>2009-11-14T13:15:21Z</time>
      </trkpt>
      <trkpt lat="45.3202" lon="5.47841">
        <ele>533</ele>
        <time>2009-11-14T13:15:31Z</time>
      </trkpt>
      <trkpt lat="45.32008" lon="5.47838">
        <ele>532</ele>
        <time>2009-11-14T13:15:33Z</time>
      </trkpt>
      <trkpt lat="45.31975" lon="5.47835">
        <ele>531</ele>
        <time>2009-11-14T13:15:39Z</time>
      </trkpt>
      <trkpt lat="45.31943" lon="5.47836">
        <ele>531</ele>
        <time>2009-11-14T13:15:50Z</time>
      </trkpt>
      <trkpt lat="45.31943" lon="5.47836">
        <ele>530</ele>
        <time>2009-11-14T13:16:02Z</time>
      </trkpt>
      <trkpt lat="45.31943" lon="5.47836">
        <ele>532</ele>
        <time>2009-11-14T13:16:04Z</time>
      </trkpt>
      <trkpt lat="45.31943" lon="5.47836">
        <ele>531</ele>
        <time>2009-11-14T13:16:05Z</time>
      </trkpt>
      <trkpt lat="45.31925" lon="5.47841">
        <ele>531</ele>
        <time>2009-11-14T13:16:17Z</time>
      </trkpt>
      <trkpt lat="45.31923" lon="5.47842">
        <ele>532</ele>
        <time>2009-11-14T13:16:30Z</time>
      </trkpt>
      <trkpt lat="45.31906" lon="5.47838">
        <ele>531</ele>
        <time>2009-11-14T13:16:44Z</time>
      </trkpt>
      <trkpt lat="45.31895" lon="5.47833">
        <ele>532</ele>
        <time>2009-11-14T13:16:59Z</time>
      </trkpt>
      <trkpt lat="45.31895" lon="5.47833">
        <ele>532</ele>
        <time>2009-11-14T13:17:08Z</time>
      </trkpt>
      <trkpt lat="45.31873" lon="5.47816">
        <ele>533</ele>
        <time>2009-11-14T13:17:22Z</time>
      </trkpt>
      <trkpt lat="45.3185" lon="5.47798">
        <ele>534</ele>
        <time>2009-11-14T13:17:35Z</time>
      </trkpt>
      <trkpt lat="45.31844" lon="5.47794">
        <ele>534</ele>
        <time>2009-11-14T13:17:38Z</time>
      </trkpt>
      <trkpt lat="45.3182" lon="5.47786">
        <ele>534</ele>
        <time>2009-11-14T13:17:50Z</time>
      </trkpt>
      <trkpt lat="45.31785" lon="5.47774">
        <ele>533</ele>
        <time>2009-11-14T13:18:04Z</time>
      </trkpt>
      <trkpt lat="45.3175" lon="5.47749">
        <ele>532</ele>
        <time>2009-11-14T13:18:17Z</time>
      </trkpt>
      <trkpt lat="45.31743" lon="5.47742">
        <ele>532</ele>
        <time>2009-11-14T13:18:20Z</time>
      </trkpt>
      <trkpt lat="45.31737" lon="5.47736">
        <ele>530</ele>
        <time>2009-11-14T13:18:23Z</time>
      </trkpt>
      <trkpt lat="45.31731" lon="5.47728">
        <ele>529</ele>
        <time>2009-11-14T13:18:25Z</time>
      </trkpt>
      <trkpt lat="45.31727" lon="5.47722">
        <ele>526</ele>
        <time>2009-11-14T13:18:29Z</time>
      </trkpt>
      <trkpt lat="45.31727" lon="5.47722">
        <ele>526</ele>
        <time>2009-11-14T13:18:32Z</time>
      </trkpt>
      <trkpt lat="45.31712" lon="5.47701">
        <ele>522</ele>
        <time>2009-11-14T13:18:39Z</time>
      </trkpt>
      <trkpt lat="45.31702" lon="5.47705">
        <ele>519</ele>
        <time>2009-11-14T13:18:44Z</time>
      </trkpt>
      <trkpt lat="45.31694" lon="5.4771">
        <ele>516</ele>
        <time>2009-11-14T13:18:48Z</time>
      </trkpt>
      <trkpt lat="45.31686" lon="5.47716">
        <ele>512</ele>
        <time>2009-11-14T13:18:53Z</time>
      </trkpt>
      <trkpt lat="45.31681" lon="5.47718">
        <ele>510</ele>
        <time>2009-11-14T13:18:55Z</time>
      </trkpt>
      <trkpt lat="45.31673" lon="5.47718">
        <ele>507</ele>
        <time>2009-11-14T13:18:59Z</time>
      </trkpt>
      <trkpt lat="45.31659" lon="5.4772">
        <ele>502</ele>
        <time>2009-11-14T13:19:04Z</time>
      </trkpt>
      <trkpt lat="45.31649" lon="5.47726">
        <ele>499</ele>
        <time>2009-11-14T13:19:08Z</time>
      </trkpt>
      <trkpt lat="45.31639" lon="5.47739">
        <ele>495</ele>
        <time>2009-11-14T13:19:13Z</time>
      </trkpt>
      <trkpt lat="45.31638" lon="5.47742">
        <ele>495</ele>
        <time>2009-11-14T13:19:14Z</time>
      </trkpt>
      <trkpt lat="45.31634" lon="5.47763">
        <ele>491</ele>
        <time>2009-11-14T13:19:20Z</time>
      </trkpt>
      <trkpt lat="45.31628" lon="5.47778">
        <ele>488</ele>
        <time>2009-11-14T13:19:25Z</time>
      </trkpt>
      <trkpt lat="45.31627" lon="5.47783">
        <ele>487</ele>
        <time>2009-11-14T13:19:27Z</time>
      </trkpt>
      <trkpt lat="45.31627" lon="5.47786">
        <ele>486</ele>
        <time>2009-11-14T13:19:28Z</time>
      </trkpt>
      <trkpt lat="45.31626" lon="5.47798">
        <ele>483</ele>
        <time>2009-11-14T13:19:36Z</time>
      </trkpt>
      <trkpt lat="45.31625" lon="5.47798">
        <ele>482</ele>
        <time>2009-11-14T13:19:55Z</time>
      </trkpt>
      <trkpt lat="45.31623" lon="5.47796">
        <ele>482</ele>
        <time>2009-11-14T13:20:08Z</time>
      </trkpt>
      <trkpt lat="45.31608" lon="5.47786">
        <ele>479</ele>
        <time>2009-11-14T13:20:14Z</time>
      </trkpt>
      <trkpt lat="45.31587" lon="5.47777">
        <ele>476</ele>
        <time>2009-11-14T13:20:20Z</time>
      </trkpt>
      <trkpt lat="45.31566" lon="5.47759">
        <ele>473</ele>
        <time>2009-11-14T13:20:28Z</time>
      </trkpt>
      <trkpt lat="45.31561" lon="5.47754">
        <ele>471</ele>
        <time>2009-11-14T13:20:32Z</time>
      </trkpt>
      <trkpt lat="45.31556" lon="5.47748">
        <ele>468</ele>
        <time>2009-11-14T13:20:36Z</time>
      </trkpt>
      <trkpt lat="45.31546" lon="5.47738">
        <ele>465</ele>
        <time>2009-11-14T13:20:40Z</time>
      </trkpt>
      <trkpt lat="45.31538" lon="5.4773">
        <ele>463</ele>
        <time>2009-11-14T13:20:43Z</time>
      </trkpt>
      <trkpt lat="45.31522" lon="5.47714">
        <ele>461</ele>
        <time>2009-11-14T13:20:47Z</time>
      </trkpt>
      <trkpt lat="45.31509" lon="5.47702">
        <ele>458</ele>
        <time>2009-11-14T13:20:51Z</time>
      </trkpt>
      <trkpt lat="45.31489" lon="5.47688">
        <ele>455</ele>
        <time>2009-11-14T13:20:55Z</time>
      </trkpt>
      <trkpt lat="45.31476" lon="5.4768">
        <ele>451</ele>
        <time>2009-11-14T13:21:00Z</time>
      </trkpt>
      <trkpt lat="45.31472" lon="5.47678">
        <ele>449</ele>
        <time>2009-11-14T13:21:03Z</time>
      </trkpt>
      <trkpt lat="45.31463" lon="5.47638">
        <ele>445</ele>
        <time>2009-11-14T13:21:07Z</time>
      </trkpt>
      <trkpt lat="45.31466" lon="5.47675">
        <ele>444</ele>
        <time>2009-11-14T13:21:10Z</time>
      </trkpt>
      <trkpt lat="45.31466" lon="5.47675">
        <ele>444</ele>
        <time>2009-11-14T13:21:13Z</time>
      </trkpt>
      <trkpt lat="45.31465" lon="5.47647">
        <ele>444</ele>
        <time>2009-11-14T13:21:15Z</time>
      </trkpt>
      <trkpt lat="45.31443" lon="5.47692">
        <ele>440</ele>
        <time>2009-11-14T13:21:30Z</time>
      </trkpt>
      <trkpt lat="45.31436" lon="5.47711">
        <ele>437</ele>
        <time>2009-11-14T13:21:34Z</time>
      </trkpt>
      <trkpt lat="45.31435" lon="5.47716">
        <ele>437</ele>
        <time>2009-11-14T13:21:35Z</time>
      </trkpt>
      <trkpt lat="45.31431" lon="5.47742">
        <ele>434</ele>
        <time>2009-11-14T13:21:40Z</time>
      </trkpt>
      <trkpt lat="45.31436" lon="5.47768">
        <ele>430</ele>
        <time>2009-11-14T13:21:45Z</time>
      </trkpt>
      <trkpt lat="45.31447" lon="5.47827">
        <ele>426</ele>
        <time>2009-11-14T13:21:57Z</time>
      </trkpt>
      <trkpt lat="45.31449" lon="5.47832">
        <ele>426</ele>
        <time>2009-11-14T13:21:58Z</time>
      </trkpt>
      <trkpt lat="45.31455" lon="5.47863">
        <ele>421</ele>
        <time>2009-11-14T13:22:03Z</time>
      </trkpt>
      <trkpt lat="45.31453" lon="5.47899">
        <ele>417</ele>
        <time>2009-11-14T13:22:09Z</time>
      </trkpt>
      <trkpt lat="45.3145" lon="5.47896">
        <ele>416</ele>
        <time>2009-11-14T13:22:13Z</time>
      </trkpt>
      <trkpt lat="45.31438" lon="5.47879">
        <ele>412</ele>
        <time>2009-11-14T13:22:17Z</time>
      </trkpt>
      <trkpt lat="45.31425" lon="5.47859">
        <ele>407</ele>
        <time>2009-11-14T13:22:20Z</time>
      </trkpt>
      <trkpt lat="45.31407" lon="5.47837">
        <ele>403</ele>
        <time>2009-11-14T13:22:23Z</time>
      </trkpt>
      <trkpt lat="45.31379" lon="5.47828">
        <ele>400</ele>
        <time>2009-11-14T13:22:28Z</time>
      </trkpt>
      <trkpt lat="45.31371" lon="5.47844">
        <ele>399</ele>
        <time>2009-11-14T13:22:31Z</time>
      </trkpt>
      <trkpt lat="45.31364" lon="5.47853">
        <ele>398</ele>
        <time>2009-11-14T13:22:33Z</time>
      </trkpt>
      <trkpt lat="45.31337" lon="5.4791">
        <ele>396</ele>
        <time>2009-11-14T13:22:42Z</time>
      </trkpt>
      <trkpt lat="45.31323" lon="5.47945">
        <ele>398</ele>
        <time>2009-11-14T13:22:49Z</time>
      </trkpt>
      <trkpt lat="45.3132" lon="5.47953">
        <ele>396</ele>
        <time>2009-11-14T13:22:51Z</time>
      </trkpt>
      <trkpt lat="45.31318" lon="5.47959">
        <ele>398</ele>
        <time>2009-11-14T13:22:53Z</time>
      </trkpt>
      <trkpt lat="45.31312" lon="5.47983">
        <ele>400</ele>
        <time>2009-11-14T13:22:58Z</time>
      </trkpt>
      <trkpt lat="45.31311" lon="5.47993">
        <ele>396</ele>
        <time>2009-11-14T13:23:00Z</time>
      </trkpt>
      <trkpt lat="45.3131" lon="5.47998">
        <ele>402</ele>
        <time>2009-11-14T13:23:01Z</time>
      </trkpt>
      <trkpt lat="45.3131" lon="5.48004">
        <ele>399</ele>
        <time>2009-11-14T13:23:02Z</time>
      </trkpt>
      <trkpt lat="45.31308" lon="5.48016">
        <ele>399</ele>
        <time>2009-11-14T13:23:04Z</time>
      </trkpt>
      <trkpt lat="45.31304" lon="5.48058">
        <ele>399</ele>
        <time>2009-11-14T13:23:12Z</time>
      </trkpt>
      <trkpt lat="45.31299" lon="5.48091">
        <ele>397</ele>
        <time>2009-11-14T13:23:17Z</time>
      </trkpt>
      <trkpt lat="45.31287" lon="5.48122">
        <ele>393</ele>
        <time>2009-11-14T13:23:21Z</time>
      </trkpt>
      <trkpt lat="45.31266" lon="5.48151">
        <ele>388</ele>
        <time>2009-11-14T13:23:25Z</time>
      </trkpt>
      <trkpt lat="45.3126" lon="5.48158">
        <ele>388</ele>
        <time>2009-11-14T13:23:26Z</time>
      </trkpt>
      <trkpt lat="45.31247" lon="5.48169">
        <ele>387</ele>
        <time>2009-11-14T13:23:28Z</time>
      </trkpt>
      <trkpt lat="45.31233" lon="5.48184">
        <ele>387</ele>
        <time>2009-11-14T13:23:30Z</time>
      </trkpt>
      <trkpt lat="45.31191" lon="5.48249">
        <ele>386</ele>
        <time>2009-11-14T13:23:38Z</time>
      </trkpt>
      <trkpt lat="45.31184" lon="5.48269">
        <ele>384</ele>
        <time>2009-11-14T13:23:40Z</time>
      </trkpt>
      <trkpt lat="45.31171" lon="5.48306">
        <ele>377</ele>
        <time>2009-11-14T13:23:43Z</time>
      </trkpt>
      <trkpt lat="45.31162" lon="5.48333">
        <ele>374</ele>
        <time>2009-11-14T13:23:45Z</time>
      </trkpt>
      <trkpt lat="45.31145" lon="5.48369">
        <ele>371</ele>
        <time>2009-11-14T13:23:48Z</time>
      </trkpt>
      <trkpt lat="45.3114" lon="5.4838">
        <ele>370</ele>
        <time>2009-11-14T13:23:49Z</time>
      </trkpt>
      <trkpt lat="45.31097" lon="5.48417">
        <ele>367</ele>
        <time>2009-11-14T13:23:55Z</time>
      </trkpt>
      <trkpt lat="45.31072" lon="5.48434">
        <ele>367</ele>
        <time>2009-11-14T13:23:59Z</time>
      </trkpt>
      <trkpt lat="45.31027" lon="5.4843">
        <ele>363</ele>
        <time>2009-11-14T13:24:06Z</time>
      </trkpt>
      <trkpt lat="45.30973" lon="5.48401">
        <ele>360</ele>
        <time>2009-11-14T13:24:13Z</time>
      </trkpt>
      <trkpt lat="45.30965" lon="5.48396">
        <ele>360</ele>
        <time>2009-11-14T13:24:14Z</time>
      </trkpt>
      <trkpt lat="45.30873" lon="5.48349">
        <ele>358</ele>
        <time>2009-11-14T13:24:27Z</time>
      </trkpt>
      <trkpt lat="45.30858" lon="5.48345">
        <ele>357</ele>
        <time>2009-11-14T13:24:29Z</time>
      </trkpt>
      <trkpt lat="45.30822" lon="5.48347">
        <ele>355</ele>
        <time>2009-11-14T13:24:34Z</time>
      </trkpt>
      <trkpt lat="45.30788" lon="5.48331">
        <ele>356</ele>
        <time>2009-11-14T13:24:39Z</time>
      </trkpt>
      <trkpt lat="45.30772" lon="5.48318">
        <ele>355</ele>
        <time>2009-11-14T13:24:42Z</time>
      </trkpt>
      <trkpt lat="45.30758" lon="5.4829">
        <ele>354</ele>
        <time>2009-11-14T13:24:46Z</time>
      </trkpt>
      <trkpt lat="45.30749" lon="5.48256">
        <ele>353</ele>
        <time>2009-11-14T13:24:50Z</time>
      </trkpt>
      <trkpt lat="45.30722" lon="5.48178">
        <ele>352</ele>
        <time>2009-11-14T13:25:01Z</time>
      </trkpt>
      <trkpt lat="45.30705" lon="5.4815">
        <ele>348</ele>
        <time>2009-11-14T13:25:05Z</time>
      </trkpt>
      <trkpt lat="45.30695" lon="5.48133">
        <ele>344</ele>
        <time>2009-11-14T13:25:07Z</time>
      </trkpt>
      <trkpt lat="45.3068" lon="5.48103">
        <ele>341</ele>
        <time>2009-11-14T13:25:10Z</time>
      </trkpt>
      <trkpt lat="45.30672" lon="5.48086">
        <ele>339</ele>
        <time>2009-11-14T13:25:12Z</time>
      </trkpt>
      <trkpt lat="45.30665" lon="5.48057">
        <ele>337</ele>
        <time>2009-11-14T13:25:16Z</time>
      </trkpt>
      <trkpt lat="45.30649" lon="5.48019">
        <ele>330</ele>
        <time>2009-11-14T13:25:21Z</time>
      </trkpt>
      <trkpt lat="45.30641" lon="5.48015">
        <ele>329</ele>
        <time>2009-11-14T13:25:22Z</time>
      </trkpt>
      <trkpt lat="45.3059" lon="5.48007">
        <ele>327</ele>
        <time>2009-11-14T13:25:30Z</time>
      </trkpt>
      <trkpt lat="45.30584" lon="5.48008">
        <ele>326</ele>
        <time>2009-11-14T13:25:31Z</time>
      </trkpt>
      <trkpt lat="45.30557" lon="5.48013">
        <ele>322</ele>
        <time>2009-11-14T13:25:35Z</time>
      </trkpt>
      <trkpt lat="45.30533" lon="5.48018">
        <ele>318</ele>
        <time>2009-11-14T13:25:38Z</time>
      </trkpt>
      <trkpt lat="45.3052" lon="5.48023">
        <ele>317</ele>
        <time>2009-11-14T13:25:40Z</time>
      </trkpt>
      <trkpt lat="45.30481" lon="5.48042">
        <ele>314</ele>
        <time>2009-11-14T13:25:48Z</time>
      </trkpt>
      <trkpt lat="45.30443" lon="5.4806">
        <ele>310</ele>
        <time>2009-11-14T13:25:55Z</time>
      </trkpt>
      <trkpt lat="45.30416" lon="5.48077">
        <ele>307</ele>
        <time>2009-11-14T13:25:59Z</time>
      </trkpt>
      <trkpt lat="45.30387" lon="5.48103">
        <ele>304</ele>
        <time>2009-11-14T13:26:03Z</time>
      </trkpt>
      <trkpt lat="45.30363" lon="5.48128">
        <ele>302</ele>
        <time>2009-11-14T13:26:07Z</time>
      </trkpt>
      <trkpt lat="45.30327" lon="5.48174">
        <ele>300</ele>
        <time>2009-11-14T13:26:15Z</time>
      </trkpt>
      <trkpt lat="45.30312" lon="5.48192">
        <ele>299</ele>
        <time>2009-11-14T13:26:18Z</time>
      </trkpt>
      <trkpt lat="45.30251" lon="5.4825">
        <ele>297</ele>
        <time>2009-11-14T13:26:30Z</time>
      </trkpt>
      <trkpt lat="45.30243" lon="5.48256">
        <ele>297</ele>
        <time>2009-11-14T13:26:32Z</time>
      </trkpt>
      <trkpt lat="45.30238" lon="5.4826">
        <ele>297</ele>
        <time>2009-11-14T13:26:34Z</time>
      </trkpt>
      <trkpt lat="45.30259" lon="5.48278">
        <ele>296</ele>
        <time>2009-11-14T13:26:40Z</time>
      </trkpt>
      <trkpt lat="45.30264" lon="5.48305">
        <ele>293</ele>
        <time>2009-11-14T13:26:44Z</time>
      </trkpt>
      <trkpt lat="45.30283" lon="5.48343">
        <ele>293</ele>
        <time>2009-11-14T13:26:53Z</time>
      </trkpt>
      <trkpt lat="45.30285" lon="5.48353">
        <ele>293</ele>
        <time>2009-11-14T13:26:56Z</time>
      </trkpt>
      <trkpt lat="45.30289" lon="5.48365">
        <ele>293</ele>
        <time>2009-11-14T13:27:05Z</time>
      </trkpt>
      <trkpt lat="45.3029" lon="5.4837">
        <ele>290</ele>
        <time>2009-11-14T13:27:11Z</time>
      </trkpt>
      <trkpt lat="45.30294" lon="5.48381">
        <ele>288</ele>
        <time>2009-11-14T13:27:14Z</time>
      </trkpt>
      <trkpt lat="45.30296" lon="5.48389">
        <ele>287</ele>
        <time>2009-11-14T13:27:16Z</time>
      </trkpt>
      <trkpt lat="45.30289" lon="5.48415">
        <ele>283</ele>
        <time>2009-11-14T13:27:20Z</time>
      </trkpt>
      <trkpt lat="45.30284" lon="5.48419">
        <ele>280</ele>
        <time>2009-11-14T13:27:24Z</time>
      </trkpt>
      <trkpt lat="45.30252" lon="5.48404">
        <ele>276</ele>
        <time>2009-11-14T13:27:35Z</time>
      </trkpt>
      <trkpt lat="45.3025" lon="5.48397">
        <ele>276</ele>
        <time>2009-11-14T13:27:36Z</time>
      </trkpt>
      <trkpt lat="45.30237" lon="5.48388">
        <ele>275</ele>
        <time>2009-11-14T13:27:39Z</time>
      </trkpt>
      <trkpt lat="45.30205" lon="5.48362">
        <ele>271</ele>
        <time>2009-11-14T13:27:45Z</time>
      </trkpt>
      <trkpt lat="45.30182" lon="5.48344">
        <ele>269</ele>
        <time>2009-11-14T13:27:49Z</time>
      </trkpt>
      <trkpt lat="45.30155" lon="5.48325">
        <ele>266</ele>
        <time>2009-11-14T13:27:53Z</time>
      </trkpt>
      <trkpt lat="45.30137" lon="5.48374">
        <ele>266</ele>
        <time>2009-11-14T13:27:58Z</time>
      </trkpt>
      <trkpt lat="45.3015" lon="5.48329">
        <ele>266</ele>
        <time>2009-11-14T13:28:08Z</time>
      </trkpt>
      <trkpt lat="45.3015" lon="5.48329">
        <ele>266</ele>
        <time>2009-11-14T13:28:16Z</time>
      </trkpt>
      <trkpt lat="45.30128" lon="5.48387">
        <ele>263</ele>
        <time>2009-11-14T13:28:22Z</time>
      </trkpt>
      <trkpt lat="45.30139" lon="5.48375">
        <ele>262</ele>
        <time>2009-11-14T13:28:24Z</time>
      </trkpt>
      <trkpt lat="45.3017" lon="5.48369">
        <ele>258</ele>
        <time>2009-11-14T13:28:31Z</time>
      </trkpt>
      <trkpt lat="45.30174" lon="5.48375">
        <ele>258</ele>
        <time>2009-11-14T13:28:32Z</time>
      </trkpt>
      <trkpt lat="45.30179" lon="5.48382">
        <ele>257</ele>
        <time>2009-11-14T13:28:33Z</time>
      </trkpt>
      <trkpt lat="45.30206" lon="5.48428">
        <ele>252</ele>
        <time>2009-11-14T13:28:39Z</time>
      </trkpt>
      <trkpt lat="45.30228" lon="5.48467">
        <ele>250</ele>
        <time>2009-11-14T13:28:44Z</time>
      </trkpt>
      <trkpt lat="45.30237" lon="5.48482">
        <ele>250</ele>
        <time>2009-11-14T13:28:46Z</time>
      </trkpt>
      <trkpt lat="45.30256" lon="5.48516">
        <ele>249</ele>
        <time>2009-11-14T13:28:57Z</time>
      </trkpt>
      <trkpt lat="45.30281" lon="5.48542">
        <ele>249</ele>
        <time>2009-11-14T13:29:09Z</time>
      </trkpt>
      <trkpt lat="45.3029" lon="5.48548">
        <ele>248</ele>
        <time>2009-11-14T13:29:23Z</time>
      </trkpt>
      <trkpt lat="45.3029" lon="5.48548">
        <ele>248</ele>
        <time>2009-11-14T13:29:26Z</time>
      </trkpt>
      <trkpt lat="45.30298" lon="5.48548">
        <ele>247</ele>
        <time>2009-11-14T13:29:32Z</time>
      </trkpt>
      <trkpt lat="45.30304" lon="5.48543">
        <ele>247</ele>
        <time>2009-11-14T13:29:34Z</time>
      </trkpt>
      <trkpt lat="45.3032" lon="5.48544">
        <ele>247</ele>
        <time>2009-11-14T13:29:38Z</time>
      </trkpt>
      <trkpt lat="45.30324" lon="5.48584">
        <ele>244</ele>
        <time>2009-11-14T13:29:43Z</time>
      </trkpt>
      <trkpt lat="45.30321" lon="5.48601">
        <ele>243</ele>
        <time>2009-11-14T13:29:45Z</time>
      </trkpt>
      <trkpt lat="45.30299" lon="5.4863">
        <ele>239</ele>
        <time>2009-11-14T13:29:50Z</time>
      </trkpt>
      <trkpt lat="45.30293" lon="5.48629">
        <ele>239</ele>
        <time>2009-11-14T13:29:51Z</time>
      </trkpt>
      <trkpt lat="45.30271" lon="5.48625">
        <ele>235</ele>
        <time>2009-11-14T13:29:54Z</time>
      </trkpt>
      <trkpt lat="45.30242" lon="5.48651">
        <ele>230</ele>
        <time>2009-11-14T13:29:59Z</time>
      </trkpt>
      <trkpt lat="45.30241" lon="5.4868">
        <ele>228</ele>
        <time>2009-11-14T13:30:02Z</time>
      </trkpt>
      <trkpt lat="45.30242" lon="5.48705">
        <ele>228</ele>
        <time>2009-11-14T13:30:06Z</time>
      </trkpt>
      <trkpt lat="45.30242" lon="5.48707">
        <ele>228</ele>
        <time>2009-11-14T13:30:08Z</time>
      </trkpt>
      <trkpt lat="45.30233" lon="5.48705">
        <ele>227</ele>
        <time>2009-11-14T13:30:13Z</time>
      </trkpt>
      <trkpt lat="45.30214" lon="5.48677">
        <ele>227</ele>
        <time>2009-11-14T13:30:21Z</time>
      </trkpt>
      <trkpt lat="45.30191" lon="5.48666">
        <ele>226</ele>
        <time>2009-11-14T13:30:27Z</time>
      </trkpt>
      <trkpt lat="45.3018" lon="5.48647">
        <ele>226</ele>
        <time>2009-11-14T13:30:29Z</time>
      </trkpt>
      <trkpt lat="45.30179" lon="5.48648">
        <ele>226</ele>
        <time>2009-11-14T13:30:34Z</time>
      </trkpt>
      <trkpt lat="45.30136" lon="5.48587">
        <ele>226</ele>
        <time>2009-11-14T13:30:51Z</time>
      </trkpt>
      <trkpt lat="45.30106" lon="5.48537">
        <ele>227</ele>
        <time>2009-11-14T13:31:04Z</time>
      </trkpt>
      <trkpt lat="45.30044" lon="5.48465">
        <ele>228</ele>
        <time>2009-11-14T13:31:23Z</time>
      </trkpt>
      <trkpt lat="45.29987" lon="5.48433">
        <ele>229</ele>
        <time>2009-11-14T13:31:39Z</time>
      </trkpt>
      <trkpt lat="45.29976" lon="5.48427">
        <ele>229</ele>
        <time>2009-11-14T13:31:42Z</time>
      </trkpt>
      <trkpt lat="45.29971" lon="5.48424">
        <ele>229</ele>
        <time>2009-11-14T13:31:45Z</time>
      </trkpt>
      <trkpt lat="45.29922" lon="5.48404">
        <ele>230</ele>
        <time>2009-11-14T13:31:57Z</time>
      </trkpt>
      <trkpt lat="45.29895" lon="5.48396">
        <ele>230</ele>
        <time>2009-11-14T13:32:03Z</time>
      </trkpt>
      <trkpt lat="45.2987" lon="5.48381">
        <ele>230</ele>
        <time>2009-11-14T13:32:10Z</time>
      </trkpt>
      <trkpt lat="45.29815" lon="5.4834">
        <ele>230</ele>
        <time>2009-11-14T13:32:27Z</time>
      </trkpt>
      <trkpt lat="45.29803" lon="5.48328">
        <ele>230</ele>
        <time>2009-11-14T13:32:33Z</time>
      </trkpt>
      <trkpt lat="45.29791" lon="5.48354">
        <ele>229</ele>
        <time>2009-11-14T13:32:41Z</time>
      </trkpt>
      <trkpt lat="45.29783" lon="5.48401">
        <ele>227</ele>
        <time>2009-11-14T13:32:51Z</time>
      </trkpt>
      <trkpt lat="45.29785" lon="5.48421">
        <ele>225</ele>
        <time>2009-11-14T13:32:54Z</time>
      </trkpt>
      <trkpt lat="45.29787" lon="5.48458">
        <ele>224</ele>
        <time>2009-11-14T13:33:05Z</time>
      </trkpt>
      <trkpt lat="45.2979" lon="5.48479">
        <ele>222</ele>
        <time>2009-11-14T13:34:00Z</time>
      </trkpt>
      <trkpt lat="45.29798" lon="5.48497">
        <ele>222</ele>
        <time>2009-11-14T13:34:04Z</time>
      </trkpt>
      <trkpt lat="45.29815" lon="5.48498">
        <ele>220</ele>
        <time>2009-11-14T13:34:08Z</time>
      </trkpt>
      <trkpt lat="45.29875" lon="5.48523">
        <ele>217</ele>
        <time>2009-11-14T13:34:19Z</time>
      </trkpt>
      <trkpt lat="45.29912" lon="5.48539">
        <ele>215</ele>
        <time>2009-11-14T13:34:25Z</time>
      </trkpt>
      <trkpt lat="45.29925" lon="5.48545">
        <ele>214</ele>
        <time>2009-11-14T13:34:27Z</time>
      </trkpt>
      <trkpt lat="45.29951" lon="5.48568">
        <ele>213</ele>
        <time>2009-11-14T13:34:31Z</time>
      </trkpt>
      <trkpt lat="45.29988" lon="5.48634">
        <ele>209</ele>
        <time>2009-11-14T13:34:38Z</time>
      </trkpt>
      <trkpt lat="45.30021" lon="5.48693">
        <ele>206</ele>
        <time>2009-11-14T13:34:44Z</time>
      </trkpt>
      <trkpt lat="45.30083" lon="5.48814">
        <ele>203</ele>
        <time>2009-11-14T13:34:56Z</time>
      </trkpt>
      <trkpt lat="45.30087" lon="5.4886">
        <ele>202</ele>
        <time>2009-11-14T13:35:00Z</time>
      </trkpt>
      <trkpt lat="45.30085" lon="5.48882">
        <ele>201</ele>
        <time>2009-11-14T13:35:02Z</time>
      </trkpt>
      <trkpt lat="45.30062" lon="5.48982">
        <ele>199</ele>
        <time>2009-11-14T13:35:11Z</time>
      </trkpt>
      <trkpt lat="45.30057" lon="5.49027">
        <ele>199</ele>
        <time>2009-11-14T13:35:15Z</time>
      </trkpt>
      <trkpt lat="45.30052" lon="5.49049">
        <ele>197</ele>
        <time>2009-11-14T13:35:17Z</time>
      </trkpt>
      <trkpt lat="45.30027" lon="5.49178">
        <ele>194</ele>
        <time>2009-11-14T13:35:29Z</time>
      </trkpt>
      <trkpt lat="45.3002" lon="5.49202">
        <ele>193</ele>
        <time>2009-11-14T13:35:31Z</time>
      </trkpt>
      <trkpt lat="45.30017" lon="5.49213">
        <ele>193</ele>
        <time>2009-11-14T13:35:32Z</time>
      </trkpt>
      <trkpt lat="45.2999" lon="5.49323">
        <ele>196</ele>
        <time>2009-11-14T13:35:46Z</time>
      </trkpt>
      <trkpt lat="45.29977" lon="5.49373">
        <ele>196</ele>
        <time>2009-11-14T13:35:54Z</time>
      </trkpt>
      <trkpt lat="45.29973" lon="5.49391">
        <ele>195</ele>
        <time>2009-11-14T13:35:57Z</time>
      </trkpt>
      <trkpt lat="45.29961" lon="5.49443">
        <ele>194</ele>
        <time>2009-11-14T13:36:05Z</time>
      </trkpt>
      <trkpt lat="45.29939" lon="5.49533">
        <ele>193</ele>
        <time>2009-11-14T13:36:18Z</time>
      </trkpt>
      <trkpt lat="45.29931" lon="5.4956">
        <ele>193</ele>
        <time>2009-11-14T13:36:22Z</time>
      </trkpt>
      <trkpt lat="45.29898" lon="5.49651">
        <ele>192</ele>
        <time>2009-11-14T13:36:36Z</time>
      </trkpt>
      <trkpt lat="45.29895" lon="5.49657">
        <ele>192</ele>
        <time>2009-11-14T13:36:37Z</time>
      </trkpt>
      <trkpt lat="45.2986" lon="5.49746">
        <ele>193</ele>
        <time>2009-11-14T13:36:55Z</time>
      </trkpt>
      <trkpt lat="45.29842" lon="5.4979">
        <ele>193</ele>
        <time>2009-11-14T13:37:07Z</time>
      </trkpt>
      <trkpt lat="45.29824" lon="5.49831">
        <ele>193</ele>
        <time>2009-11-14T13:37:14Z</time>
      </trkpt>
      <trkpt lat="45.29824" lon="5.49831">
        <ele>190</ele>
        <time>2009-11-14T13:37:16Z</time>
      </trkpt>
      <trkpt lat="45.29824" lon="5.49831">
        <ele>194</ele>
        <time>2009-11-14T13:37:17Z</time>
      </trkpt>
      <trkpt lat="45.29824" lon="5.49831">
        <ele>193</ele>
        <time>2009-11-14T13:37:46Z</time>
      </trkpt>
    </trkseg>
  </trk>
</gpx>